GFSGBSN_850_dewp_000.txt.gz
Dewpoint
6 6 7 6 5 5 4 5 4 -3 -5 -4 -1 -1 -3 -3 -1 -2 -2 -0 -1 2 3 3 1 3 5 6 5 5 5 4 2 7 8 5 9 8 9 8 6 6 4 4 4 4 4
6 6 6 7 6 5 3 5 5 2 -5 -5 -1 -1 1 2 2 2 -1 -1 1 1 1 1 2 2 5 5 4 3 3 3 3 7 8 6 8 7 6 7 7 5 5 4 4 5 5
6 6 6 6 6 5 4 2 5 1 -6 -6 -2 -1 0 2 3 3 3 1 -1 0 0 2 3 3 5 3 2 0 1 2 1 4 6 6 6 9 7 8 7 6 7 5 5 5 5
6 6 6 6 6 6 6 4 1 3 2 -7 -4 3 1 1 3 4 3 3 2 0 0 3 3 3 3 3 3 2 1 2 3 3 5 6 7 9 10 7 7 8 7 8 4 5 5
5 6 6 6 6 6 6 5 4 2 4 -2 -5 -0 -1 2 2 1 2 4 4 1 2 2 4 4 3 2 2 1 2 2 4 2 3 6 7 9 9 9 10 9 10 8 5 4 4
5 5 6 6 6 6 6 6 3 -1 3 -1 -5 -2 3 3 2 3 4 4 5 4 4 4 3 4 3 3 3 3 2 2 3 5 5 6 6 9 10 10 11 9 8 6 7 4 2
4 5 5 5 6 5 6 6 3 -2 -1 -2 -5 -2 1 2 2 3 5 4 5 4 4 3 3 1 2 2 3 3 3 2 3 5 6 5 7 9 9 9 6 4 6 7 4 2 3
4 5 5 5 5 5 5 5 5 1 -4 -6 -6 -3 1 1 3 1 5 5 4 4 4 3 3 2 3 3 3 3 3 2 3 5 5 5 7 6 8 7 7 6 6 6 3 2 3
5 5 5 5 5 5 5 5 5 5 -1 -5 -5 -3 0 2 2 2 5 5 5 4 3 3 3 3 2 3 3 3 3 1 2 4 6 6 6 5 9 8 8 6 6 5 5 4 4
5 5 5 5 5 5 5 4 5 5 4 -2 -4 -3 2 3 3 4 5 5 5 4 4 3 4 2 3 3 3 2 3 1 3 4 6 3 3 8 9 9 7 8 5 5 6 9 9
4 4 4 5 5 6 5 5 5 6 5 3 -1 -3 2 1 5 5 4 5 4 3 6 1 3 2 2 1 0 2 3 1 2 5 5 5 7 7 9 8 6 6 5 6 7 8 7
4 4 4 4 4 5 6 5 6 6 6 5 4 -0 -1 2 3 5 5 3 3 4 5 5 3 3 3 1 -0 3 3 1 2 3 3 2 7 7 7 6 6 5 5 5 4 6 9
5 4 4 4 4 5 6 6 6 6 6 6 6 5 1 2 4 4 5 3 5 6 3 5 5 4 2 1 -0 3 3 3 6 7 7 4 5 9 7 9 6 6 8 12 12 10 9
6 5 4 4 4 6 6 5 6 6 6 6 6 5 4 3 3 5 4 4 6 5 5 3 4 4 3 1 0 4 2 2 3 6 4 7 10 9 7 7 8 7 7 7 9 9 6
5 5 5 5 5 6 5 6 6 6 6 6 6 5 5 4 4 4 3 5 5 6 4 5 3 5 2 1 1 4 1 1 4 4 5 7 8 7 7 6 5 8 9 3 4 4 5
2 5 5 5 6 6 5 5 6 6 6 6 6 4 4 5 4 4 3 6 5 4 3 2 1 1 2 1 4 4 0 -2 2 3 4 3 8 6 5 6 4 7 5 8 6 8 7
1 4 5 5 6 6 5 5 6 6 6 6 6 4 5 5 5 4 5 5 5 4 3 -1 -1 0 0 1 5 2 0 1 0 2 3 4 4 5 5 7 8 6 8 7 4 4 5
1 3 5 5 6 6 5 5 5 6 6 6 4 6 6 5 5 4 5 5 5 6 4 -3 -2 -1 -1 0 3 3 1 3 -2 4 5 4 2 8 6 1 2 4 5 5 7 6 3
1 1 5 6 6 6 5 5 5 6 6 5 4 6 6 5 6 6 5 5 5 6 3 -0 2 2 0 1 4 4 3 -2 1 4 5 2 3 7 7 4 1 5 4 5 3 1 4
1 1 3 6 6 6 5 5 5 6 6 5 4 7 6 6 6 6 6 6 7 5 3 4 3 3 3 2 1 3 3 4 5 3 4 1 3 2 5 5 4 5 3 4 5 6 4
2 1 2 5 6 6 5 5 5 5 6 5 2 5 5 6 6 6 6 6 6 7 6 7 5 4 2 4 5 5 4 6 4 5 5 4 4 3 3 2 2 3 4 2 3 4 4
1 1 2 5 6 6 5 5 5 5 6 6 3 4 4 5 5 6 6 7 6 8 6 7 8 4 3 4 4 6 6 6 6 6 5 3 4 1 2 2 2 2 2 3 3 3 2
-0 0 1 4 6 6 5 5 5 5 5 5 4 1 3 2 2 6 6 7 6 6 6 6 6 4 4 3 2 4 4 4 4 5 6 4 3 3 4 0 1 4 2 2 1 0 0
-1 1 1 2 6 6 5 5 5 5 5 5 2 3 3 2 2 2 4 6 7 6 7 4 2 4 2 2 2 3 4 2 3 2 3 4 2 2 4 1 6 1 -1 -0 1 0 -1
-0 0 1 2 6 6 5 5 4 5 5 5 5 2 3 2 0 1 3 5 3 3 2 0 0 1 1 -0 3 5 3 6 2 -0 0 2 6 7 5 7 0 -1 0 -1 1 2 -1
-1 -0 0 1 5 6 6 5 4 5 5 5 5 4 3 -0 -0 0 1 4 6 4 0 -0 0 -1 -1 1 5 8 9 8 6 3 -1 2 6 8 5 4 3 -0 -0 -1 -2 -1 -1
-2 -1 -0 1 4 5 5 5 4 4 5 5 5 4 3 1 -0 -1 0 3 4 3 1 -0 1 2 4 3 5 7 7 2 6 6 7 4 3 8 5 7 2 -0 -1 0 2 2 1
-2 -1 -0 0 2 6 6 5 4 4 5 5 5 4 3 2 1 -0 -0 -1 2 3 4 -1 3 2 5 6 5 4 5 1 1 1 3 5 4 3 5 8 8 -0 0 2 1 1 0
-2 -2 -0 0 2 6 5 5 4 4 5 5 5 5 4 5 2 2 1 0 1 -1 3 -0 3 1 5 5 3 3 2 1 1 2 -0 2 2 2 2 2 1 1 1 -0 1 0 -0

GFSGBSN_850_dewp_003.txt.gz
Dewpoint
7 6 6 6 6 6 6 5 4 4 1 -7 -5 -0 -1 -2 -0 1 -2 -1 -0 -2 -0 4 3 2 4 6 5 4 4 4 5 8 8 6 4 5 9 6 6 6 4 3 3 2 3
6 6 6 6 6 6 5 4 2 5 3 -4 -6 -1 -0 1 2 3 2 -0 0 1 -0 2 3 2 5 5 3 4 5 4 4 6 7 7 4 3 5 7 6 6 4 3 3 3 3
6 6 5 6 6 6 6 6 4 2 3 -3 -8 -5 0 -0 3 4 4 3 0 -2 1 -0 3 3 5 3 2 3 3 3 3 3 4 6 6 5 5 7 6 6 6 5 3 3 3
5 6 5 6 6 6 6 6 6 4 -0 2 -2 -6 2 3 3 3 5 4 2 0 -1 1 2 5 5 3 3 3 3 2 2 2 3 4 6 5 6 9 9 7 8 9 4 4 3
4 5 5 6 6 6 6 6 6 5 3 2 3 -5 -5 3 1 3 2 2 4 3 1 2 3 5 3 3 3 2 2 2 1 3 3 3 6 6 6 10 11 10 11 9 7 3 3
4 4 5 6 6 5 5 6 6 6 3 -0 4 -1 -5 1 1 2 3 5 4 5 2 4 5 5 3 3 2 2 2 2 1 2 3 3 5 6 7 10 11 10 10 8 9 4 4
5 4 5 5 5 5 5 5 5 5 4 -1 3 0 -4 -1 2 3 3 4 4 5 4 4 4 2 2 2 3 3 2 2 2 1 4 3 6 8 5 7 8 7 9 7 6 3 4
5 4 4 4 5 6 5 5 5 5 5 2 2 -3 -4 0 1 3 3 4 4 4 5 4 3 3 2 3 3 3 2 2 1 3 1 4 7 3 2 4 9 8 8 7 6 3 3
6 3 5 5 5 5 5 5 5 4 5 4 -1 -3 -4 0 2 3 4 2 5 4 4 3 4 3 2 3 2 2 2 2 0 2 1 4 4 2 2 4 10 8 9 8 6 4 3
6 4 4 5 5 5 5 5 5 4 5 4 1 -3 -3 1 3 4 4 4 4 5 4 4 4 4 3 3 3 2 2 1 1 2 0 2 1 4 3 7 7 10 7 4 5 6 7
6 6 5 5 5 5 5 6 6 5 5 5 3 -1 -2 1 4 5 5 4 5 4 6 2 4 3 4 3 -1 -1 1 2 2 1 3 3 4 6 5 5 7 10 7 5 6 7 9
3 5 5 5 4 4 5 6 6 5 6 6 4 3 -1 2 2 4 4 4 3 4 6 4 3 3 3 4 0 0 -0 1 -0 1 3 1 3 4 5 6 8 7 7 7 6 6 8
2 3 4 5 5 4 4 5 6 6 6 6 6 4 3 3 4 4 4 3 5 6 3 5 5 4 3 3 2 2 3 3 5 6 7 4 4 4 5 8 8 9 10 11 10 10 7
-0 1 2 5 5 4 4 5 6 6 6 7 6 6 4 3 4 4 4 3 6 3 3 4 4 4 6 2 0 1 3 5 2 4 6 6 6 5 4 8 9 9 9 6 8 7 5
0 1 1 3 5 5 4 6 6 6 6 7 6 6 5 5 3 4 3 5 5 4 5 5 5 6 6 3 -3 -2 3 5 -0 2 8 6 7 6 7 7 6 8 10 4 5 4 5
-1 2 1 2 5 5 6 6 6 6 7 6 6 5 5 5 4 4 4 5 5 4 4 4 5 2 4 3 -1 1 2 1 -1 -1 3 6 8 7 9 7 7 8 5 7 5 7 6
0 1 1 1 4 5 6 6 6 6 6 6 6 5 5 4 4 4 4 5 4 4 4 2 -0 -0 -1 -1 -1 1 0 -3 -3 -1 3 6 7 7 9 9 9 9 9 6 3 4 5
-0 1 1 1 4 6 6 6 5 5 6 6 5 5 5 5 5 4 5 4 4 5 5 2 -4 -3 -3 -3 -1 0 -1 -3 -5 -2 6 6 7 9 8 3 4 7 8 5 6 6 4
-1 1 1 1 1 6 6 6 5 6 6 6 5 4 6 5 6 5 3 4 4 5 5 1 -1 -3 -4 -2 -0 -0 -1 -4 -2 -1 6 5 7 10 10 6 5 7 5 5 4 3 4
-2 0 2 1 1 5 6 6 5 5 6 6 4 6 5 5 5 6 5 6 6 4 4 0 -1 -1 -0 -0 -2 1 1 -2 -0 -1 4 3 5 5 6 5 6 8 6 4 3 5 3
-2 -0 0 1 1 4 6 5 4 6 6 6 3 5 5 6 5 5 6 5 6 7 5 1 4 2 2 0 0 3 0 1 -0 2 2 5 5 3 2 2 4 4 5 6 6 5 5
-1 -2 -1 1 1 2 5 5 4 5 6 6 3 2 5 6 4 5 6 6 6 5 5 6 8 3 2 1 -1 1 0 1 5 3 4 4 6 3 4 3 2 4 3 4 4 4 4
-1 -1 -0 0 1 2 5 6 5 5 5 5 5 4 3 2 4 5 6 6 6 5 6 4 6 6 3 2 -0 1 -0 2 3 4 6 6 6 4 5 3 3 5 3 3 3 2 2
-2 -1 -1 -0 1 2 5 6 5 5 5 5 5 4 3 1 -1 2 3 6 6 6 6 6 6 7 4 2 2 3 3 2 4 4 3 6 5 4 6 3 7 1 -1 0 1 2 1
-2 -2 -1 -0 0 1 3 5 5 5 5 5 5 3 3 2 -0 0 3 6 5 6 6 4 5 5 4 2 4 7 7 6 3 1 5 4 5 7 8 8 6 3 -1 0 2 2 -0
-2 -1 -1 -1 -0 1 2 5 6 5 5 5 5 5 4 2 -1 0 3 5 5 5 3 3 2 1 0 3 6 9 9 8 7 5 3 5 5 8 7 5 7 0 0 -2 -1 2 -1
-2 -2 -1 -1 -1 1 2 5 5 5 5 5 5 5 4 3 1 0 2 5 6 4 4 1 2 2 4 4 7 8 8 6 8 8 7 8 8 9 9 9 5 -0 -0 -0 1 3 -1
-2 -2 -2 -1 -1 -0 2 5 5 5 5 5 5 5 5 4 3 1 1 2 5 5 3 2 4 4 6 7 6 5 5 4 5 5 6 7 7 9 8 10 8 -0 1 2 2 1 -0
-2 -2 -2 -2 -1 -1 1 4 5 5 5 5 5 5 4 4 5 2 2 1 4 6 2 2 4 4 6 7 4 3 4 0 2 5 1 6 3 3 3 5 1 0 1 1 1 1 0

GFSGBSN_850_dewp_006.txt.gz
Dewpoint
5 5 6 6 6 6 6 6 5 5 3 4 -0 -6 -2 -0 -2 -0 1 -0 -1 1 -1 1 4 2 2 6 5 5 3 2 5 6 8 7 6 4 6 7 6 6 5 4 3 3 2
6 4 5 6 6 6 6 6 6 5 3 5 3 -5 -4 -0 1 2 3 3 1 2 2 2 4 4 5 4 3 3 5 3 4 5 7 7 6 5 3 5 7 6 6 6 5 3 2
6 2 4 5 5 6 6 6 6 6 4 3 3 -2 -6 -1 0 3 3 3 3 2 0 1 2 3 5 4 3 3 3 4 3 3 3 5 5 6 4 4 5 6 8 6 6 4 3
6 4 0 4 5 5 6 6 6 5 5 4 1 2 -4 -1 4 2 3 4 4 3 2 1 1 5 5 4 3 3 2 2 1 1 2 3 3 5 5 5 7 9 8 10 6 4 4
6 6 2 3 5 5 6 6 6 6 6 6 3 2 3 1 4 2 3 2 2 4 3 3 2 4 3 3 3 2 3 2 1 1 3 2 2 4 5 6 8 9 10 10 9 5 4
7 6 5 4 4 5 6 5 5 6 6 6 4 1 4 -3 2 2 3 2 5 4 5 4 5 4 3 2 3 3 2 2 2 1 1 3 2 5 6 7 9 8 11 8 10 7 5
6 7 6 4 4 5 5 6 5 5 5 5 5 0 3 1 1 3 4 3 3 4 5 3 3 2 2 2 2 2 2 2 2 2 2 1 5 6 5 5 5 6 7 10 7 6 6
5 5 7 6 3 5 4 5 5 5 5 5 5 2 2 0 2 2 4 4 4 4 5 5 3 3 2 3 2 2 2 2 2 3 1 3 6 3 2 3 5 6 8 9 7 6 6
3 5 7 6 4 4 4 5 5 5 5 5 5 4 -0 -1 2 3 3 4 3 3 4 4 4 4 3 3 2 1 2 2 1 3 2 3 2 2 2 2 4 6 8 9 9 6 6
2 3 4 6 6 5 5 5 5 5 5 5 5 4 -2 -1 2 2 4 5 5 4 4 4 4 4 4 4 4 2 2 2 1 2 1 2 1 0 3 3 3 6 5 7 9 9 10
1 2 2 4 6 5 5 5 5 5 6 6 5 3 -2 -1 4 4 4 4 4 5 6 3 4 4 4 4 3 2 2 2 2 1 0 4 1 1 2 4 2 5 4 7 9 10 9
0 1 -0 2 4 5 6 6 5 6 6 6 6 4 0 1 4 4 4 4 4 4 5 4 4 4 4 4 3 3 2 2 1 2 0 1 -0 1 2 2 4 3 5 7 10 10 12
-0 1 0 1 3 4 5 5 5 5 6 6 6 5 3 2 3 2 3 4 5 6 2 6 5 3 3 5 4 3 2 3 3 4 5 5 4 3 4 5 4 6 8 10 12 11 10
-1 0 -0 1 2 4 5 5 5 5 6 6 6 6 4 4 4 4 4 3 6 1 3 4 4 4 6 4 5 4 3 3 2 3 5 4 4 4 3 5 6 7 8 10 12 12 7
-1 -0 0 2 1 2 3 5 4 5 7 6 7 6 5 4 4 4 3 4 4 4 4 5 5 5 6 5 4 3 3 5 1 1 5 7 5 3 2 2 7 8 8 6 11 3 6
-2 -0 1 0 2 1 2 5 5 6 7 6 7 6 5 5 4 4 4 4 4 3 4 4 6 3 4 4 2 1 1 -1 1 1 1 4 7 4 5 5 6 8 6 10 10 7 9
-0 -0 0 1 2 1 1 5 6 6 6 7 6 5 5 5 4 4 4 4 3 2 4 5 3 2 1 2 1 -2 -1 -2 -0 0 2 4 6 7 6 9 8 10 10 10 10 7 7
-1 -0 -0 1 1 1 2 4 6 6 6 7 6 5 5 5 5 5 5 3 4 4 4 5 3 3 -2 -0 0 -1 0 0 -2 -2 2 5 6 8 7 6 7 8 9 9 7 8 5
-1 -1 -0 0 1 1 1 4 6 6 6 6 5 5 5 5 5 5 4 4 4 5 6 5 3 -2 -4 -3 -2 -3 1 -2 -3 3 4 5 7 9 8 9 8 10 9 7 7 5 7
-2 -1 -1 0 0 1 1 3 6 6 6 6 5 6 5 5 4 5 5 5 5 4 4 4 3 -1 -2 -2 -4 3 -1 -0 -1 -1 4 7 7 8 10 8 8 10 9 7 6 7 4
-3 -1 -1 -1 0 1 1 3 6 6 6 6 4 5 5 6 5 5 5 5 5 6 5 4 3 0 1 1 -1 -1 0 -1 0 -1 4 5 9 7 3 6 6 7 7 6 6 4 5
-4 -2 -2 -1 -0 -0 1 2 3 6 6 6 4 3 5 5 3 4 5 6 6 5 6 5 3 4 4 1 -1 0 -1 0 -0 2 2 3 7 6 4 3 4 6 6 6 6 5 5
-4 -3 -2 -1 -1 -0 0 2 5 6 6 5 5 3 4 3 5 6 6 5 6 5 5 5 4 2 6 2 -0 -3 -2 -2 2 3 5 6 7 6 5 3 3 5 4 5 5 4 4
-4 -3 -1 -1 -1 -1 0 1 3 5 5 6 5 4 4 5 1 3 4 4 6 6 6 6 5 6 5 3 3 3 3 3 2 3 3 6 7 6 5 4 7 2 -1 0 3 2 2
-4 -4 -1 -2 -1 -0 -1 1 2 3 5 5 5 5 5 5 3 1 -1 4 6 6 7 6 6 5 5 4 6 7 8 7 4 2 4 4 6 7 8 7 5 3 -1 1 2 3 1
-4 -4 -2 -2 -2 -1 -2 1 2 5 5 5 5 5 4 4 3 1 3 5 6 5 6 5 4 4 5 5 7 9 8 8 8 6 4 6 6 8 7 7 8 1 -0 -2 -0 4 -1
-4 -4 -2 -2 -2 -1 -2 0 1 4 5 5 5 5 5 4 3 2 1 5 5 4 5 3 3 4 5 5 8 7 9 6 8 8 8 8 8 9 9 8 6 1 -1 -1 2 4 -1
-4 -4 -2 -1 -2 -2 -1 -0 1 4 5 5 4 5 5 4 3 3 2 2 5 5 5 3 4 5 6 7 8 7 6 7 7 6 7 8 8 8 8 9 8 0 1 2 3 0 -1
-4 -4 -2 -1 -2 -2 -1 -0 1 4 5 4 4 5 5 4 5 4 4 2 2 4 5 4 4 4 6 7 6 5 4 1 5 8 5 7 6 7 6 6 2 0 1 1 1 -0 0

GFSGBSN_850_dewp_009.txt.gz
Dewpoint
7 4 2 -2 5 6 6 6 6 6 5 3 3 1 -5 -4 0 -2 0 1 -0 -1 0 -1 2 3 3 5 6 5 3 3 4 5 7 8 8 7 6 5 7 8 6 7 6 6 5
7 7 6 3 -1 6 5 6 6 5 6 5 4 4 -1 -6 0 1 2 3 3 0 1 1 1 4 4 5 -1 2 4 4 4 4 7 7 8 7 6 4 5 5 6 6 5 5 4
8 8 7 5 3 0 5 5 6 5 6 6 4 2 1 -7 -3 0 2 4 4 3 0 1 1 2 4 3 2 3 3 4 4 3 3 6 5 6 6 6 5 6 8 6 7 6 6
6 7 8 7 5 1 4 4 5 5 6 6 5 4 1 -2 -6 3 2 3 4 4 3 1 1 2 4 2 1 3 2 4 4 4 3 3 3 3 5 5 5 7 8 10 7 6 6
3 5 6 7 6 4 3 4 6 5 5 5 6 5 1 3 -4 3 2 3 2 2 4 3 3 2 3 2 2 2 3 2 2 1 2 1 1 2 4 6 7 7 8 9 9 6 6
2 3 5 6 7 6 3 4 5 5 5 6 5 5 2 4 0 2 2 4 3 5 5 5 3 5 3 2 2 2 3 3 2 1 1 2 2 4 5 7 7 6 8 6 9 7 7
2 2 3 5 5 7 5 4 5 5 5 5 5 6 3 3 3 0 2 3 3 4 5 4 3 2 2 2 2 3 2 3 3 2 3 1 5 5 4 4 5 4 5 7 6 6 7
1 2 2 3 5 6 6 4 4 5 5 5 5 6 4 2 2 1 4 4 3 4 5 4 4 4 2 2 3 2 2 2 2 3 2 3 4 3 3 3 4 5 7 7 5 6 8
-1 1 1 2 3 4 6 5 4 4 4 5 5 5 5 2 1 2 3 4 3 3 3 4 3 4 4 3 3 2 2 2 2 4 3 4 2 1 3 3 5 5 7 6 6 6 7
-1 -0 1 1 1 1 4 5 5 5 5 5 5 6 5 2 1 2 3 2 3 4 4 3 3 4 4 4 4 3 2 2 2 4 3 3 1 1 2 4 3 5 3 4 6 7 10
-1 0 0 1 2 0 1 4 5 5 6 5 6 6 4 -2 1 2 1 3 4 4 4 2 3 3 4 4 3 3 2 3 4 2 3 3 2 2 3 2 2 4 1 3 5 8 8
-1 -0 -1 -0 0 2 1 3 5 6 6 6 6 6 3 1 4 3 3 4 3 4 3 5 4 3 4 4 4 3 3 3 4 4 3 2 -1 1 1 -0 -0 2 5 5 6 7 10
-2 -0 0 1 1 1 2 2 4 4 6 6 6 6 2 -1 4 4 4 2 5 4 0 5 4 3 3 3 4 3 4 5 6 6 5 4 4 2 4 4 3 3 5 8 8 9 9
-2 -2 0 -0 0 1 2 2 4 3 6 6 6 6 4 1 2 2 2 4 4 2 3 3 3 3 5 3 4 3 4 5 4 3 4 3 2 3 3 4 3 4 4 6 8 8 6
-1 -2 -0 -0 -1 0 2 2 2 4 6 6 6 6 3 3 4 3 2 4 3 2 4 5 5 5 5 4 3 5 5 5 2 2 3 5 4 1 1 2 2 4 6 3 8 9 10
-2 -1 -1 -1 -0 1 1 2 2 4 5 6 6 5 4 4 5 3 3 2 3 2 4 5 6 5 3 3 5 4 4 3 2 1 -0 3 5 2 3 2 3 3 3 7 8 10 12
-3 -2 -1 -1 -0 0 1 1 1 3 5 6 6 5 5 4 4 4 5 3 2 2 3 5 6 5 3 3 3 3 1 -0 1 1 0 3 4 3 4 6 5 6 7 6 6 7 11
-3 -4 -2 -1 -1 1 1 1 1 3 5 6 5 6 5 4 5 4 5 2 2 3 3 4 5 4 4 1 2 1 0 -2 1 0 3 4 6 6 5 5 3 5 7 5 6 8 9
-3 -3 -3 -1 -2 0 0 0 2 4 5 6 5 5 5 5 5 5 3 3 2 3 4 5 5 3 2 2 4 1 0 -1 0 2 4 5 6 6 8 8 7 6 7 7 5 8 9
-3 -3 -3 -1 -2 -0 0 0 0 4 5 6 5 6 5 5 5 4 4 4 5 4 4 5 5 4 3 1 0 1 -1 0 -0 1 3 4 6 7 10 9 7 9 7 7 8 10 5
-3 -4 -3 -2 -1 -0 0 0 1 2 6 6 5 5 4 5 5 5 4 5 6 5 4 5 5 4 3 1 -1 1 1 1 2 4 4 4 6 5 5 6 7 7 8 8 7 6 3
-3 -4 -3 -3 -1 -1 0 -0 1 3 5 6 5 5 4 4 3 5 5 6 6 5 5 6 6 3 2 4 -0 0 1 1 1 4 4 4 7 7 8 8 8 8 8 8 6 5 4
-3 -4 -3 -3 -1 -1 -0 -0 1 3 5 6 4 4 4 5 4 5 5 4 5 5 5 4 5 5 5 3 3 -1 1 -2 -1 3 4 6 7 8 6 6 7 8 7 6 5 4 4
-3 -4 -3 -3 -1 -1 -1 -0 1 2 2 5 4 4 4 5 4 5 4 4 5 5 5 5 5 5 4 3 4 3 3 2 2 3 3 5 6 6 6 4 6 2 -1 3 5 4 3
-3 -4 -4 -3 -2 -1 -1 -1 0 1 4 5 5 4 4 6 4 4 3 2 4 5 6 6 5 4 4 5 6 7 7 6 5 3 4 4 5 7 7 7 4 1 -0 1 3 3 1
-3 -4 -4 -4 -2 -1 -2 -1 0 1 3 5 6 6 4 5 5 4 3 4 4 4 5 5 6 5 6 6 7 8 9 8 8 6 5 5 5 7 4 6 7 1 -0 -2 -1 4 -0
-3 -4 -4 -4 -2 -1 -2 -1 -0 2 3 5 5 5 5 4 3 3 3 4 4 5 5 4 4 5 5 7 8 6 7 5 8 8 8 8 8 7 7 8 5 1 -1 -1 3 2 -0
-4 -3 -4 -4 -2 -1 -1 -1 -0 1 4 4 5 5 5 4 4 3 1 3 4 4 5 4 5 5 6 7 7 7 7 7 7 6 7 7 8 9 8 8 8 -0 -0 -1 0 -0 1
-4 -4 -4 -4 -2 -1 -1 -1 -0 1 2 4 5 5 5 4 4 4 3 3 3 3 5 5 5 5 5 7 6 6 5 5 6 8 5 8 6 7 6 6 2 1 1 1 -0 1 1

GFSGBSN_850_dewp_012.txt.gz
Dewpoint
6 7 8 7 7 4 1 4 5 6 6 6 6 3 3 -4 -4 -0 -2 1 1 -0 -0 -1 -1 1 -0 5 5 4 3 3 4 7 8 8 7 7 6 5 6 7 6 7 8 7 7
4 6 7 8 8 7 4 0 5 5 6 5 6 5 4 1 -6 0 1 2 2 2 -0 1 0 3 3 5 -0 4 4 4 4 5 6 7 7 6 7 5 5 4 4 5 6 6 6
2 3 4 6 7 8 7 3 3 5 5 5 5 6 4 2 -5 -2 1 2 4 3 2 -0 1 2 4 2 1 2 3 3 4 4 3 6 5 7 7 6 5 5 7 6 6 6 7
2 2 2 4 5 7 7 6 1 5 5 5 5 5 5 1 -1 -3 0 4 4 5 3 2 1 2 2 1 0 3 3 3 4 5 4 3 3 3 3 5 5 6 6 8 5 6 6
1 2 2 2 3 5 6 7 6 3 5 5 4 5 5 2 2 -3 4 2 3 2 4 3 3 2 1 1 0 -1 2 3 3 4 3 3 1 2 3 7 7 7 8 7 7 5 7
-0 0 0 2 2 3 5 6 7 4 4 5 5 5 5 4 3 -1 3 3 4 3 4 5 4 4 3 1 0 0 2 3 2 2 1 2 2 3 4 7 7 6 7 6 5 6 6
-0 -0 1 1 2 1 3 5 6 6 4 4 5 5 6 5 4 1 3 3 3 3 5 5 4 3 1 2 2 2 2 3 3 2 3 1 5 4 3 3 5 5 5 5 4 3 5
-2 -2 -0 1 1 1 1 3 5 6 4 5 5 5 6 6 3 3 2 3 3 3 4 4 4 4 2 3 3 2 2 3 3 4 2 3 5 2 2 2 4 4 5 6 4 3 4
-3 -3 -2 0 1 1 1 1 2 5 5 5 5 5 6 6 3 3 1 3 3 2 3 3 3 5 5 4 4 3 3 2 3 3 2 4 1 0 2 4 5 5 5 4 4 4 4
-2 -2 -3 0 0 1 1 2 0 3 6 5 5 5 6 5 4 2 3 4 3 3 3 3 3 4 4 4 4 3 2 2 3 4 2 3 1 2 2 4 4 5 3 4 5 6 7
-2 -2 -2 0 -0 0 0 1 2 -2 4 5 5 6 6 5 2 1 1 2 2 3 -3 0 3 4 4 4 3 3 3 2 4 4 3 4 3 3 3 2 3 4 2 3 4 5 6
-2 -2 -2 -1 -0 0 1 1 1 1 2 5 6 6 6 5 -0 -1 1 2 4 -1 -1 4 4 4 4 4 3 3 3 3 5 4 3 2 1 1 1 0 -0 2 4 4 4 6 8
-2 -4 -2 -1 -0 0 -1 0 1 2 2 3 5 6 6 3 -1 0 3 5 2 -1 -1 4 4 4 3 4 4 3 4 5 5 6 5 5 4 2 3 4 2 2 3 5 6 7 6
-2 -2 -2 -1 -1 -0 -0 1 1 2 3 1 4 6 6 1 1 3 4 2 -0 -0 3 3 2 3 4 2 4 2 5 5 4 5 5 5 5 3 2 2 3 3 3 5 5 6 4
-2 -3 -3 -2 -1 -1 -0 1 1 2 2 2 3 6 5 2 3 3 2 3 -0 1 3 3 3 5 5 3 3 4 5 4 2 3 4 5 3 1 1 1 1 4 5 1 4 5 7
-2 -3 -3 -2 -2 -1 -1 0 2 2 2 2 3 5 4 1 3 4 3 2 2 2 4 3 5 4 4 3 4 4 4 2 3 2 1 1 3 2 1 2 1 2 2 5 4 6 7
-2 -2 -3 -3 -2 -1 -1 0 1 2 2 2 3 4 4 2 4 3 4 3 2 4 3 4 5 6 4 2 3 3 3 1 2 1 1 1 3 4 3 4 4 4 4 3 2 5 9
-2 -2 -2 -4 -2 -2 -1 0 0 1 2 2 5 3 4 4 4 3 5 3 1 2 3 3 3 5 4 2 4 2 2 -1 1 -0 3 1 5 5 3 1 3 2 2 2 4 3 5
-3 -2 -3 -4 -3 -4 -1 1 0 1 2 4 5 4 4 4 4 4 3 2 2 3 3 4 5 4 3 2 3 2 1 -2 0 1 3 4 5 5 5 5 3 6 3 3 4 5 7
-3 -3 -2 -4 -3 -3 -1 -0 -0 1 1 4 3 5 4 4 4 4 4 4 4 3 3 4 5 4 4 5 1 1 1 -1 -1 1 3 4 5 6 5 8 5 7 5 3 4 7 5
-3 -3 -3 -4 -2 -2 -1 -1 -0 1 2 2 3 5 4 4 4 4 3 4 4 5 4 4 5 5 5 4 1 3 1 -0 1 3 4 4 6 5 5 5 6 7 6 6 8 5 6
-4 -3 -3 -4 -3 -2 -1 -1 -0 0 3 3 5 5 3 3 3 5 4 5 5 5 5 6 5 4 4 5 1 0 -0 1 3 4 4 4 5 5 7 6 6 7 6 6 7 6 6
-3 -3 -3 -4 -4 -2 -2 -1 -0 0 1 3 4 4 3 3 3 4 5 4 4 4 4 4 5 5 5 4 2 2 1 0 2 4 4 5 5 8 9 8 8 10 7 7 6 5 5
-3 -3 -3 -3 -4 -2 -2 -1 -0 0 1 2 4 4 4 6 4 4 5 4 4 4 4 4 5 5 3 4 4 3 4 4 0 2 2 5 7 6 9 9 7 2 5 5 7 7 7
-3 -3 -3 -3 -4 -3 -2 -1 -0 0 1 3 5 4 4 5 4 4 4 4 3 3 4 4 5 4 4 4 6 7 6 6 5 3 4 4 6 7 7 7 4 2 0 4 7 5 2
-3 -3 -3 -4 -4 -3 -1 -1 -0 0 1 3 5 4 3 5 5 4 4 4 4 3 5 5 5 5 5 6 7 7 8 6 7 6 4 5 5 7 4 6 7 2 -0 -2 -1 4 -0
-3 -3 -3 -4 -4 -3 -1 -1 -1 -0 1 3 5 5 4 4 4 4 4 4 4 4 5 4 4 5 6 6 7 7 7 5 8 6 7 8 7 7 6 7 5 2 -1 -1 4 2 -0
-3 -3 -3 -4 -4 -4 -2 -1 -1 -0 0 2 4 5 5 4 4 3 3 4 4 3 5 4 5 6 6 7 7 7 6 5 6 5 7 7 8 7 6 7 6 1 -1 -1 -1 0 1
-4 -4 -3 -4 -4 -4 -3 -1 -1 -1 1 3 4 5 5 4 4 4 4 3 3 3 3 5 5 5 6 6 6 6 6 5 5 7 4 7 6 7 6 5 2 1 1 1 -0 1 1

GFSGBSN_850_dewp_015.txt.gz
Dewpoint
3 3 4 5 6 7 8 7 3 3 5 6 5 5 6 3 1 3 1 0 1 0 -0 -1 -2 -2 -1 6 6 4 3 3 6 8 9 9 8 6 6 5 5 6 6 6 6 7 7
2 3 2 3 3 5 7 7 7 2 4 5 5 5 5 4 3 0 4 1 3 2 0 1 -1 2 3 3 -3 4 4 4 4 8 8 8 8 7 7 5 5 5 5 5 5 6 6
1 1 1 2 3 3 5 6 7 7 3 4 5 5 5 5 4 1 4 2 4 3 2 -0 1 2 4 1 1 -1 5 4 4 4 3 5 5 7 7 7 6 5 6 5 5 5 6
1 1 1 2 1 2 2 4 5 7 6 3 4 4 4 5 5 1 -1 2 4 6 4 2 1 1 1 0 0 3 2 4 4 4 4 3 6 5 4 4 5 6 6 8 4 5 5
-0 -0 -0 1 1 2 2 2 4 5 6 5 5 4 4 5 5 1 -0 2 3 4 4 3 2 2 2 1 0 1 2 3 3 4 5 4 3 2 2 6 7 7 7 7 5 4 6
-1 -1 -2 -1 0 1 1 1 2 4 6 6 4 5 5 4 5 2 -1 4 3 3 3 5 4 3 2 1 1 0 0 3 2 2 2 2 2 4 4 6 6 6 7 6 6 5 5
-2 -2 -1 -3 -2 1 1 1 2 2 4 6 5 5 6 5 4 3 1 5 3 3 5 5 4 4 1 2 2 2 1 2 3 2 3 1 5 6 4 3 4 5 6 6 4 3 4
-1 -1 -2 -0 -2 -0 1 1 1 2 2 4 6 5 6 5 6 4 1 4 2 3 4 4 5 4 3 3 3 2 2 3 3 4 2 4 4 2 1 2 3 4 5 5 4 3 4
-2 -2 -1 -2 -2 -1 0 1 1 2 1 1 4 5 5 5 6 5 3 2 3 3 2 2 3 5 5 3 3 3 3 3 3 4 4 4 2 1 2 3 4 4 5 4 4 2 2
-2 -2 -2 -2 -2 -1 -1 0 1 1 -0 1 3 5 6 6 5 5 4 2 3 3 -1 1 4 4 4 4 4 3 3 2 3 4 4 4 1 1 2 3 3 4 3 4 4 5 5
-1 -2 -1 -2 -2 -1 -0 0 0 0 0 3 2 5 6 6 5 5 3 1 4 3 -2 0 3 4 5 4 3 3 3 2 3 4 3 4 4 2 3 3 2 3 2 3 4 6 5
-1 -2 -2 -2 -2 -1 -1 -0 -0 0 -1 0 1 4 6 6 5 3 3 1 3 -1 -1 4 3 3 4 4 4 3 3 3 4 4 3 2 1 2 2 1 1 2 3 4 4 5 6
-1 -2 -2 -3 -2 -2 -1 -1 -0 1 0 -0 1 3 5 5 4 1 1 3 2 -1 -0 4 3 3 3 3 3 4 4 5 6 6 5 5 5 2 2 3 1 1 4 6 7 7 5
-1 -2 -2 -2 -2 -1 -1 -1 -0 1 1 2 0 2 3 5 4 0 2 2 1 -1 2 1 2 4 4 3 3 4 4 4 3 4 5 5 5 5 3 3 4 3 3 5 5 5 4
-2 -2 -2 -2 -3 -2 -2 -2 -0 1 2 2 1 2 2 5 3 2 2 3 0 -1 2 3 3 4 4 3 3 4 3 2 2 2 4 4 4 2 2 1 2 5 6 2 3 3 7
-3 -2 -2 -2 -2 -2 -2 0 0 0 2 2 2 1 3 5 1 3 3 1 -0 2 3 2 3 3 3 2 3 3 3 2 2 1 1 2 3 1 2 1 1 2 1 5 6 6 5
-2 -3 -2 -2 -2 -3 -2 -0 -0 0 1 1 2 1 4 3 3 3 4 1 1 3 3 3 3 4 3 3 3 2 1 1 2 2 1 2 2 2 2 4 3 4 4 3 3 3 4
-2 -3 -2 -2 -3 -3 -2 -0 -0 1 1 2 1 2 3 4 4 4 4 2 1 4 3 3 3 2 4 2 3 2 3 1 1 2 4 2 3 4 2 2 0 1 2 2 6 2 1
-2 -3 -4 -3 -3 -3 -2 -1 -1 0 1 1 3 2 4 4 4 4 3 3 2 3 3 3 4 3 3 3 3 2 1 -1 1 1 3 3 5 5 6 4 3 5 4 2 2 4 3
-3 -3 -4 -3 -3 -3 -2 -1 -0 -0 1 2 3 2 4 4 3 3 3 3 3 2 2 2 4 3 4 4 2 2 2 -1 -1 0 3 3 5 5 5 6 5 5 4 3 2 3 3
-4 -3 -4 -3 -3 -4 -2 -2 -1 0 1 2 2 3 2 3 4 2 2 3 3 5 3 3 4 5 5 4 4 4 2 1 1 1 4 4 5 5 5 5 5 6 4 3 3 2 3
-4 -3 -4 -3 -3 -4 -2 -1 -1 0 2 3 3 4 3 2 3 3 3 4 4 4 5 5 5 5 4 6 2 1 0 1 3 4 4 4 4 5 5 4 5 6 5 5 3 2 2
-3 -3 -4 -3 -3 -4 -3 -2 -1 0 0 0 2 5 3 3 3 4 5 4 4 4 4 3 4 5 5 4 3 3 2 2 2 4 5 4 5 6 8 7 7 7 6 6 4 3 4
-3 -3 -4 -3 -3 -3 -3 -1 -1 0 0 1 2 3 5 4 3 3 4 3 4 4 4 4 4 5 4 4 4 4 4 3 2 3 3 5 6 6 8 7 9 6 7 4 5 5 5
-3 -3 -3 -4 -3 -3 -3 -1 -1 -0 0 1 2 4 5 5 3 3 3 4 4 4 4 4 4 4 4 4 5 6 6 5 5 3 3 3 5 8 8 7 5 5 8 7 7 6 5
-3 -3 -4 -4 -3 -3 -4 -1 -1 -1 0 2 4 4 5 4 5 3 3 4 5 5 4 4 5 5 5 6 6 7 7 5 6 6 4 5 5 7 7 7 7 2 3 4 4 6 4
-3 -3 -3 -5 -3 -4 -4 -2 -1 -1 0 1 3 4 4 4 4 4 4 4 3 3 4 4 4 5 5 6 7 7 6 5 7 5 5 7 7 7 5 7 5 2 -0 -0 6 3 -0
-3 -3 -3 -4 -4 -4 -3 -3 -1 -1 0 1 3 4 5 4 4 4 3 4 4 3 4 4 5 5 6 7 7 7 5 5 5 4 6 6 6 6 6 7 5 0 -1 0 -1 1 1
-3 -4 -4 -3 -5 -3 -3 -3 -2 -2 -0 0 2 4 5 4 4 4 3 3 3 3 3 4 4 5 5 6 5 5 7 5 4 6 4 6 5 6 4 4 1 1 1 1 0 1 1

GFSGBSN_850_dewp_018.txt.gz
Dewpoint
2 2 2 2 2 2 3 5 6 7 7 2 4 5 5 5 5 4 2 2 1 1 0 0 -0 -1 2 7 7 4 3 4 6 8 9 8 7 5 5 5 5 6 6 6 6 6 6
1 1 1 1 1 2 2 2 3 6 7 7 4 4 5 6 5 4 2 4 2 3 1 1 1 3 2 4 -1 4 4 5 7 9 9 9 8 7 6 6 5 4 5 5 5 4 5
1 0 0 0 0 2 2 2 2 3 5 6 6 5 4 5 5 5 3 4 3 4 3 0 2 3 5 0 -0 0 5 5 6 9 8 8 8 6 7 7 6 5 6 5 5 5 5
-0 0 -0 0 -1 -1 1 1 2 2 3 6 6 4 5 5 5 5 3 2 3 4 5 2 1 2 1 -0 0 2 3 5 4 4 4 3 6 6 6 4 4 6 6 7 4 4 4
-0 -1 -1 -1 -1 -0 -0 1 1 1 2 3 4 6 5 5 6 4 3 0 2 4 6 4 3 2 2 1 1 0 2 2 4 4 4 5 4 3 3 5 5 5 6 6 5 3 4
-2 -2 -2 -1 -0 -1 -1 0 0 1 1 1 3 5 5 5 6 6 3 1 3 3 3 5 4 4 3 1 0 0 2 3 3 4 4 3 2 4 4 5 6 5 6 6 6 3 4
-1 -2 -1 -2 -2 -2 -2 -1 -1 0 1 2 2 4 5 5 6 6 3 4 5 4 4 4 4 3 1 2 2 1 1 2 2 2 3 2 5 6 5 4 3 4 5 6 4 3 4
-1 -0 -1 -1 -1 -1 -2 -0 -0 0 1 2 1 2 5 5 6 6 3 2 3 2 3 4 5 4 3 3 3 3 2 2 3 4 2 3 4 2 2 2 3 3 4 4 2 2 3
-0 -1 -1 -1 -1 -1 -2 -0 -0 0 1 1 0 1 3 5 7 6 3 1 2 2 1 1 3 5 3 3 4 3 3 3 3 4 4 4 2 1 2 3 4 3 4 3 3 2 1
-1 -1 -1 -2 -2 -2 -2 -1 -0 -0 0 0 -2 0 2 4 6 5 4 4 2 1 -2 -1 3 4 4 4 3 3 2 2 3 4 3 4 2 2 2 3 2 4 1 3 4 4 4
-1 -1 -1 -1 -2 -2 -2 -1 0 -0 -1 1 -2 -3 0 4 6 5 4 3 2 1 0 1 4 4 4 3 3 4 3 2 3 3 3 4 3 3 4 2 1 2 1 3 4 5 5
-1 -1 -1 -1 -2 -1 -1 -1 -1 -1 0 1 -1 -1 -1 2 5 5 4 2 2 -1 -1 3 3 4 5 3 3 3 4 3 4 3 3 2 1 2 2 1 1 1 2 3 4 5 6
-1 -1 -1 -2 -2 -1 -1 -1 -1 -1 1 1 1 1 -0 2 5 5 3 3 2 1 0 3 3 3 3 4 3 3 5 5 5 5 6 5 5 3 2 3 2 2 6 6 6 6 4
-0 -1 -2 -3 -2 -1 -2 -1 -0 0 1 2 1 2 1 1 5 4 1 -0 2 -0 2 1 2 2 3 2 3 4 4 5 4 5 5 5 3 3 3 3 3 3 3 5 6 4 3
-2 -1 -2 -2 -3 -2 -2 -2 -0 0 1 2 2 2 2 1 4 3 1 2 1 -1 2 2 2 2 4 3 3 2 4 4 2 4 5 4 3 2 3 2 1 5 5 2 4 4 6
-1 -2 -3 -2 -2 -2 -3 -2 0 0 0 1 2 1 -0 1 4 3 1 2 -1 -1 2 1 3 2 3 3 4 4 2 1 1 1 1 2 4 1 2 2 2 4 3 6 5 5 5
-1 -2 -3 -3 -4 -3 -2 -2 -0 0 -0 2 2 1 1 2 3 3 4 1 -1 3 1 2 3 3 2 3 3 2 2 0 1 1 1 2 3 1 2 4 3 4 5 5 4 5 4
-2 -2 -3 -3 -4 -3 -3 -2 -1 0 0 1 2 2 1 2 3 3 3 0 1 4 3 3 2 2 2 2 3 2 2 1 0 1 3 2 5 4 3 1 0 0 2 2 3 2 3
-2 -2 -3 -3 -4 -3 -4 -1 -2 0 1 1 2 2 3 2 4 4 3 2 2 4 4 3 3 2 2 3 3 2 1 -0 1 2 3 2 4 5 4 3 2 5 3 1 1 3 3
-4 -3 -3 -3 -4 -4 -3 -2 -1 0 1 1 3 3 3 3 3 3 2 2 3 2 3 2 4 3 4 4 2 2 2 0 1 1 2 1 5 4 5 4 5 5 5 5 5 5 2
-5 -4 -3 -4 -4 -3 -3 -2 -1 0 1 2 2 3 2 3 3 2 1 2 3 5 2 3 4 3 5 6 4 4 2 1 1 0 3 4 5 5 5 4 5 6 5 5 5 3 3
-5 -5 -4 -4 -3 -3 -3 -3 -1 -0 0 2 3 4 2 2 3 2 2 3 2 3 3 4 4 3 4 6 3 2 3 2 2 3 4 4 5 5 5 4 4 5 6 5 5 3 3
-4 -5 -3 -3 -4 -2 -3 -3 -1 -0 0 0 1 2 3 3 3 2 2 3 3 3 3 3 4 4 5 5 4 3 3 2 3 4 4 5 4 6 5 6 7 7 5 5 4 3 2
-4 -3 -5 -4 -3 -3 -3 -3 -1 -1 -0 0 1 2 4 4 3 3 3 2 4 3 4 4 3 5 4 4 4 4 3 3 3 3 3 5 5 5 6 7 9 7 6 4 3 3 2
-3 -3 -3 -3 -3 -3 -4 -3 -2 -1 -0 1 2 2 4 4 2 2 4 4 3 4 4 4 3 3 4 4 5 4 6 5 4 4 3 3 5 7 8 8 6 5 7 6 5 5 2
-2 -3 -3 -4 -3 -4 -4 -3 -2 -1 -0 1 4 4 4 4 3 1 2 4 5 5 5 4 4 4 4 5 6 6 5 5 5 5 3 3 4 6 7 8 7 2 5 5 5 8 4
-2 -3 -3 -3 -3 -4 -3 -3 -3 -1 -1 0 3 3 4 4 3 3 3 4 3 3 4 4 4 5 5 5 7 7 7 4 6 6 7 7 7 7 6 6 5 2 1 4 7 4 0
-4 -4 -4 -3 -4 -3 -3 -3 -3 -2 -1 0 3 4 4 5 4 3 3 3 4 3 4 3 4 5 5 6 6 6 7 5 5 3 5 5 5 6 5 6 4 0 1 2 -0 -0 1
-4 -4 -5 -4 -5 -4 -3 -3 -3 -2 -2 -0 1 4 4 5 4 4 4 3 3 3 3 4 4 4 4 6 5 5 7 4 4 5 3 6 4 5 4 3 0 1 1 1 0 1 1

GFSGBSN_850_dewp_021.txt.gz
Dewpoint
1 1 1 1 1 0 1 2 2 2 3 4 6 5 5 5 6 5 5 3 0 0 1 0 -0 -2 3 7 6 5 4 5 6 9 8 8 7 4 5 5 5 6 6 6 6 5 5
1 1 1 0 1 1 0 1 1 2 2 3 5 6 5 5 6 7 4 4 3 3 2 1 1 2 2 4 2 4 5 4 6 8 9 8 7 6 5 5 4 4 5 5 5 4 4
1 0 0 0 0 0 0 0 1 1 2 2 2 4 6 5 5 6 5 4 2 3 3 2 2 2 3 1 -1 -0 4 5 8 8 8 8 7 6 6 6 6 6 6 5 5 5 5
-0 0 -1 -0 -0 -0 -1 -1 0 0 1 1 2 3 4 6 5 6 6 4 1 3 5 3 1 2 1 -0 -0 -0 4 6 9 8 5 6 6 7 7 4 4 6 6 6 3 4 4
-1 -0 -1 -0 0 -0 -0 -1 -2 0 -0 0 1 2 4 5 6 6 6 4 -0 4 5 5 4 2 1 1 1 0 2 5 5 4 4 4 5 4 3 5 5 5 6 7 4 3 4
0 -0 -1 -0 -1 -0 -0 -1 -2 -0 0 0 0 -0 2 3 6 6 7 4 1 4 4 5 4 4 3 2 1 1 2 2 3 4 4 4 3 4 4 5 5 5 6 5 4 3 3
1 -1 -0 -0 -0 -1 -1 -2 -0 1 -0 -0 -1 1 -0 1 4 6 6 4 4 4 4 3 4 3 2 2 2 2 2 3 3 3 4 2 5 5 4 4 3 4 5 5 4 2 3
-0 0 -0 -0 0 -1 -1 -2 -1 -1 -1 1 -0 -0 -0 -3 4 6 6 4 3 1 3 2 5 4 3 3 3 3 2 3 2 4 2 3 5 2 2 2 3 4 5 5 3 1 2
0 0 0 -0 -0 -1 -1 -1 -2 -2 0 1 -0 -0 1 -3 2 4 5 3 3 1 0 1 2 4 4 3 3 3 2 3 3 4 3 4 2 1 2 3 4 3 4 4 3 2 1
1 0 0 -0 -1 -1 -1 -2 -1 -1 -1 -0 -1 0 0 -1 2 4 5 3 2 2 -2 -1 3 3 4 3 3 2 2 2 3 4 3 2 1 2 3 3 3 4 2 3 3 3 3
0 0 0 -1 -1 -1 -1 -2 -0 -1 -1 -0 0 1 1 0 1 4 4 3 2 -2 -1 0 3 4 4 3 1 4 3 2 4 3 3 3 3 4 4 2 2 3 1 2 3 4 4
0 0 0 -1 -1 -1 -1 -2 -1 -1 -0 -0 1 1 -0 0 2 2 4 3 1 0 1 4 3 4 4 3 3 4 3 3 3 3 3 2 1 2 2 2 1 2 3 3 4 4 6
-0 -0 -1 -2 -1 -1 -1 -1 -2 -1 -0 1 1 2 1 1 -1 3 4 3 3 1 0 4 3 4 3 3 3 3 5 5 5 5 5 4 4 3 2 3 2 2 6 6 6 6 5
-0 -0 -1 -1 -1 -2 -2 -2 -2 -1 -0 1 0 1 2 1 1 4 3 2 2 0 2 1 2 3 3 2 3 4 4 5 4 4 5 4 2 4 3 2 3 4 4 5 5 4 3
-1 -1 -1 -2 -2 -4 -2 -2 -3 -1 0 1 1 2 1 1 1 4 2 4 1 -0 1 2 2 3 3 2 3 3 4 4 3 4 5 4 3 1 2 2 1 5 5 2 4 3 5
-1 -1 -2 -2 -2 -4 -2 -2 -2 -1 0 0 1 2 0 0 2 3 2 3 -1 1 1 2 3 2 3 3 4 3 3 0 2 2 1 2 4 0 2 3 2 4 2 5 5 5 5
-2 -2 -2 -2 -3 -4 -3 -3 -1 -0 0 0 1 1 1 1 4 2 4 1 0 2 0 1 2 3 2 3 3 3 2 -0 0 1 1 2 2 1 3 4 2 4 5 5 4 5 4
-2 -2 -2 -3 -4 -3 -4 -3 -1 -1 0 1 1 2 2 2 1 1 3 0 3 3 3 2 2 1 2 2 3 1 2 0 0 1 3 1 3 4 2 -0 1 1 2 3 5 3 4
-2 -2 -3 -3 -4 -4 -2 -3 -3 -1 0 1 1 2 3 1 3 3 2 2 3 4 3 3 3 2 2 2 3 2 1 -0 1 1 2 2 4 4 3 3 1 4 3 3 4 4 5
-3 -2 -3 -4 -4 -4 -2 -3 -3 -1 0 1 1 2 1 2 3 3 2 3 3 2 2 2 3 2 3 4 1 2 2 0 0 1 1 1 3 2 2 2 5 5 4 4 4 5 3
-2 -2 -3 -4 -4 -4 -3 -3 -2 -1 0 2 2 3 2 3 3 2 0 1 4 4 3 2 4 3 4 5 4 4 2 1 1 1 2 2 5 4 4 3 3 4 5 5 5 3 4
-2 -2 -2 -4 -3 -3 -2 -3 -2 -3 0 0 1 2 2 2 2 1 2 1 2 4 2 4 4 4 3 5 5 3 3 2 2 1 3 3 5 5 5 4 5 5 5 5 5 4 3
-2 -2 -2 -3 -3 -3 -3 -4 -3 -2 -0 0 0 1 3 2 2 2 2 2 2 2 3 3 3 3 4 3 4 4 3 2 2 3 4 5 5 6 6 4 6 7 7 6 5 4 3
-1 -1 -3 -3 -4 -3 -2 -4 -3 -2 -0 -0 0 1 3 4 2 2 1 2 3 2 4 4 3 4 4 3 4 4 4 4 3 3 2 5 5 5 6 7 9 7 5 5 5 3 2
-2 -3 -3 -2 -4 -3 -3 -3 -3 -2 -0 -0 1 1 3 4 3 2 2 1 2 2 4 3 4 4 4 4 5 6 5 5 4 4 4 3 5 7 8 8 6 5 5 6 5 6 2
-2 -3 -3 -3 -4 -4 -3 -5 -4 -4 -1 -0 2 2 3 4 3 1 3 3 4 4 5 4 4 4 4 5 6 7 5 4 4 4 2 3 4 6 6 8 9 3 3 5 4 6 3
-3 -3 -4 -4 -5 -4 -4 -6 -5 -5 -3 -0 2 2 3 4 3 2 1 3 3 4 4 4 5 5 4 5 7 7 5 4 6 6 5 6 6 6 6 8 5 2 1 4 5 3 0
-6 -3 -4 -4 -6 -5 -5 -4 -13 -6 -3 -1 1 2 2 4 4 3 2 3 3 3 4 4 4 4 5 6 6 6 5 4 5 3 4 4 5 6 6 6 5 0 4 3 -0 0 1
-17 -4 -4 -4 -4 -6 -3 -3 -14 -6 -3 -2 -0 2 3 4 4 4 3 3 3 3 4 4 4 4 4 6 5 6 5 4 3 5 3 6 3 4 3 3 -0 1 0 1 1 1 1

GFSGBSN_850_dewp_024.txt.gz
Dewpoint
1 1 1 1 1 1 1 0 1 0 2 2 2 1 5 6 5 5 7 5 4 -1 -1 0 0 -3 6 7 6 5 4 5 6 9 9 8 6 5 4 3 4 4 2 4 4 5 4
1 0 1 0 1 1 1 0 -1 -1 1 2 2 2 2 5 6 5 6 6 4 1 1 1 1 1 3 5 4 5 5 4 7 9 9 8 7 5 4 4 4 3 4 4 4 3 3
-0 -0 0 0 0 0 0 0 0 -0 -1 0 0 1 2 4 5 6 6 7 4 1 1 2 2 2 5 2 -1 -2 1 5 7 9 9 8 7 7 6 5 5 5 5 3 2 2 2
1 1 0 1 0 0 -0 -0 -0 -0 -1 0 1 1 -1 2 4 5 5 7 4 2 3 3 1 2 3 0 -0 0 3 6 8 8 9 8 7 6 6 4 3 4 4 5 2 3 3
1 1 1 0 0 0 -1 0 -0 -1 -0 -0 0 -0 -0 -0 2 4 6 7 4 2 4 5 3 3 2 1 0 -0 3 6 6 5 6 7 6 5 4 4 4 3 4 4 3 1 1
2 0 0 1 1 0 0 -0 -1 -1 -1 -0 -2 -0 -0 0 -1 3 6 7 5 3 4 6 4 4 3 2 1 1 3 5 5 4 5 5 3 3 3 4 5 3 5 3 2 1 2
1 1 1 1 1 0 -1 -0 -0 -0 -1 -2 -1 0 -0 1 1 1 4 6 5 5 5 5 4 3 3 2 2 2 3 3 4 4 4 4 5 5 3 2 1 2 3 3 2 1 2
0 1 1 1 0 1 -0 -0 -0 -0 -1 -2 -0 1 0 0 1 -1 2 5 3 1 4 4 4 4 3 3 3 3 3 2 3 4 3 4 5 2 1 1 2 3 3 3 1 0 1
1 0 1 0 -1 -0 -1 -1 -1 -1 -0 0 -0 0 -1 -1 1 1 0 5 3 -1 1 3 4 4 4 3 3 3 3 3 2 3 3 3 2 0 2 3 3 2 3 3 3 1 0
0 -0 0 -1 -0 -1 -2 -1 -1 -1 -1 -1 0 -1 1 1 1 -1 2 2 4 0 5 2 3 3 4 3 2 3 2 2 3 3 3 3 1 2 2 3 2 4 -0 1 2 2 4
-1 -1 -1 -1 -1 -2 -3 -2 -1 -1 -2 -1 -1 1 1 1 1 3 1 2 4 3 6 1 3 4 3 1 2 4 3 2 3 3 2 3 2 3 3 2 1 2 -0 1 1 2 3
-1 -1 -2 -2 -2 -3 -2 -2 -1 -1 -2 -1 -0 0 1 0 1 -0 2 4 4 4 4 4 3 5 4 2 2 4 3 3 2 2 2 1 1 1 1 1 1 1 2 2 2 4 6
-1 -1 -2 -3 -2 -3 -2 -1 -1 -1 -1 -1 0 -0 0 1 1 -2 3 3 4 6 1 4 3 4 3 3 3 3 4 5 4 6 5 3 2 1 1 2 1 2 4 4 5 6 3
-1 -2 -2 -2 -2 -1 -2 -2 -2 -1 -0 0 1 -1 -0 0 0 1 2 2 6 1 2 0 2 3 3 2 2 3 4 5 2 3 3 4 5 3 2 2 1 3 3 3 3 1 -1
-2 -3 -2 -2 -2 -2 -2 -2 -2 -1 -1 0 0 1 1 1 1 1 2 5 4 -0 1 1 2 3 4 2 2 3 3 3 2 3 4 4 2 -0 1 0 1 3 5 1 4 2 4
-2 -2 -2 -2 -2 -2 -2 -2 -2 -1 -1 1 0 1 1 1 0 2 3 5 -1 0 0 0 3 1 3 3 3 2 2 0 1 0 0 2 4 -0 1 1 2 3 1 5 5 4 3
-3 -2 -2 -2 -3 -4 -3 -2 -2 -1 -1 0 1 0 0 2 1 2 5 3 3 0 -0 1 2 2 2 2 2 2 1 -1 -0 1 1 1 1 2 3 3 1 4 5 6 3 4 3
-3 -3 -2 -2 -3 -5 -4 -3 -3 -2 -0 0 1 2 2 2 1 1 4 1 1 2 2 1 0 0 1 2 2 1 1 -0 -1 0 3 -0 2 3 2 -2 -2 -2 1 2 5 5 5
-2 -3 -2 -2 -3 -3 -3 -3 -2 -1 -0 1 1 1 2 2 4 4 3 3 3 2 2 1 2 1 0 2 3 1 1 -1 -0 0 1 0 4 4 3 3 0 3 1 1 4 4 6
-1 -3 -2 -2 -3 -3 -2 -3 -2 -1 0 1 1 2 2 2 3 2 3 3 4 2 2 2 2 2 2 2 1 2 2 0 -0 -0 0 0 3 4 4 4 4 6 4 3 5 6 4
-1 -2 -2 -3 -3 -3 -2 -5 -3 -2 0 1 2 2 2 4 3 1 1 2 3 3 2 2 3 2 2 3 3 3 2 1 1 1 1 1 5 4 3 2 3 5 5 4 5 4 5
-2 -1 -2 -3 -2 -3 -2 -4 -3 -4 0 0 0 1 2 2 2 0 0 1 2 3 2 3 2 2 3 4 3 3 3 2 2 1 2 2 5 5 5 3 4 6 6 6 6 5 5
-3 -2 -3 -3 -2 -3 -3 -5 -5 -4 0 -0 0 0 1 2 2 1 1 -0 1 2 2 2 2 2 3 3 2 3 3 1 1 2 2 3 5 6 6 4 5 8 7 6 6 5 5
-2 -3 -3 -3 -3 -5 -3 -4 -5 -5 -1 -0 0 0 1 3 2 1 1 0 1 1 4 3 3 3 4 3 4 4 4 4 4 3 2 4 5 5 6 6 9 7 5 5 6 5 4
-3 -3 -2 -3 -3 -5 -5 -5 -3 -4 -1 -0 1 1 2 3 1 1 1 1 2 2 2 2 4 3 4 4 5 5 4 5 4 4 4 3 4 7 7 8 5 6 5 7 6 6 2
-3 -3 -3 -3 -3 -5 -4 -5 -4 -5 -2 -0 1 1 2 4 2 1 1 0 2 2 2 3 3 3 3 5 4 7 5 3 4 4 3 4 4 6 7 7 7 5 3 4 3 4 1
-5 -4 -4 -4 -3 -4 -8 -4 -6 -10 -2 -1 0 1 1 3 3 2 2 3 3 3 5 4 5 5 4 5 5 7 4 4 5 5 5 6 6 7 7 7 5 1 1 4 5 3 1
-14 -4 -4 -7 -7 -4 -4 -4 -9 -13 -3 -3 -1 1 0 1 4 2 1 2 3 3 4 4 4 4 5 5 6 6 7 4 5 3 4 5 6 7 7 7 7 0 3 4 1 1 1
-12 -6 -4 -4 -14 -4 -4 -9 -12 -6 -3 -2 -1 0 1 1 4 4 3 2 1 1 3 4 4 4 3 5 5 5 6 4 4 4 3 6 3 4 4 4 1 1 2 1 1 1 1

GFSGBSN_850_dewp_027.txt.gz
Dewpoint
1 1 1 1 1 1 1 1 1 1 0 0 0 2 3 2 4 6 6 6 7 4 3 -1 -0 -3 5 7 7 6 5 6 8 9 8 6 5 3 3 1 0 3 2 0 1 3 3
1 1 1 1 1 1 1 1 1 1 1 0 0 1 1 2 2 5 6 6 7 5 3 0 1 -0 5 5 5 6 5 5 7 9 9 7 6 4 3 2 3 2 2 1 2 2 2
2 1 1 1 1 1 1 1 0 1 1 1 -0 0 0 1 0 3 5 6 6 6 3 2 1 1 5 2 2 3 4 5 8 8 9 8 7 6 5 4 4 4 5 3 3 2 2
2 2 2 0 1 1 0 0 0 0 0 0 -0 -0 0 -0 -1 1 4 6 6 6 3 3 2 5 4 3 4 0 3 6 8 9 9 9 7 7 6 4 3 4 3 5 1 1 1
1 2 2 2 2 0 1 0 -0 -1 -3 -1 0 -0 -2 -0 -0 -0 1 5 6 6 3 4 3 4 3 2 1 2 3 6 6 7 9 9 8 6 5 5 5 4 5 4 2 1 1
1 1 1 2 2 1 0 0 -1 -0 0 -1 -1 -2 -1 0 0 1 -2 3 5 6 4 5 5 4 3 2 3 2 3 5 4 6 7 7 5 5 4 6 7 4 4 3 2 -1 1
1 1 1 1 1 1 -1 -1 -2 -2 -0 -0 -1 -1 -1 -0 0 0 1 1 6 5 6 5 5 2 3 3 3 3 4 5 4 4 4 4 5 6 4 3 2 1 2 2 0 -1 0
0 -0 -0 0 1 -0 -1 -2 -2 -3 -2 -2 -0 -0 -1 -1 -1 0 0 2 2 5 5 4 4 4 3 3 3 3 3 3 4 4 3 4 6 2 0 0 1 2 3 2 0 -1 -0
-0 1 1 0 0 -1 -3 -2 -1 -3 -2 -1 -1 -0 -0 -0 -3 0 1 1 2 4 4 4 4 3 4 4 2 3 3 3 3 3 4 5 2 0 1 2 3 2 3 2 2 -0 -1
0 0 -0 -1 -2 -2 -1 -2 -1 -2 -2 -0 -1 -1 -1 1 1 1 1 1 1 3 5 4 4 3 4 3 3 2 2 2 2 2 2 3 0 0 1 2 1 3 -0 0 1 2 3
-0 -0 -1 -2 -2 -2 -2 -1 -3 -3 -2 -1 -1 -0 1 0 1 2 2 1 1 3 8 2 3 2 3 2 2 3 2 2 2 2 2 3 2 2 2 1 0 2 -0 1 1 2 3
-1 -1 -2 -2 -2 -2 -1 -2 -1 -1 -2 -1 -0 -0 0 0 0 2 2 1 3 4 7 4 3 3 3 1 2 3 2 2 1 0 0 0 -0 0 1 1 0 1 1 1 1 2 5
-0 -1 -2 -2 -3 -1 -2 -2 -2 -2 -1 -1 -0 -0 -1 1 1 2 3 0 3 6 1 4 3 3 3 2 2 3 4 4 3 6 5 2 1 -0 -1 2 1 1 3 4 6 6 4
-0 -2 -3 -3 -2 -2 -3 -2 -2 -2 -1 -1 -0 0 1 2 1 -0 2 3 5 4 1 -0 2 3 4 2 2 2 3 4 1 1 3 4 5 1 1 1 2 3 2 3 3 2 0
-1 -3 -3 -3 -2 -3 -2 -2 -2 -2 -1 -1 -1 1 2 1 1 1 1 5 6 1 0 2 3 4 5 2 3 2 2 3 1 1 4 3 4 -1 1 0 -0 3 5 1 3 1 3
-1 -2 -2 -3 -3 -2 -2 -2 -2 -1 -1 -0 1 1 2 1 1 2 3 5 2 -1 -1 1 3 1 3 3 3 2 3 1 1 -0 -1 2 4 -1 0 0 -0 1 1 4 5 5 3
-0 -2 -2 -2 -4 -2 -2 -2 -2 -0 -0 0 1 1 2 1 1 2 5 5 1 -1 -1 0 1 1 0 2 1 1 2 -0 -1 -0 0 0 1 2 1 2 1 3 4 3 1 5 4
-1 -1 -3 -2 -4 -2 -2 -2 -2 -1 1 1 1 2 1 1 2 2 5 4 -0 1 1 -0 -1 -0 1 0 2 2 1 -1 -2 -1 1 -0 1 4 2 -3 -3 -2 1 1 6 3 4
-1 -2 -2 -2 -4 -3 -2 -3 -1 -1 1 1 1 1 2 2 4 4 3 4 1 1 1 0 1 -1 -1 0 2 0 -0 -1 -2 -0 1 0 3 4 5 2 -1 1 -0 -0 3 4 6
-2 -2 -2 -2 -3 -3 -3 -3 -2 -1 0 2 1 3 2 3 3 2 4 4 3 2 1 0 1 -1 0 1 0 1 1 0 -1 -1 0 -1 2 4 4 3 4 6 4 3 5 6 4
-3 -2 -2 -2 -2 -3 -2 -5 -2 -2 0 2 1 3 2 4 3 1 2 3 3 2 1 1 2 1 1 2 1 2 1 1 0 0 -0 0 6 4 3 2 2 4 4 4 6 6 6
-2 -2 -3 -2 -2 -6 -3 -4 -2 -1 -1 1 1 1 1 2 1 0 1 3 1 2 1 2 2 1 1 2 2 3 1 1 1 1 1 1 5 5 5 1 2 6 3 5 6 6 6
-2 -3 -2 -2 -2 -6 -3 -4 -3 -2 -1 0 1 1 1 2 -0 -0 0 0 1 0 2 2 1 1 2 2 2 1 2 2 1 2 2 3 5 6 5 3 4 7 7 7 7 6 6
-3 -3 -3 -3 -3 -4 -3 -3 -5 -4 -1 0 1 1 2 2 0 -1 -0 -1 0 0 2 2 1 1 4 3 4 4 3 3 3 3 1 3 5 5 7 5 8 5 4 4 6 6 2
-4 -4 -3 -3 -4 -5 -8 -3 -4 -11 -2 1 1 1 2 4 -1 -0 -0 -1 -1 1 1 2 3 3 3 4 5 3 4 4 4 4 3 2 3 7 7 5 3 4 4 4 7 7 2
-4 -14 -6 -3 -6 -4 -4 -4 -4 -15 -4 -0 1 1 1 3 1 -0 -1 -0 1 1 2 2 4 4 4 4 5 5 6 2 4 5 3 3 4 6 6 7 7 4 2 2 3 6 1
-2 -9 -18 -6 -13 -13 -9 -6 -7 -12 -6 -2 -0 0 1 2 3 2 -0 1 0 1 3 3 5 5 4 5 6 4 4 2 4 3 5 6 6 7 6 7 4 0 1 4 7 4 2
-2 -4 -15 -13 -13 -8 -4 -5 -6 -8 -8 -6 -1 0 0 1 3 3 2 2 3 2 3 4 4 4 5 6 5 4 5 3 3 1 3 5 5 6 7 7 7 0 2 4 3 2 1
-2 -3 -5 -9 -10 -5 -4 -4 -4 -3 -4 -6 -2 -3 -0 1 3 4 3 2 2 2 4 4 4 4 3 4 4 4 6 3 3 4 2 4 2 5 4 4 1 1 2 2 2 2 1

GFSGBSN_850_dewp_030.txt.gz
Dewpoint
2 2 2 3 3 2 2 1 1 1 1 1 1 1 1 1 1 2 3 5 6 6 6 4 -2 -1 2 6 7 7 5 8 8 8 9 7 4 4 4 1 2 3 2 1 1 1 2
2 2 3 2 2 1 2 1 1 1 1 0 1 1 1 1 1 1 2 4 6 6 7 4 -1 0 2 5 5 6 5 5 7 8 8 7 4 3 2 1 1 0 2 2 1 0 1
2 1 2 2 2 2 2 1 1 -0 -1 -2 1 1 1 1 1 -0 -0 3 5 6 7 4 0 1 4 4 3 3 5 4 6 7 8 8 7 5 4 4 3 3 5 3 3 2 2
2 2 2 2 2 2 2 1 -0 -0 -1 -2 -3 -1 1 -0 -0 -1 1 0 4 6 7 5 2 3 4 4 3 3 2 4 6 7 8 8 8 6 6 4 3 5 5 7 2 2 2
1 2 2 0 1 1 1 1 0 -1 -2 -0 -1 -2 -0 -2 -1 -0 -0 -0 0 4 6 6 4 5 3 3 3 3 2 5 6 8 8 9 7 6 5 5 6 4 6 5 3 1 1
2 2 1 1 1 1 1 -0 -1 -1 -2 -2 -2 -2 -1 -2 -2 -0 -1 -1 -3 3 6 5 5 5 3 3 1 3 3 5 5 8 9 8 5 6 5 6 8 6 5 4 3 1 1
1 0 1 1 0 -0 -0 -0 -1 -2 -2 -3 -2 -2 -1 -1 -1 -1 -1 -0 1 5 6 5 5 2 2 3 2 2 3 5 4 6 6 7 7 8 5 5 4 4 3 2 1 -1 0
1 1 1 1 -1 -1 -0 -1 -2 -1 -1 -3 -2 -1 -0 -0 -0 0 -0 1 1 3 5 4 5 3 3 3 3 2 4 4 4 7 4 5 6 4 3 3 3 2 3 3 1 -1 -1
1 0 1 -1 -1 -1 -1 -2 -2 -2 -3 -3 -2 -1 -1 -1 1 0 0 -1 1 1 4 4 5 3 3 2 3 3 4 3 4 4 5 4 2 1 2 2 2 2 3 3 2 0 -1
1 1 -0 -1 -1 -1 -1 -2 -3 -2 -1 -1 -1 -1 -0 1 2 0 2 1 2 1 3 6 4 3 3 3 2 3 3 3 3 5 4 4 1 0 2 3 2 4 0 1 2 2 4
0 1 -1 -2 -3 -1 -1 -2 -1 -1 -2 -1 -1 -1 -0 0 1 2 1 2 1 0 7 5 4 3 3 2 2 3 3 2 2 2 2 3 2 3 2 2 1 2 1 1 2 3 3
0 0 -2 -2 -3 -1 -2 -1 -2 -2 -1 -2 -1 -1 -0 1 1 2 2 0 -0 1 6 5 3 4 4 2 2 2 3 2 1 1 1 2 -1 0 1 -0 0 1 1 1 2 3 5
-0 0 -2 -2 -2 -1 -2 -2 -1 -1 -1 -1 -1 -1 -1 2 1 2 1 1 2 4 4 5 5 3 3 3 3 3 4 4 4 5 6 2 2 0 0 2 1 2 3 5 6 6 4
-1 0 -2 -2 -1 -1 -2 -2 -1 -2 -1 -2 -0 1 1 2 2 1 0 1 3 5 5 0 3 3 3 2 3 3 4 5 2 1 4 5 5 2 0 2 3 3 3 5 5 5 3
-0 -0 -2 -2 -2 -2 -3 -1 -2 -2 -0 1 0 1 2 2 2 1 2 2 3 3 -0 3 3 4 4 2 3 3 3 3 1 1 5 4 3 0 0 -0 1 2 4 1 3 1 3
-1 -1 -1 -2 -1 -2 -2 -1 -2 -0 0 1 1 1 2 1 -0 -0 3 5 4 -1 -0 1 4 2 4 3 3 3 3 1 0 -0 -1 2 4 0 1 -1 -1 0 0 5 4 3 4
-1 -1 -2 -2 -4 -2 -2 -2 -2 -0 1 1 1 1 2 1 1 2 4 4 2 -1 -0 0 1 1 1 2 1 2 1 0 -1 -0 -1 1 2 3 2 2 2 2 3 3 2 4 4
-1 -1 -2 -1 -3 -2 -2 -2 -5 0 1 1 1 2 1 1 2 2 4 4 2 1 -1 -1 -1 -1 0 1 1 0 1 -0 -1 -1 1 0 0 3 3 -1 -1 0 2 1 3 2 3
-0 -2 -1 -2 -3 -6 -1 -2 -5 0 1 2 1 1 2 3 4 4 3 3 2 1 0 0 0 -1 -2 -0 2 1 1 -2 -2 -1 1 0 3 3 4 1 -1 1 0 1 1 3 4
-2 -2 -2 -3 -2 -5 -2 -6 -9 -1 1 2 2 3 1 3 3 3 5 4 4 1 1 -0 -0 -1 -1 1 0 1 2 -0 -2 -1 -1 -1 2 3 4 4 4 4 4 2 3 6 4
-1 -3 -2 -2 -2 -2 -3 -4 -14 -1 1 2 2 3 2 4 4 2 2 4 2 2 1 1 1 0 0 1 1 1 1 1 -0 0 -1 1 5 2 3 2 2 3 3 3 5 5 6
-2 -3 -3 -2 -2 -3 -4 -4 -14 -2 1 1 1 1 2 2 1 1 3 4 1 1 1 1 2 1 1 1 2 1 0 1 2 1 1 1 4 4 3 2 2 4 3 3 5 6 6
-2 -3 -3 -3 -3 -3 -9 -4 -9 -5 0 1 1 1 2 2 1 1 1 1 1 1 2 1 1 1 3 3 2 2 2 2 2 1 2 4 4 5 3 3 4 7 5 6 7 6 7
-2 -2 -3 -3 -3 -3 -4 -4 -8 -13 -0 1 1 1 2 2 0 0 -1 -1 1 1 2 1 1 3 4 3 3 3 2 2 3 3 1 3 5 5 5 5 8 6 4 5 6 5 5
-1 -2 -3 -3 -6 -5 -5 -6 -6 -16 -7 0 1 1 1 4 0 -0 -1 -1 0 1 1 2 3 3 3 4 4 4 5 5 4 3 3 2 4 6 6 6 3 1 4 4 5 6 3
-2 -2 -3 -3 -4 -9 -4 -13 -17 -12 -15 -1 0 1 1 2 2 2 -1 -1 1 1 2 3 4 3 3 4 4 4 5 5 6 5 3 4 3 6 6 7 7 4 2 2 4 8 3
-2 -2 -2 -3 -3 -4 -4 -3 -5 -11 -9 -14 0 0 1 2 3 3 1 1 -0 1 4 4 4 4 4 5 5 4 4 2 4 6 6 6 6 6 6 7 5 1 2 3 7 5 2
-2 -3 -2 -2 -3 -3 -4 -3 -4 -4 -6 -10 -7 -0 -0 0 2 3 3 2 1 3 4 4 4 4 4 5 5 4 4 4 4 2 4 4 6 6 7 7 6 1 2 5 3 2 2
-2 -3 -2 -2 -2 -3 -3 -3 -3 -4 -4 -5 -3 -2 -3 -1 2 3 3 3 3 3 4 4 4 3 4 5 4 4 5 4 3 4 2 4 3 5 4 4 1 2 2 2 2 2 1

GFSGBSN_850_dewp_033.txt.gz
Dewpoint
3 3 2 2 2 2 2 2 2 1 0 0 1 1 1 1 2 1 2 1 3 4 6 7 5 -0 -1 6 5 7 5 7 9 8 6 7 7 6 4 3 3 3 2 2 2 1 1
3 3 2 2 2 3 2 2 1 1 0 0 0 -0 1 1 1 0 1 0 1 3 6 7 6 2 1 6 1 6 6 7 8 8 7 8 7 5 3 3 2 1 2 2 2 2 2
3 2 2 2 2 2 1 2 0 0 -0 0 1 -1 -2 1 0 -0 -0 1 -0 3 5 6 6 3 2 1 4 6 5 4 6 7 8 6 7 5 4 4 3 3 4 4 3 3 3
2 2 1 1 1 1 0 1 1 -1 -1 -1 -1 -1 -2 -2 -1 -2 -1 0 0 -2 4 6 6 3 4 -0 3 3 5 4 6 7 7 7 8 6 5 4 3 4 4 7 4 2 2
2 2 1 1 2 -0 -0 -1 -1 -1 -1 -1 -2 -2 -2 -2 -2 -2 -1 -1 -3 -4 -1 6 6 4 3 3 2 3 2 4 6 7 7 8 8 6 5 5 6 5 7 6 5 1 2
1 1 1 1 -0 -1 -0 -0 -0 -2 -1 -1 -3 -3 -2 -2 -1 -1 -1 -2 -6 -5 -3 4 4 4 4 3 3 3 1 5 7 8 8 8 7 7 7 7 8 7 6 5 5 2 1
1 0 1 0 -0 -0 0 -0 -0 -0 -1 -2 -3 -3 -2 -1 -1 -0 -0 -1 -3 2 -1 5 4 4 2 3 2 2 3 4 6 8 8 7 7 8 6 5 4 4 5 4 1 -0 -0
1 0 1 -1 -1 -0 -0 -0 -1 -1 -2 -1 -1 -1 -1 -1 -0 0 1 1 -1 2 2 3 3 4 2 2 2 2 4 4 5 7 4 7 7 5 4 4 5 5 4 3 1 -0 -0
1 1 1 -1 -2 -0 -0 -1 -1 -1 -1 -1 -1 -1 -1 -1 -1 1 1 1 1 -0 1 4 4 4 3 3 2 2 4 4 5 6 5 5 3 4 4 3 4 2 3 3 3 1 -0
0 1 1 -1 -2 -0 -1 -1 -1 -1 -1 -1 -1 -1 -1 -1 1 0 1 1 0 -1 2 5 6 4 3 3 3 3 4 3 4 5 4 4 1 0 2 3 2 4 1 1 2 2 4
0 0 -0 -1 -2 -1 -2 -1 -2 -1 -1 -1 -2 -2 -2 -0 1 1 1 1 1 -1 4 5 5 3 2 3 3 3 4 2 4 4 4 5 3 2 2 2 1 3 1 1 2 2 2
0 0 0 -1 -2 -1 -1 -1 -2 -1 -2 -3 -2 -1 -0 1 1 1 2 1 -1 1 3 5 4 4 4 3 3 3 3 1 1 3 2 2 -0 0 2 -0 1 0 1 1 2 2 2
-0 -1 -1 -2 -2 -1 -2 -1 -1 -1 0 0 1 2 1 1 1 1 2 -2 -1 1 2 5 6 4 4 4 3 3 4 4 4 5 5 3 2 0 0 2 1 2 1 1 2 4 3
-1 -1 -1 -1 -2 -1 -2 -2 -1 0 0 2 1 0 1 1 2 2 -1 2 1 3 5 4 3 3 5 3 4 4 4 4 2 2 3 3 3 2 0 2 3 3 1 1 4 5 4
-1 -1 -2 -1 -3 -1 -2 -1 -1 0 2 1 -0 2 1 2 1 1 1 1 2 5 4 5 4 4 5 3 4 4 4 3 2 1 3 3 3 1 0 -0 1 3 3 1 2 1 0
-0 -1 -1 -2 -1 -1 -2 -2 -1 1 2 -0 1 1 2 1 1 1 2 4 3 3 2 1 5 3 5 3 4 4 3 1 1 -0 -0 2 4 2 1 -0 -0 0 0 3 1 1 3
-1 -2 -1 -2 -1 -2 -2 -1 -1 0 1 0 -0 1 2 2 1 2 3 3 4 2 1 1 2 3 2 3 3 3 3 1 -0 0 -1 -0 2 2 1 2 2 2 2 2 2 2 3
-2 -2 -1 -1 -2 -3 -3 -2 -3 0 1 0 0 2 1 2 1 2 3 2 4 2 1 0 -2 0 1 1 2 1 2 0 -1 -1 1 -0 2 3 2 -0 -0 0 2 1 2 -0 2
-1 -2 -3 -2 -3 -3 -10 -8 -7 0 1 1 2 1 2 3 3 3 4 4 4 2 1 0 -0 -1 -1 1 1 -0 1 -2 -1 -0 1 0 2 0 3 1 0 2 1 1 1 2 3
-2 -3 -3 -3 -3 -3 -18 -9 -14 0 0 1 2 1 1 3 2 3 4 4 3 1 1 -0 -1 -2 -1 1 -0 1 2 -1 -1 0 -0 -1 2 -0 2 2 2 1 3 1 2 5 3
-1 -4 -4 -3 -2 -2 -8 -8 -18 -1 0 1 1 2 2 1 2 3 3 4 3 2 1 1 1 -1 0 2 1 2 2 1 -1 0 -1 1 2 1 1 2 2 2 2 2 4 3 5
-1 -2 -4 -3 -3 -3 -3 -6 -16 -1 1 1 1 1 1 2 1 2 3 3 3 3 3 2 2 2 2 3 2 2 2 1 2 0 0 0 1 3 3 2 3 3 3 3 3 3 3
-2 -1 -3 -3 -3 -5 -8 -5 -12 -6 1 1 1 1 2 1 1 2 2 2 2 2 1 1 1 3 4 4 3 2 1 1 0 1 2 3 4 1 1 2 4 6 4 3 5 5 6
-4 -2 -2 -3 -3 -5 -7 -9 -11 -15 -1 1 1 1 2 2 0 2 -1 0 3 2 2 3 3 3 4 3 3 2 2 2 2 1 0 4 4 4 4 4 6 5 3 4 5 5 5
-4 -2 -2 -3 -3 -4 -6 -4 -4 -11 -13 -0 1 1 1 2 2 0 -1 1 1 1 2 3 3 3 3 3 4 5 5 5 4 3 3 2 4 5 6 5 3 2 5 4 6 5 4
-4 -2 -4 -2 -2 -3 -6 -4 -3 -4 -14 -9 0 1 1 2 2 3 1 -1 1 2 2 3 3 2 2 4 4 4 5 4 5 5 3 3 3 6 5 6 6 3 2 2 4 8 2
-4 -2 -3 -2 -2 -2 -2 -4 -2 -3 -5 -11 -0 0 1 1 2 3 2 1 -1 1 4 4 4 4 4 4 4 3 4 3 6 6 5 6 6 6 6 7 5 1 1 3 7 4 2
-5 -2 -3 -2 -2 -3 -3 -3 -3 -3 -3 -5 -6 -1 -0 0 1 3 4 4 1 2 4 4 3 4 4 5 4 4 3 3 3 4 5 4 6 6 7 7 6 -0 3 5 2 2 2
-6 -2 -2 -5 -3 -3 -2 -3 -3 -3 -4 -3 -5 -4 -2 -1 1 3 3 4 3 3 3 4 4 3 4 5 5 4 4 4 4 5 1 5 3 4 4 3 -0 2 2 2 2 1 1

GFSGBSN_850_dewp_036.txt.gz
Dewpoint
2 3 3 4 2 2 2 2 2 1 0 1 -0 1 1 0 -0 1 1 1 1 0 3 5 6 7 2 3 4 7 7 5 9 7 8 6 7 7 5 4 4 4 3 3 2 2 2
3 3 3 2 2 2 1 1 0 1 1 1 -1 -0 -0 -2 -1 -1 1 1 2 0 2 4 6 7 2 4 -4 6 6 6 8 8 8 6 7 6 4 3 4 2 3 2 2 2 3
2 3 2 1 2 1 0 -0 -1 -1 0 0 -1 -1 -1 -2 -1 -2 -3 0 -1 0 -1 3 5 6 5 0 2 4 5 6 6 7 7 5 6 6 4 4 3 3 4 3 3 3 3
2 2 2 2 2 0 0 0 0 0 0 0 -0 -2 -2 -2 -2 -2 -2 -1 -1 -1 -1 -0 4 6 4 1 4 6 5 5 6 7 7 5 7 7 6 4 4 4 4 6 3 2 2
2 2 2 2 -0 0 0 0 -0 0 -0 -0 -1 -2 -2 -2 -2 -2 -1 -3 -2 -3 -4 -3 2 5 3 1 2 5 5 5 6 7 8 7 8 6 5 5 5 4 6 6 5 2 2
2 2 1 1 0 -1 0 0 -0 -0 -2 -2 -3 -2 -3 -2 -2 -2 -1 -0 -3 -3 -5 -2 1 4 4 3 1 3 3 4 6 7 8 8 8 7 6 6 7 6 6 5 5 2 1
0 1 1 1 -0 -1 0 -1 -0 -0 -1 -3 -1 -1 -1 -0 -1 -1 0 1 -1 1 -0 1 4 4 3 2 3 2 2 4 7 7 8 7 8 9 7 6 4 4 5 5 2 -0 -0
1 1 1 0 -0 -1 -0 -1 -0 -1 -2 -1 -1 -1 -1 -1 -1 -1 1 0 1 1 1 -2 3 4 3 3 3 3 3 5 6 8 7 7 8 6 6 7 7 6 4 4 1 -0 -0
1 1 1 0 -0 -2 -1 -1 -0 -2 -1 -1 -1 -2 -1 -1 -1 1 1 1 0 0 1 1 2 4 3 2 3 4 3 5 5 6 6 7 5 5 6 6 6 3 3 3 3 1 -1
1 0 1 0 -0 -2 -1 -1 -1 -0 -1 -1 -2 -3 -3 -2 -0 1 -0 1 -0 0 2 4 4 5 3 2 3 3 4 4 4 6 4 4 0 5 6 6 2 4 1 1 2 2 4
-1 -0 0 0 -1 -1 -0 -1 -1 -1 -0 0 -1 -1 -1 1 1 1 0 -0 -0 0 4 4 5 3 3 3 3 4 3 3 4 4 3 4 3 2 3 3 1 3 0 1 1 2 1
-1 0 0 -1 -1 -0 -1 -2 0 0 1 1 1 0 1 1 0 1 1 0 1 0 4 4 4 4 4 3 3 5 3 1 3 3 2 1 0 1 1 1 0 0 0 1 2 1 1
0 -0 -1 -0 -1 -0 -2 -0 -0 0 1 0 0 -0 -0 1 1 0 2 -0 -2 1 1 4 6 4 4 4 5 4 4 3 5 6 6 3 2 0 0 2 1 0 0 1 1 3 3
0 0 -1 -1 -1 -0 -2 0 0 0 1 1 1 0 2 1 1 1 -2 1 0 1 2 4 4 4 5 3 4 5 4 4 2 2 3 4 5 2 -0 1 3 2 1 1 1 4 3
0 -1 -1 -2 -1 -1 -2 -1 -0 1 1 0 0 -0 -0 1 0 -0 0 1 2 3 3 5 3 5 5 4 5 4 4 4 2 1 3 2 3 1 0 -0 1 3 2 0 2 1 0
0 -1 -2 -1 -2 -2 -2 -1 -1 1 1 -1 -1 -1 1 1 2 1 2 4 3 3 3 2 5 3 5 4 5 4 3 1 1 0 -0 1 4 2 1 -0 0 1 0 2 -1 -1 2
-1 -1 -2 -2 -2 -3 -3 -1 -6 1 0 -1 -2 -1 1 1 1 2 3 3 4 3 1 2 4 2 3 3 2 2 2 1 -0 -0 -1 0 1 2 1 2 2 2 2 2 1 0 2
-1 -3 -3 -3 -7 -3 -3 -2 -8 -0 1 -1 -0 -1 0 2 1 -0 3 3 4 4 2 1 -0 1 1 2 2 2 2 1 -1 -1 1 -0 1 1 3 -0 -1 0 1 1 0 -2 1
-1 -4 -8 -5 -3 -3 -2 -6 -10 -0 0 0 0 0 1 2 4 4 3 4 4 3 1 0 -0 -1 -1 1 2 -0 1 -2 -1 -0 1 -0 0 0 3 0 0 2 1 1 0 1 -1
-1 -4 -11 -19 -20 -18 -11 -10 -10 -0 -0 1 1 -1 1 3 3 2 4 4 3 0 1 -1 -0 -1 -0 0 -1 2 1 0 -0 0 -0 -1 1 -0 2 1 0 0 2 1 1 2 2
-1 -1 -10 -19 -19 -27 -24 -15 -14 0 0 0 1 2 2 1 2 2 2 3 3 4 1 -0 -1 -1 2 3 2 3 1 0 0 1 1 -0 -0 -1 1 1 1 1 2 2 2 2 3
-4 -1 -3 -9 -22 -24 -25 -21 -15 -0 0 0 1 1 2 2 2 1 2 2 3 3 2 2 3 2 1 4 2 2 2 1 1 -0 0 -0 1 1 2 1 2 2 2 2 2 2 2
-12 -1 -1 -4 -18 -23 -25 -18 -16 -5 1 0 1 1 1 1 1 1 1 1 2 1 2 3 2 3 4 4 3 1 -1 -1 -0 0 1 1 2 2 3 0 3 5 3 3 3 2 3
-18 -1 -1 -2 -6 -15 -19 -19 -5 -13 -3 1 0 1 2 1 1 1 -0 1 2 2 2 3 3 3 4 3 2 2 2 1 0 -0 1 3 3 2 2 2 5 4 2 2 3 4 4
-18 -5 -1 -3 -4 -6 -11 -7 -7 -10 -13 -2 0 0 1 1 2 1 2 1 1 2 3 3 3 3 3 3 4 4 4 4 4 2 1 2 3 5 4 4 4 5 3 4 5 4 4
-18 -12 -1 -2 -2 -3 -4 -4 -4 -4 -14 -12 0 0 0 1 1 2 3 0 2 2 2 3 3 2 2 4 4 5 6 4 6 6 3 2 3 4 6 6 7 3 2 2 3 6 3
-14 -15 -2 -2 -6 -3 -4 -3 -3 -2 -4 -13 -4 -1 0 0 2 3 3 2 -0 1 2 4 3 3 3 3 4 3 3 3 6 6 6 6 6 6 5 6 4 1 0 3 6 3 2
-4 -15 -3 -1 -4 -6 -3 -2 -4 -3 -3 -5 -8 -2 -1 -1 0 1 3 4 2 2 3 4 2 3 2 3 3 3 3 2 3 4 5 4 5 6 6 7 6 -0 4 5 2 2 2
-3 -14 -4 -1 -2 -5 -4 -3 -4 -4 -3 -3 -5 -5 -3 -2 -1 1 2 4 3 4 3 3 3 3 3 4 4 4 4 3 3 4 1 5 3 4 4 4 -0 0 1 2 2 1 1

GFSGBSN_850_dewp_039.txt.gz
Dewpoint
3 3 3 2 3 2 2 1 1 -0 0 -0 1 1 -1 -1 -1 0 -0 -1 0 1 1 0 3 5 6 4 -0 7 8 0 6 8 8 8 8 6 6 5 4 4 3 3 3 2 3
2 3 2 2 2 2 1 -0 1 1 0 0 1 0 -2 -2 -1 -1 -1 -1 -1 1 1 -1 4 5 6 3 3 4 6 6 7 7 7 8 8 6 5 4 5 3 3 3 3 2 2
2 2 2 2 2 1 -0 0 1 0 0 1 0 -1 -0 -2 -2 -2 -1 -2 -3 -2 -1 1 3 4 5 4 1 -2 6 6 8 8 6 8 7 6 5 4 3 3 3 3 3 3 3
2 2 2 1 2 1 -1 -1 -1 -0 0 0 -2 -2 -2 -3 -3 -2 -2 -3 -2 -1 -1 -1 1 3 5 4 2 1 6 7 6 7 7 6 7 6 5 4 4 4 4 6 2 2 2
1 2 2 2 1 0 -1 -1 -1 0 0 -1 -1 0 -1 -3 -2 -2 -2 -2 -2 -3 -3 -2 1 2 5 4 3 5 7 6 7 7 7 6 7 7 5 5 5 4 6 6 4 2 2
1 1 1 1 1 -0 -1 -1 0 0 -1 -1 -1 -0 -1 -0 -0 -0 -0 0 -2 -2 -4 -4 1 4 4 4 1 6 5 5 6 7 8 8 7 7 5 5 7 7 5 5 5 2 2
1 1 1 1 1 -1 -1 -1 0 -0 -0 -0 -0 -1 -1 -1 -1 -1 -1 -1 -1 1 -1 -3 1 3 4 3 1 5 5 5 6 7 9 8 9 8 7 5 4 4 5 5 3 1 0
1 1 1 1 1 0 -1 -0 -0 -0 -0 0 -1 -0 -2 -1 -1 -1 -0 0 -0 1 1 -2 3 3 4 3 3 3 3 4 7 8 7 8 8 7 6 6 6 6 6 5 2 0 0
1 1 0 0 0 1 0 1 -1 -0 0 -0 0 -1 0 -2 -1 -1 -0 -0 1 -0 1 1 -0 3 4 3 3 3 2 5 6 8 7 7 6 7 6 7 7 7 4 3 3 1 -1
-0 1 0 -0 1 0 0 -1 -0 0 1 1 1 1 1 0 -0 -0 -1 1 -1 0 -2 3 2 3 4 3 4 3 3 5 5 7 6 5 2 6 7 7 6 4 1 1 2 2 4
-1 0 1 -0 0 0 -0 -0 -0 -0 1 1 -0 -0 -0 0 1 -0 1 -0 -1 1 2 4 4 4 3 2 3 3 4 3 5 5 5 6 4 6 7 6 1 3 0 1 1 2 1
-1 0 -0 -0 -0 -0 -1 -0 0 1 1 1 0 -0 -0 -1 0 1 0 -2 0 1 4 4 5 5 4 3 4 5 4 3 3 3 2 3 1 1 1 1 0 0 -0 -0 1 1 1
-1 0 -0 -0 -2 -0 -1 -1 0 1 1 1 0 1 -0 -0 -0 0 -1 -0 1 2 2 4 5 3 3 5 5 4 4 4 6 6 6 3 2 0 0 2 1 -1 0 0 -1 2 1
-1 -1 -1 -0 -1 0 -1 -0 0 1 0 1 0 -0 0 -1 -1 -1 -0 -0 1 3 2 3 4 3 5 4 5 4 4 5 2 3 5 5 5 2 -0 1 3 1 0 0 -1 2 2
-1 -4 -1 -1 -1 -2 -2 -0 -0 1 -0 -1 -0 -0 2 0 0 1 1 2 3 3 2 5 3 5 5 5 5 6 4 4 2 0 3 2 3 1 0 0 0 3 1 -0 1 -0 0
-5 -9 -5 -3 -1 -2 -2 -3 -0 1 -1 -2 -1 -1 0 1 1 0 1 4 4 3 2 1 4 3 5 5 5 6 4 2 1 0 -1 1 4 1 1 -0 0 1 -0 2 -1 -2 1
-1 -13 -11 -8 -2 -4 -11 -16 -2 -1 -1 -3 -2 -1 0 2 1 2 3 3 4 3 3 2 3 2 2 3 3 3 2 1 -1 0 -1 -0 1 3 2 2 2 2 2 1 1 0 1
-13 -5 -21 -25 -8 -10 -23 -18 -4 -2 -2 -3 -1 -2 1 2 2 1 4 4 3 3 2 0 -0 0 1 1 1 2 2 1 -1 -1 1 -0 1 4 2 -0 -1 0 1 1 -1 -1 0
-10 -9 -25 -24 -21 -13 -28 -19 -10 -1 -1 -1 -0 0 1 2 3 2 2 4 3 4 2 -0 -0 -1 -0 1 1 0 1 -2 -1 -1 1 -1 -0 0 2 -0 -0 1 1 -0 -0 -1 -2
-11 -6 -15 -22 -25 -17 -25 -24 -17 -2 -1 0 0 -1 -1 1 2 2 3 3 2 1 0 -1 -1 -1 -1 0 -1 2 1 1 -0 -1 -0 -1 -0 -1 1 0 0 1 2 1 -1 1 1
-14 -9 -12 -18 -18 -25 -20 -26 -19 -3 -0 -0 1 1 1 1 1 1 2 2 3 4 1 -1 -1 -1 0 2 2 2 1 0 1 2 1 -1 0 -1 0 1 1 1 2 2 0 1 2
-16 -12 -8 -15 -16 -20 -23 -25 -21 -4 -0 -0 1 1 1 2 1 1 1 2 3 2 2 2 1 2 1 3 2 3 1 0 1 -0 1 -1 1 1 1 1 2 2 1 1 2 2 2
-17 -13 -3 -16 -12 -14 -11 -24 -22 -11 0 0 0 1 1 1 0 1 1 1 2 1 2 3 2 3 4 4 2 0 -1 -1 -1 0 1 1 1 0 2 -0 3 3 3 2 2 1 1
-13 -10 -2 -11 -9 -9 -8 -7 -13 -19 -3 0 -0 1 1 1 1 1 1 1 1 1 2 3 2 3 4 3 2 1 0 -0 -1 -0 -0 1 2 2 0 1 4 1 1 1 2 2 1
-12 -10 -7 -13 -3 -8 -4 -8 -7 -6 -17 -3 0 0 1 1 1 1 2 2 1 2 3 2 3 3 3 3 3 3 4 3 3 1 2 1 2 3 4 3 1 4 2 4 5 4 2
-7 -13 -10 -10 -2 -4 -3 -5 -5 -4 -8 -14 -0 0 0 1 0 2 3 2 1 1 1 3 3 2 2 3 4 4 5 4 6 5 2 2 2 3 4 5 6 5 2 2 2 5 2
-7 -9 -7 -8 -3 -2 -4 -3 -4 -4 -3 -9 -7 -2 -0 0 0 2 2 2 1 1 1 3 4 3 3 2 4 3 4 3 6 6 6 6 6 5 4 6 4 1 -1 3 6 3 2
-4 -3 -4 -8 -4 -1 -3 -3 -3 -3 -3 -4 -5 -3 -3 -1 -1 -0 2 3 4 2 3 3 2 2 2 3 3 3 3 3 3 3 4 4 6 6 5 6 5 -0 4 5 2 2 2
-1 -2 -6 -9 -3 -1 -2 -3 -3 -3 -3 -3 -5 -5 -5 -4 -3 -1 -1 0 1 4 4 3 2 2 2 2 2 3 3 2 2 4 2 5 3 4 3 3 -0 0 1 2 2 1 1

GFSGBSN_850_dewp_042.txt.gz
Dewpoint
3 3 3 2 2 1 2 1 1 -0 -0 1 1 1 1 -0 1 -1 -1 -1 -0 -1 1 1 1 3 5 6 5 8 8 6 -5 8 9 8 7 6 5 5 4 4 3 3 3 3 3
3 3 2 2 2 2 0 1 -1 -0 -1 0 1 0 0 -3 -0 -2 -2 -2 -1 -1 -0 1 0 3 5 5 4 3 6 8 -2 7 8 9 7 6 5 4 4 4 3 3 3 3 2
3 2 2 2 1 2 -0 0 -1 0 0 0 0 -0 0 -1 -2 -2 -2 -2 -2 -2 -2 -2 1 3 4 4 4 5 -0 7 3 7 9 8 7 5 5 4 4 3 4 3 3 3 3
1 2 2 2 1 2 -0 0 -0 -0 1 -1 0 -1 -1 -1 -1 -3 -2 -2 -2 -1 -1 -2 0 2 4 4 4 3 4 7 4 6 7 7 7 6 4 4 3 4 3 6 3 3 2
2 2 2 1 1 1 -0 -1 0 0 -0 -1 -0 -0 -1 -0 -0 -2 -1 -1 -2 -1 -1 -1 -1 1 4 4 3 4 7 7 6 7 6 5 6 6 5 4 5 4 6 6 4 2 2
2 1 2 1 2 1 1 0 1 -0 -0 0 0 0 -2 -2 -1 -1 -1 -1 -2 -2 -3 -3 -2 1 3 4 4 4 7 6 7 7 7 6 6 6 6 5 7 6 5 5 5 1 3
1 1 1 0 1 0 1 1 0 1 1 1 -0 -0 -2 -2 -2 -1 -2 -2 -2 -0 -1 -3 0 1 3 4 4 4 6 6 7 8 8 7 9 8 6 5 3 4 4 4 3 1 1
1 1 0 1 1 0 1 1 -0 1 1 1 1 1 1 -2 0 -2 -1 -1 -0 -0 -0 -2 -1 1 4 4 3 3 4 5 6 8 7 8 8 6 5 5 5 5 5 5 3 0 0
-1 0 1 1 1 1 1 1 0 1 1 2 1 2 2 1 -1 -2 -1 0 1 0 0 1 -0 2 3 4 4 4 3 6 6 7 7 7 8 6 6 7 7 7 6 5 4 1 -1
-3 -0 1 1 0 -0 1 0 0 0 2 1 -0 -0 1 1 0 -0 -0 0 -1 -0 -1 1 1 3 4 4 4 3 3 5 6 7 6 5 6 6 7 7 7 7 1 2 1 2 4
-6 0 -0 -1 -0 0 -0 0 0 0 1 1 -0 -0 -1 1 1 -0 0 -1 -2 -0 -5 1 3 3 4 3 4 3 3 4 6 6 5 6 7 8 7 6 5 6 0 1 1 1 1
-6 0 1 -0 -1 -1 -1 -0 0 1 1 1 -0 -0 -0 -0 -0 -0 -2 -2 -1 -1 2 4 4 4 5 4 4 4 5 3 3 5 4 4 1 2 3 3 2 -0 -1 -0 1 0 1
-19 -9 -1 -2 -1 -1 -1 0 1 1 -0 1 -0 -1 -1 -1 -0 -1 -1 -0 -1 0 1 4 4 4 4 5 5 4 6 5 7 6 6 5 4 0 0 2 1 -1 1 2 -1 -0 1
-19 -1 -3 -3 -1 -2 -0 -1 -0 1 -2 -1 -1 -1 -1 -2 -1 -1 0 -1 -1 2 1 3 4 4 6 4 5 5 5 6 2 3 5 5 6 2 -0 1 2 1 -0 1 -2 1 1
-20 -6 -2 -4 -3 -20 -11 -15 -2 -2 -2 -2 -1 -1 0 1 1 2 2 2 3 3 3 5 4 6 6 5 5 5 4 4 2 1 3 3 4 1 0 0 -0 2 1 -1 1 -1 -1
-18 -16 -2 -9 -7 -25 -28 -18 -3 -3 -4 -4 -3 -2 1 1 2 2 2 5 5 3 2 1 4 3 5 6 6 5 4 2 2 0 -1 0 4 1 1 -0 -0 0 -1 1 -2 -2 -1
-17 -17 -11 -4 -19 -26 -30 -24 -11 -3 -4 -3 -2 -2 1 2 1 2 3 4 4 3 1 1 2 3 3 4 3 4 2 1 -0 0 -1 -1 2 3 1 2 2 2 2 0 -0 -0 0
-17 -15 -9 -12 -19 -26 -29 -29 -19 -3 -3 -5 -1 -1 1 1 2 2 3 3 3 3 2 -1 -1 0 1 1 1 2 2 0 -1 -1 1 -1 1 3 3 -0 -1 -0 1 -0 -2 -2 0
-17 -15 -13 -12 -19 -25 -29 -29 -25 -9 -2 -1 -1 -1 0 2 3 1 1 3 3 2 1 -1 -0 -1 -0 0 1 0 0 -1 -1 -1 0 -1 -0 0 2 -0 -0 1 1 -1 -1 -2 -2
-13 -17 -10 -11 -14 -22 -27 -30 -26 -14 -1 -1 -1 -1 -1 1 2 2 2 2 2 1 -1 -1 -1 -2 -1 0 -0 1 0 1 -1 -1 -1 -1 -1 -1 0 -0 0 1 2 0 -0 -0 0
-9 -15 -5 -6 -6 -16 -24 -28 -27 -13 -1 -1 -0 1 1 1 1 1 1 2 3 3 1 -1 -1 -1 1 2 2 2 1 1 1 2 0 -1 -0 -2 -0 -0 0 1 1 1 -0 0 1
-6 -11 -6 -1 -4 -10 -17 -26 -27 -13 -1 -1 0 1 1 1 1 0 0 1 2 2 2 1 1 2 1 2 1 2 1 0 1 -0 0 -1 2 0 0 1 1 2 1 1 1 1 1
-4 -9 -6 -1 -3 -8 -15 -18 -26 -18 -2 -0 -0 1 1 0 -0 1 1 1 1 1 2 3 2 3 4 4 2 0 -1 -1 -1 0 1 1 1 -1 -0 0 2 3 2 1 1 1 1
-6 -10 -8 -0 -5 -5 -13 -9 -15 -6 -7 -1 -0 0 1 1 -0 1 1 1 2 1 2 3 2 2 3 2 1 -0 -0 -1 -1 -0 -1 1 1 0 -0 1 3 -1 1 -0 0 0 -0
-5 -6 -10 -2 -3 -4 -6 -9 -6 -4 -9 -6 -1 -0 1 1 0 0 2 2 1 2 2 2 3 3 3 3 2 3 3 2 2 0 1 -0 2 2 3 3 1 3 3 3 3 4 1
-2 -4 -9 -5 -1 -3 -4 -6 -3 -4 -3 -9 -3 -1 -0 1 -0 1 1 2 1 1 1 3 3 2 3 2 3 3 4 3 6 5 2 2 0 1 4 4 4 4 2 2 2 7 1
-1 -2 -5 -5 -1 -2 -2 -2 -4 -4 -3 -5 -6 -6 -1 -0 -0 1 1 2 1 1 1 3 3 3 2 2 3 3 3 2 5 5 6 6 5 4 2 4 3 1 0 3 7 4 2
-2 -2 -1 -2 -5 -3 -2 -1 -5 -4 -3 -3 -5 -5 -5 -2 -2 -1 1 2 3 2 2 2 2 2 1 2 3 2 2 3 3 3 4 4 4 3 3 5 5 1 3 6 3 2 2
-2 -2 -1 -2 -4 -4 -1 -1 -2 -5 -4 -2 -2 -4 -4 -4 -8 -8 -6 -2 -1 2 2 3 1 1 1 1 1 1 3 2 1 5 2 5 2 3 4 3 -0 1 2 1 1 1 1

GFSGBSN_850_dewp_045.txt.gz
Dewpoint
2 3 3 3 2 1 3 1 0 -0 -1 1 1 0 1 1 0 -0 -1 -2 -0 -1 -1 -1 1 1 1 4 5 6 7 5 7 3 8 8 8 7 7 5 4 4 3 3 2 3 3
3 2 3 3 1 2 2 1 0 -0 -0 -0 0 0 -1 0 -1 -2 -2 -2 -2 -2 -1 -1 -0 -0 2 5 5 5 4 7 6 6 7 8 8 7 5 5 4 4 3 3 3 3 2
3 2 3 2 2 2 2 1 0 -1 0 1 1 -1 -0 -0 -1 0 -2 -3 -2 -2 -2 -2 -0 1 2 4 4 5 5 3 4 7 7 8 6 5 5 4 4 4 5 3 3 3 3
2 3 2 2 2 1 1 2 1 1 0 1 1 -0 -0 -0 0 -0 -2 -2 -3 -3 -1 -1 -2 1 3 4 4 4 5 2 7 8 7 7 6 5 4 3 4 4 4 5 3 3 2
1 2 2 2 1 1 1 1 1 -0 1 1 1 1 0 -2 -0 -1 -1 -2 -2 -2 -1 -0 -1 1 2 4 4 4 5 6 6 7 6 7 7 6 5 4 6 5 6 5 4 3 3
2 3 2 1 1 1 1 2 0 1 1 2 1 2 1 0 -3 -2 -2 -3 -3 -2 -2 -2 -2 1 1 4 3 3 4 7 7 7 6 6 6 6 6 5 7 6 6 5 4 1 3
2 0 2 1 0 1 0 1 1 0 2 2 2 2 -0 2 -1 -1 -3 -3 -2 -1 -1 -2 -1 -2 2 4 4 3 5 7 5 6 7 6 7 7 6 4 3 3 4 5 3 1 1
-2 1 2 1 1 1 1 1 1 1 2 2 0 1 0 1 -1 -1 -2 -1 -0 -1 -1 -2 -2 -0 2 4 5 4 7 7 8 7 7 8 7 5 5 4 3 4 5 5 3 0 0
-11 -1 1 0 -0 0 1 1 1 1 1 1 0 -0 -1 0 -0 -3 -1 1 -2 -1 -1 -0 -1 2 2 4 5 4 5 7 7 6 4 7 6 5 5 6 6 6 6 5 5 1 -1
-8 -2 0 -0 0 -1 -0 0 1 1 1 2 -1 -1 -0 -0 -1 -0 0 -0 -1 -0 -5 -0 1 3 3 4 5 4 4 5 6 5 4 5 7 6 6 6 6 8 2 2 2 3 5
-10 -3 -2 -2 -2 -1 0 0 1 1 2 -1 -2 -1 -1 -1 0 1 1 -1 -1 -1 -0 -1 3 2 4 4 4 4 4 4 6 5 5 6 7 7 7 6 5 5 1 1 1 2 1
-16 -6 -6 -3 -2 -5 -0 0 1 1 1 -2 -3 -2 -2 -2 -2 -1 -1 -2 -1 -4 3 3 3 4 4 4 5 4 5 4 4 4 4 4 2 4 5 3 4 -0 -0 -0 0 1 4
-18 -6 -5 -8 -5 -9 -6 -0 0 -1 -2 -2 -2 -2 -2 -2 -1 -0 0 0 -3 1 -0 4 4 4 4 5 5 4 6 6 6 6 6 5 5 1 4 5 1 0 4 5 1 3 4
-18 -6 -9 -10 -11 -16 -24 -3 -1 -2 -5 -4 -3 -1 1 1 1 1 1 -2 1 3 3 3 5 4 6 4 5 5 5 5 2 4 5 6 7 3 -0 2 5 1 2 4 1 1 0
-17 -14 -8 -15 -20 -27 -27 -26 -17 -2 -4 -4 -4 -2 1 1 2 2 1 4 3 1 3 5 4 5 5 4 5 5 4 4 2 1 4 4 5 1 0 0 0 2 3 -2 1 -1 1
-15 -15 -11 -15 -22 -26 -28 -30 -24 -6 -3 -5 -2 -1 1 2 2 2 2 5 5 3 2 1 4 3 5 5 6 5 5 2 2 -0 -1 1 5 2 1 -0 -0 0 -1 2 0 1 0
-12 -14 -15 -17 -19 -24 -27 -30 -28 -17 -3 -5 -2 -0 0 1 1 1 3 3 3 2 1 1 2 3 3 3 4 4 2 2 -0 0 -1 -0 2 4 1 2 2 1 2 0 -1 -1 -2
-10 -13 -14 -13 -12 -17 -26 -28 -30 -24 -5 -4 -3 -0 0 0 1 2 4 3 3 2 1 -1 -1 0 1 1 1 2 1 1 -0 -1 1 -1 2 5 3 -0 -1 -0 1 -1 1 -1 0
-8 -8 -9 -11 -8 -7 -10 -27 -29 -25 -5 -1 -1 -2 -0 1 1 -0 1 2 3 1 -0 -1 -1 -1 -1 -0 1 0 0 -1 -1 -1 -0 -1 0 3 4 1 -1 1 0 -1 -2 -1 1
-7 -7 -7 -3 -5 -6 -6 -19 -28 -27 -4 -0 -1 -2 -1 1 1 1 2 2 2 1 -1 -1 -1 -2 -1 -0 -0 1 1 1 -1 -0 -1 -2 -1 -1 1 -0 1 1 2 -1 -0 1 0
-7 -5 -7 -1 -4 -8 -8 -16 -26 -28 -5 -1 -0 0 1 1 0 0 1 1 2 2 0 -1 -1 -2 0 1 2 1 1 1 1 2 -1 -1 0 -2 -0 -0 0 1 2 1 0 0 1
-6 -5 -8 -1 -2 -8 -7 -12 -23 -26 -10 -1 0 0 0 1 1 -0 -0 1 2 2 3 1 0 1 0 1 -1 2 1 1 1 -0 -0 -1 3 0 -0 1 1 2 1 1 1 1 0
-6 -5 -8 -6 -1 -6 -5 -7 -14 -21 -15 -1 -1 0 0 0 -1 -0 0 1 1 1 2 3 2 2 3 3 2 0 -1 -1 -1 0 0 0 1 -1 -0 -0 1 3 2 1 1 1 0
-6 -4 -4 -7 -1 -3 -4 -4 -8 -7 -14 -3 -1 0 1 1 -1 0 1 1 2 2 2 2 2 2 2 1 -0 -1 -1 -1 -1 -1 -1 0 0 -1 -0 0 3 -2 -0 -0 0 -0 -0
-5 -2 -3 -6 -3 -1 -3 -3 -6 -4 -6 -11 -3 -1 0 0 -1 -0 1 2 1 1 2 2 3 3 2 2 2 2 3 2 2 1 0 -1 2 2 2 3 -0 2 2 1 1 3 -0
-3 -2 -2 -2 -5 -1 -1 -2 -3 -5 -3 -6 -9 -4 -2 0 -1 -0 0 1 1 1 1 3 3 3 3 2 3 4 4 2 5 4 2 1 -0 1 2 3 4 0 2 1 2 7 2
-3 -2 -2 -3 -2 -2 -2 -2 -2 -5 -3 -4 -5 -7 -5 -1 -2 -0 1 1 2 0 0 2 3 2 2 1 4 4 3 1 4 4 5 5 4 3 2 2 2 -1 1 3 7 5 1
-1 -2 -2 -3 -1 -2 -5 -3 -1 -3 -5 -3 -4 -4 -5 -5 -7 -5 -2 1 2 2 1 2 2 2 1 2 3 2 2 2 3 2 2 3 4 4 3 3 3 1 3 5 4 2 1
-1 -2 -2 -3 -4 -3 -5 -3 -1 -2 -3 -2 -3 -4 -5 -3 -6 -8 -9 -8 -6 -0 -0 3 1 1 1 1 0 0 2 1 1 5 1 3 1 2 1 1 -2 2 4 3 3 1 1

GFSGBSN_850_dewp_048.txt.gz
Dewpoint
4 3 2 2 2 2 2 2 2 1 2 1 1 2 -1 -1 -0 -1 -1 -2 -1 -2 -1 -1 -1 1 2 2 3 5 5 7 8 7 7 6 7 7 6 4 4 2 2 1 1 3 3
2 3 2 3 2 2 1 2 1 1 1 1 2 1 -0 -0 -0 -1 -1 -3 -2 -2 -1 -1 -1 -0 2 2 2 4 6 5 7 7 7 7 5 6 5 5 3 2 2 2 1 2 2
2 3 2 3 2 2 3 1 2 2 1 2 2 1 1 0 -0 0 -0 -0 -2 -3 -2 -2 -2 -0 2 0 4 4 4 4 7 6 7 7 6 6 5 5 4 3 3 1 2 1 1
2 2 2 2 2 2 1 1 2 1 1 2 2 2 2 -0 -2 -3 -3 -1 -1 -2 -2 -1 -2 1 1 1 4 4 4 5 7 6 7 8 7 5 4 4 4 3 2 4 -0 2 2
3 2 1 2 2 2 2 2 2 1 1 1 2 1 0 1 -0 -4 -3 -2 -2 -3 -2 -1 -1 1 -0 1 2 5 4 5 6 6 7 6 6 5 4 4 4 2 1 1 1 2 -0
2 2 1 1 1 1 1 2 0 1 1 2 2 1 0 -0 1 -3 -3 -3 -2 -2 -1 -0 -0 1 0 3 4 4 6 4 6 5 7 6 6 5 4 3 3 3 1 2 0 2 3
-1 -2 1 1 1 1 1 1 0 1 1 1 3 1 -1 -1 0 -3 -2 -2 -1 -0 -0 -2 -1 0 3 4 3 3 5 5 6 7 6 6 8 7 5 2 1 1 1 -0 1 0 1
-3 -4 1 1 0 -0 1 1 1 1 1 1 0 -3 -0 1 -1 -3 -2 -0 -0 -0 -2 0 -0 -0 1 3 5 4 4 6 6 5 5 7 7 3 2 3 3 1 1 1 3 1 1
-9 -10 -1 0 0 1 -0 1 1 1 1 1 -3 -3 -1 1 -2 -2 -1 -0 -1 -1 -2 -1 0 0 3 4 4 4 5 5 4 5 7 7 5 2 4 4 3 3 2 4 3 1 -0
-13 -10 -8 -3 -1 -0 -3 0 1 1 1 1 -2 -3 -4 -1 -2 -1 0 -2 -2 -1 0 0 2 3 4 4 5 4 4 6 4 5 5 6 5 4 3 4 2 5 4 3 3 4 3
-15 -13 -13 -10 -5 -4 -9 -3 -0 1 0 -1 -1 -2 -2 -4 -1 -0 -2 -2 -1 -1 4 -0 3 2 4 4 4 6 4 6 4 5 6 6 7 6 5 3 2 4 2 2 2 3 3
-16 -13 -12 -13 -11 -8 -18 -15 -5 -3 1 -2 -2 -1 -2 -2 -4 -3 -2 -1 -1 3 4 4 3 4 3 4 5 5 5 5 5 5 5 5 5 6 5 5 3 -1 1 1 1 3 7
-16 -13 -12 -16 -14 -15 -24 -28 -16 -4 -4 -4 -2 -2 0 1 0 0 1 1 4 4 2 4 5 3 4 5 4 4 5 5 6 7 8 6 5 4 4 5 3 4 5 8 9 8 6
-16 -13 -12 -16 -18 -22 -24 -29 -30 -8 -4 -3 -3 -2 1 1 1 1 1 1 4 3 4 4 4 4 5 5 5 5 5 5 2 4 7 7 7 4 3 5 6 6 7 7 5 1 -1
-16 -12 -11 -14 -15 -22 -26 -28 -30 -23 -4 -5 -2 -1 1 2 2 2 2 5 4 4 4 5 3 4 5 3 4 5 5 4 2 2 5 7 7 1 0 -0 1 4 7 -1 2 -1 2
-14 -11 -8 -12 -9 -6 -14 -28 -29 -30 -7 -5 -2 -0 0 1 1 1 4 5 5 3 2 1 3 3 3 3 4 5 6 2 1 -0 -1 2 6 2 0 -0 -1 1 -1 4 4 5 3
-10 -9 -7 -8 -7 -6 -5 -14 -28 -30 -13 -4 -3 1 0 1 1 3 4 5 3 2 1 1 2 2 2 3 3 3 3 2 -0 -0 -1 0 3 4 2 2 2 1 2 0 -0 -0 -2
-8 -7 -6 -5 -5 -6 -7 -7 -27 -29 -23 -4 -3 5 0 0 4 3 5 4 3 2 0 -0 -0 1 1 2 3 2 2 1 -0 -1 -0 -0 3 5 4 -0 -1 -0 1 -1 2 3 1
-8 -6 -5 -5 -5 -6 -7 -6 -24 -29 -17 -3 -1 -2 -0 0 6 4 2 2 2 0 -1 -1 -1 -1 -1 1 2 1 0 -0 -0 -1 -0 -1 3 5 4 2 0 2 1 -1 -1 1 4
-10 -6 -5 -6 -5 -6 -7 -6 -21 -27 -14 -2 -1 4 0 1 2 2 2 2 2 1 -1 -1 -1 -2 -1 -0 -1 1 1 1 -0 0 -1 -2 0 3 1 2 2 4 2 0 3 4 0
-13 -7 -5 -7 -3 -6 -7 -7 -13 -26 -16 -1 -0 1 1 4 3 1 1 2 2 1 0 -1 -1 -2 -1 1 1 1 1 1 1 1 -1 -1 5 2 0 1 1 2 2 1 3 2 4
-13 -7 -6 -6 -2 -5 -6 -6 -7 -24 -14 -2 1 0 1 1 1 1 1 2 2 2 2 -0 -1 0 -1 -1 -2 0 1 1 0 0 -0 -1 4 2 2 1 1 3 1 1 1 1 1
-13 -7 -4 -4 -2 -2 -4 -5 -4 -18 -19 -3 -1 -0 0 1 0 1 1 1 2 1 2 2 0 1 1 2 2 -0 -1 -1 -1 -0 0 1 3 3 3 0 2 3 2 1 1 0 -0
-14 -7 -3 -3 -4 -1 -2 -4 -3 -9 -10 -5 -2 -0 1 1 0 1 1 1 2 2 2 2 2 1 1 -0 -1 -1 -1 -1 -1 -1 -1 0 1 2 3 2 5 -0 -0 -0 0 -1 -1
-11 -6 -4 -3 -3 -4 -2 -2 -3 -4 -5 -8 -9 -2 -0 0 -1 -1 1 1 2 1 2 2 3 3 1 2 1 2 2 1 1 1 -1 -1 1 3 3 2 0 -1 1 1 2 2 -1
-9 -4 -3 -4 -3 -2 -2 -2 -3 -2 -5 -5 -8 -9 -2 -1 -2 -0 -0 0 2 1 2 3 3 3 3 3 3 3 3 2 4 3 1 -0 -0 1 2 3 4 2 2 1 1 7 2
-7 -4 -3 -3 -4 -3 -2 -3 -2 -1 -5 -4 -4 -5 -7 -2 -3 -2 -1 1 2 1 1 3 3 3 2 3 4 4 3 1 4 3 4 3 3 4 2 2 0 -2 1 2 6 6 3
-5 -2 -1 -2 -3 -3 -3 -4 -3 -1 -2 -4 -3 -3 -4 -5 -7 -9 -3 -2 -0 2 2 2 3 2 2 4 3 3 3 2 2 1 2 2 3 3 3 3 3 -2 2 4 3 2 2
-4 -1 -1 -1 -1 -3 -3 -3 -3 -1 -2 -3 -3 -3 -4 -2 -5 -6 -5 -5 -7 -8 -1 1 3 1 2 3 2 2 3 2 3 4 1 3 0 1 0 -0 -3 1 3 4 3 2 1

GFSGBSN_850_dewp_051.txt.gz
Dewpoint
-1 3 3 3 2 2 2 2 2 2 2 2 2 2 2 1 1 -0 -1 -0 0 -1 -1 -2 -1 -0 2 2 -1 3 4 4 7 6 5 5 3 6 5 3 1 2 -1 -1 0 3 2
-5 2 2 3 2 2 2 2 2 3 1 2 2 1 2 2 1 -0 1 0 -2 -2 -1 -2 -1 -0 2 2 -1 -1 5 7 7 7 4 5 3 4 4 2 2 1 1 0 0 2 2
-5 0 2 2 1 2 2 1 2 1 -0 2 3 1 0 1 0 -2 1 0 -1 -2 -2 -3 -2 1 2 0 1 2 5 6 7 7 4 3 2 4 4 4 2 2 1 1 -0 0 1
-8 -0 2 2 2 2 2 1 2 -0 1 2 2 0 -0 1 -0 -1 -3 -2 -1 -2 -2 -1 -1 2 1 -1 -0 4 4 6 6 7 4 5 4 3 4 3 3 2 2 4 -0 1 0
-10 -4 1 1 1 1 1 2 0 1 1 2 1 0 0 0 0 0 -4 -2 -3 -3 -2 -1 0 1 -1 -0 2 3 4 5 7 7 5 6 6 5 4 4 5 3 2 2 -1 -2 0
-11 -9 -1 1 1 1 2 1 1 1 1 1 1 -0 0 0 -1 0 -3 -3 -3 1 0 1 0 1 -1 0 2 4 4 4 8 6 7 7 6 5 4 2 4 2 1 -2 -2 1 -0
-12 -13 -3 1 -0 1 0 1 1 1 1 1 1 -1 -1 -0 1 -3 -0 1 1 0 1 -1 -1 -0 1 3 5 4 3 5 6 4 5 6 7 7 3 0 -3 -2 -1 -3 -3 0 1
-12 -13 -7 -1 -1 -2 -2 1 1 1 1 1 1 -1 -1 -4 -4 -3 1 -1 -0 1 -2 -1 -1 -1 0 2 5 6 5 7 4 5 5 7 7 3 1 -1 -0 0 -1 -1 0 -0 0
-12 -14 -9 -2 -1 -7 -12 -1 2 1 1 2 0 -1 -2 -2 -1 1 1 -0 -3 -0 -1 -1 0 1 1 4 4 5 5 5 2 4 5 6 5 3 3 1 1 -0 -0 -2 0 1 0
-12 -14 -10 -6 -3 -14 -21 -8 1 2 1 -1 -2 -2 -4 -1 2 1 1 -0 -1 0 3 2 3 2 4 4 5 4 5 5 4 5 4 5 5 5 3 3 0 1 -0 0 3 3 -0
-12 -14 -10 -12 -7 -15 -26 -23 -3 1 -3 -2 -1 -1 -2 -5 -0 -0 -2 -2 -2 1 4 2 2 3 4 5 5 4 4 4 5 5 6 6 6 5 4 3 -0 3 2 3 3 3 3
-12 -14 -10 -13 -13 -19 -26 -28 -24 -2 -3 -3 -3 -0 -1 2 -1 -3 -3 -2 0 4 5 4 3 4 4 5 5 5 6 5 4 4 4 5 4 5 4 3 2 1 2 2 3 3 7
-13 -13 -9 -11 -9 -7 -11 -27 -29 -26 -15 -3 -2 -1 1 1 2 0 1 2 5 5 3 5 5 3 5 5 6 5 5 6 6 7 7 5 4 5 4 4 2 2 5 8 9 9 6
-13 -12 -8 -9 -9 -7 -6 -6 -26 -29 -23 -4 -2 -1 1 2 2 2 2 3 5 5 5 4 5 3 6 3 4 5 4 5 4 4 7 7 7 4 4 5 5 5 5 6 6 6 4
-14 -10 -8 -7 -6 -6 -7 -6 -10 -28 -25 -5 -3 -0 1 2 2 2 4 5 5 5 4 3 2 3 4 3 5 6 5 3 2 2 6 6 7 3 4 4 5 6 8 -0 1 -2 0
-14 -8 -7 -6 -6 -6 -6 -6 -8 -25 -27 -5 -3 -0 2 1 1 3 4 5 5 3 3 1 2 2 3 2 4 4 5 2 2 1 -1 2 6 2 1 0 -0 5 3 7 6 7 3
-14 -9 -6 -6 -6 -6 -6 -6 -9 -22 -26 -5 -2 3 1 1 3 4 5 5 2 1 1 1 1 1 1 2 2 2 3 2 -0 -1 -1 1 2 4 2 3 3 2 3 1 2 1 2
-11 -10 -6 -6 -6 -6 -6 -7 -8 -26 -26 -7 2 5 -0 0 5 5 5 2 2 0 -0 -1 0 1 1 1 2 1 3 1 -1 -2 0 0 3 5 4 -0 -1 -0 1 0 4 4 1
-12 -12 -7 -6 -7 -6 -6 -6 -6 -26 -19 -3 1 1 -0 0 6 4 2 1 1 -1 -1 -1 -0 -0 -1 0 2 0 0 0 -1 -1 -0 -1 4 5 4 2 0 2 1 -0 -1 3 6
-14 -14 -10 -7 -6 -5 -6 -6 -7 -22 -24 -2 1 4 3 2 2 1 1 1 1 1 -1 -2 -1 -2 -1 -0 -1 1 1 1 -0 -0 -2 -2 1 4 4 4 3 5 2 1 3 5 1
-13 -13 -10 -6 -5 -6 -5 -5 -7 -17 -21 -1 1 1 1 5 3 1 1 1 1 1 -1 -2 -2 -2 -1 0 -0 0 0 1 -0 -0 -1 -1 6 4 0 0 2 3 2 2 4 2 5
-11 -13 -9 -6 -5 -5 -4 -4 -6 -11 -20 -0 1 0 0 1 1 1 1 2 1 1 1 -1 -1 -2 -3 -2 -2 -1 -1 -1 0 -0 -1 -0 5 3 2 -0 1 3 1 1 1 1 0
-11 -12 -10 -6 -5 -5 -3 -3 -5 -7 -18 -2 -1 1 1 1 0 1 1 1 1 1 2 1 -1 -1 -1 -0 -0 -1 -2 -2 -2 -1 -0 1 4 4 4 0 1 3 1 0 0 -0 -0
-8 -11 -8 -5 -6 -5 -3 -3 -4 -4 -10 -3 -2 -0 1 1 0 0 1 1 2 1 1 1 1 -0 0 0 -1 -1 -1 -1 -2 -2 -2 0 2 2 4 3 5 1 -1 -1 -1 -1 -1
-2 -4 -5 -5 -4 -4 -3 -3 -3 -3 -5 -5 -9 -2 -0 -3 -2 -1 0 1 2 1 2 1 2 2 0 1 1 1 1 0 -0 -1 -1 -2 -1 2 4 2 -0 -3 -1 1 2 2 -2
-0 -2 -5 -4 -3 -3 -3 -4 -3 -1 -3 -3 -5 -7 -2 -3 -3 -1 -1 0 2 1 1 2 3 3 3 2 2 4 3 0 2 2 0 -1 -2 1 2 4 3 3 0 -1 -0 5 -1
1 -3 -4 -2 -2 -2 -2 -4 -4 -3 -2 -3 -3 -4 -2 -4 -7 -3 -4 0 2 2 2 2 3 3 3 3 3 3 2 -1 2 2 3 2 1 3 2 3 0 -4 1 1 6 7 2
1 -7 -3 -1 -1 -1 -3 -3 -3 -2 -1 -2 -2 -3 -3 -4 -5 -6 -6 -4 -5 -0 3 3 3 3 3 3 2 1 0 1 1 -0 1 1 2 2 2 3 3 -3 2 3 3 2 2
-4 -5 -2 0 -2 -1 -3 -3 -3 -2 -1 -2 -2 -2 -3 -2 -5 -6 -5 -5 -6 -7 -5 -0 2 2 1 2 0 -0 0 1 0 2 -1 2 -1 0 -0 0 -3 -1 1 3 3 3 2

GFSGBSN_850_dewp_054.txt.gz
Dewpoint
-2 -2 3 2 3 2 3 3 3 3 0 2 3 2 1 1 1 1 2 0 1 -1 -1 -1 -2 -1 0 3 2 -1 2 0 2 7 6 6 3 6 6 4 2 3 1 -0 -0 2 1
-5 -1 3 2 2 2 2 2 2 1 -0 2 3 4 1 -0 -0 1 -1 0 -1 -0 -1 -1 -1 -1 1 3 0 -0 2 7 7 6 6 6 3 4 4 2 2 2 1 0 -0 2 2
-5 -2 0 3 2 2 2 2 2 1 2 2 3 1 0 1 -0 0 -4 -3 -2 -1 -3 -3 -2 -1 2 1 -0 2 -1 6 7 7 6 4 2 4 4 4 2 1 2 1 0 2 2
-8 -8 -3 1 0 1 2 2 2 1 1 2 2 0 1 1 0 -0 -4 -4 -2 -2 -2 -2 -2 2 1 -1 -0 1 2 5 7 6 5 4 2 3 4 4 3 3 3 4 1 1 1
-10 -9 -7 0 -0 -0 1 2 1 1 1 3 1 -0 -2 0 -1 -0 -6 -3 -4 -4 -4 -2 -0 2 -1 -1 0 0 2 5 6 6 5 3 4 4 4 5 6 4 6 4 3 0 1
-11 -11 -8 -2 -1 0 1 2 1 2 2 2 1 -0 -1 1 0 -2 -4 -4 0 1 -1 1 1 1 -1 -0 -0 0 1 6 7 6 5 5 5 6 5 7 8 5 5 3 2 -0 1
-11 -13 -9 -5 -3 0 1 1 1 1 2 2 1 0 -1 -4 -3 -3 0 1 0 1 1 1 -0 -1 0 0 2 1 3 5 7 6 7 6 7 7 5 4 1 1 2 2 -1 0 1
-11 -13 -10 -9 -8 -3 -1 1 1 1 2 2 1 -1 -1 -2 -3 -0 1 -0 0 1 0 -2 -2 -2 -0 1 4 4 5 6 7 6 5 7 7 4 3 2 1 -0 1 0 -1 0 1
-11 -13 -10 -10 -10 -14 -15 -1 -1 -5 1 -3 -1 -2 -2 -2 -1 0 1 1 1 1 1 0 2 2 2 2 4 4 5 6 5 4 5 5 4 2 2 2 1 1 1 -1 1 1 0
-11 -13 -10 -10 -9 -9 -14 -16 -2 -20 -7 -3 -3 -1 -1 0 1 -2 -3 -2 1 -2 4 2 2 3 3 1 3 4 4 6 4 4 4 5 4 5 5 4 1 2 -1 -1 2 3 3
-12 -13 -10 -9 -8 -8 -6 -6 -16 -17 -26 -4 -3 -2 0 -0 2 0 -5 -4 -2 2 4 2 2 3 2 4 4 4 5 4 4 6 5 6 6 6 7 4 1 1 2 3 3 4 4
-12 -14 -9 -7 -7 -6 -6 -7 -7 -23 -27 -12 -4 -1 1 2 2 -1 -3 -1 1 4 5 4 3 4 4 4 4 4 5 4 3 4 4 5 4 6 7 5 2 2 3 3 3 4 8
-12 -13 -9 -7 -7 -7 -6 -6 -6 -13 -27 -21 -5 -1 0 1 2 2 1 2 4 5 4 5 6 4 5 5 4 4 6 6 6 7 7 4 4 4 5 6 4 3 5 7 8 8 7
-12 -13 -8 -7 -7 -8 -6 -6 -6 -9 -26 -22 -5 -1 0 1 3 2 2 4 4 4 5 4 4 3 5 5 5 5 5 7 4 5 7 7 6 5 4 4 5 4 5 7 6 8 5
-13 -13 -8 -8 -7 -8 -7 -6 -6 -10 -23 -18 -5 -1 2 3 2 3 3 4 5 5 3 3 3 3 4 4 4 4 6 6 5 4 7 7 6 4 4 4 4 6 7 -0 4 -3 4
-13 -11 -9 -9 -8 -8 -8 -7 -6 -9 -24 -15 -5 1 3 0 2 3 4 4 4 3 2 1 2 2 2 4 4 4 4 2 2 0 0 3 6 5 4 4 3 5 4 6 5 5 4
-11 -10 -11 -10 -9 -9 -9 -8 -6 -8 -24 -15 1 3 3 0 3 4 4 4 2 1 0 1 1 0 0 2 2 2 3 2 0 -1 -1 3 4 6 4 6 6 5 7 5 4 3 5
-6 -12 -12 -11 -9 -9 -9 -8 -6 -9 -24 -14 3 5 2 -0 5 5 6 2 1 -0 -0 -1 0 1 1 0 0 1 3 2 -1 -1 2 1 3 6 5 0 -1 1 2 2 7 7 2
-8 -12 -12 -11 -8 -9 -9 -8 -5 -8 -22 -6 2 1 2 1 7 5 1 1 1 -0 -1 -1 -0 -0 -0 0 2 1 2 0 -1 -0 1 1 4 5 4 2 0 2 1 1 1 3 4
-9 -10 -12 -11 -8 -8 -9 -6 -5 -8 -22 -1 2 4 2 3 2 2 1 1 1 0 -1 -2 -1 -1 -0 -0 -1 1 2 0 -0 -0 -2 -1 2 4 4 4 4 4 3 1 2 3 3
-5 -7 -11 -10 -9 -9 -7 -4 -5 -7 -15 -1 0 1 1 4 3 2 1 2 1 1 -0 -2 -1 -1 -0 1 -0 1 1 1 0 -1 -1 1 3 1 1 1 4 4 3 2 2 3 2
-6 -7 -9 -10 -8 -9 -5 -4 -5 -6 -12 -2 -0 0 0 0 1 1 1 2 1 1 1 -0 -0 -2 -2 -1 -1 -0 0 1 1 -0 -0 1 3 3 3 -0 1 2 2 1 2 2 2
-8 -7 -8 -8 -9 -5 -4 -4 -4 -4 -10 -2 -5 -1 1 -1 0 1 2 2 2 1 1 0 1 -1 -1 2 0 -1 -2 -2 -2 0 0 2 3 3 4 1 1 3 1 1 1 1 1
-8 -4 -2 -7 -6 -4 -4 -4 -3 -3 -8 -4 -4 -1 -1 -0 -1 0 -0 0 2 2 3 1 1 0 0 -0 -1 -2 -2 -2 -2 -2 -2 1 3 3 4 2 4 0 -1 -1 -0 -0 -1
-2 0 -2 -6 -4 -4 -3 -3 -4 -2 -3 -3 -6 -4 -2 -3 -7 -4 -1 -0 0 1 2 2 3 1 -0 -0 1 1 1 0 -0 -1 -1 -2 1 3 3 3 1 -1 0 1 1 1 -2
1 1 -3 -4 -2 -2 -2 -4 -4 -2 -3 -3 -2 -6 -3 -3 -5 -7 -5 -2 1 2 2 3 3 1 2 3 2 4 4 2 3 2 0 -1 -1 1 4 2 4 4 -0 -1 -1 6 -1
1 1 -4 -3 -1 -2 -2 -4 -4 -3 -2 -2 -2 -3 -3 -4 -5 -6 -4 -2 0 2 3 2 3 3 3 3 3 3 3 -0 3 2 4 3 2 3 2 3 1 -1 1 0 6 6 2
1 -2 -6 -2 -1 -1 -3 -4 -2 -2 -2 -2 -2 -2 -4 -4 -5 -5 -5 -6 -6 -4 3 1 3 3 3 4 3 2 1 2 0 -1 1 2 2 3 2 5 3 1 2 4 3 2 2
0 -3 -5 -1 -0 -1 -3 -4 -2 -2 -2 -2 -2 -1 -2 -3 -5 -6 -6 -6 -8 -6 -6 -4 1 2 3 3 2 1 1 -0 1 2 -1 2 0 1 0 2 -2 -2 1 3 2 2 2

GFSGBSN_850_dewp_057.txt.gz
Dewpoint
-9 -7 -0 2 4 3 2 2 2 2 2 3 3 3 2 2 1 0 0 0 -0 1 1 -2 -2 -2 -0 2 1 -0 2 4 4 6 6 7 6 7 7 6 5 5 3 3 3 1 3
-10 -8 -1 2 2 2 2 1 1 2 2 3 3 3 1 1 1 0 -0 -5 -0 0 -1 -2 -2 -1 -0 2 -2 -2 -1 3 4 5 6 7 4 6 6 5 4 4 3 2 1 2 1
-10 -10 -6 1 2 2 2 2 2 2 2 3 3 2 -3 1 0 -1 -3 -6 -2 -1 -3 -4 -3 -0 1 -1 0 0 1 1 4 6 7 6 2 5 4 4 3 2 4 3 3 3 2
-11 -11 -8 0 2 2 1 -0 3 2 2 3 3 1 -1 -0 -1 -1 -7 -4 -3 -3 -3 -1 -2 -0 0 -3 -3 1 3 1 6 5 5 5 3 4 4 3 3 3 4 7 2 2 2
-11 -11 -10 -5 -2 1 -0 -1 2 2 2 2 2 1 -2 0 -1 -4 -6 -5 -3 -2 -5 -2 -1 0 1 0 -2 -1 -0 1 6 6 5 4 4 3 5 5 6 5 6 6 3 1 2
-11 -11 -11 -7 -5 -1 -3 -6 -1 2 2 2 3 -1 -4 -4 -4 -4 -2 -1 -0 -0 -1 0 1 1 -1 1 1 -1 1 2 6 6 7 6 4 6 6 6 8 7 5 4 3 1 2
-12 -12 -11 -9 -8 -7 -13 -14 -17 0 2 1 1 -2 -4 -3 -5 -3 -2 0 -0 0 1 -2 -1 -0 1 -0 1 2 -1 3 6 7 6 5 6 7 6 5 3 3 3 4 3 0 2
-12 -12 -12 -9 -8 -7 -7 -6 -13 -8 -2 -3 -2 -1 -4 -2 -0 -1 -1 0 1 1 1 -1 -1 -1 1 1 2 2 1 5 5 6 6 6 6 4 4 4 5 2 3 3 0 0 1
-12 -12 -12 -8 -8 -6 -6 -7 -4 -16 -18 -15 -3 -2 -1 -2 -2 -2 -3 -2 1 1 1 1 1 2 1 2 2 3 4 5 4 6 5 5 4 3 4 4 5 1 1 1 2 1 0
-13 -13 -11 -8 -7 -8 -7 -6 -5 -7 -25 -23 -5 -2 0 -1 1 1 -1 -4 -3 -0 2 3 2 2 3 1 3 3 5 5 6 6 4 6 3 3 3 4 2 2 -1 -0 3 3 4
-13 -13 -11 -8 -8 -8 -7 -6 -6 -7 -20 -23 -8 -2 1 1 -2 1 -3 -3 -1 1 2 2 2 2 3 2 4 3 4 5 6 5 4 6 5 6 6 5 3 2 1 3 2 3 3
-13 -14 -11 -8 -8 -9 -9 -6 -6 -7 -16 -22 -7 -2 0 1 2 1 1 -3 1 0 5 4 2 2 3 2 4 3 5 5 3 4 4 5 4 6 6 5 5 2 3 3 3 4 6
-12 -14 -11 -9 -9 -9 -9 -8 -6 -7 -17 -20 -5 -2 -0 1 2 2 2 1 2 3 3 5 5 4 4 5 4 5 5 5 6 7 6 5 4 4 5 6 5 3 4 5 5 5 6
-11 -13 -8 -11 -9 -9 -10 -9 -6 -6 -21 -19 -5 -1 1 2 2 2 2 2 2 3 4 4 4 4 6 5 5 5 5 6 4 4 4 5 6 5 4 5 7 4 3 4 5 6 5
-10 -9 -9 -11 -10 -11 -10 -9 -6 -6 -19 -18 -3 1 1 1 2 2 3 2 1 3 2 4 3 4 5 4 4 6 5 6 4 4 5 6 5 4 4 5 5 5 5 1 2 -0 2
-10 -6 -10 -11 -11 -11 -11 -9 -6 -6 -17 -14 -1 3 3 0 3 3 2 3 3 3 3 2 3 1 2 5 4 5 5 4 5 4 3 5 6 5 5 5 4 5 3 5 3 5 3
-7 -6 -8 -9 -11 -11 -12 -8 -6 -6 -11 -13 2 3 3 1 3 3 3 2 3 2 0 1 2 1 0 2 3 3 3 1 1 0 0 3 3 6 5 6 7 5 6 5 4 2 4
-4 -5 -7 -10 -10 -12 -12 -7 -6 -7 -9 -13 1 1 3 1 4 3 1 3 1 0 -0 1 -0 1 0 1 1 3 3 2 -1 -1 3 1 4 6 6 3 3 3 4 4 5 5 1
-3 -5 -6 -8 -9 -12 -12 -5 -6 -7 -11 -3 1 1 3 3 3 3 1 1 1 1 -1 -1 0 -0 -1 0 2 1 2 0 -1 0 1 1 4 5 5 2 1 5 3 3 1 2 4
-5 -4 -5 -7 -9 -12 -10 -5 -6 -6 -8 -1 1 1 -0 3 2 2 2 2 2 -0 -0 -2 -1 -1 -0 -0 -1 1 2 0 -0 -1 -1 -0 2 2 4 3 3 4 3 2 2 2 2
-6 -5 -4 -3 -9 -11 -6 -6 -6 -6 -10 -6 -1 0 -0 -0 2 1 1 1 2 2 -0 -2 -1 -1 0 0 0 1 2 1 0 -2 -1 1 1 -2 1 3 2 3 3 3 2 1 1
-7 -6 -3 -1 -9 -7 -5 -5 -4 -5 -8 -15 -0 -1 -1 -0 -0 1 1 3 2 2 0 1 -0 -1 -2 0 -1 1 1 1 2 -1 -0 1 2 0 1 1 2 2 1 2 2 1 1
-7 -6 0 -1 -8 -5 -4 -5 -4 -5 -8 -10 -10 -3 -0 -1 -1 1 2 2 2 2 1 0 1 1 1 2 -0 -1 -2 -2 -1 0 1 2 1 0 1 1 1 1 1 1 1 1 1
-3 -1 -0 -1 -7 -4 -4 -4 -5 -4 -4 -6 -6 -3 -2 -1 -4 -5 -1 0 1 1 3 2 2 1 -0 -0 -1 -2 -2 -2 -2 -2 -1 2 1 1 1 1 1 -3 -1 -1 -0 -0 0
0 1 0 -3 -5 -3 -4 -4 -5 -4 -3 -3 -5 -6 -3 -3 -4 -6 -6 -2 -1 0 2 2 3 0 0 0 1 1 1 0 -0 -1 -1 -0 1 2 2 1 -1 0 1 0 1 1 -1
1 0 0 -6 -4 -2 -3 -5 -5 -4 -3 -2 -3 -5 -3 -3 -4 -5 -4 -4 0 1 2 3 3 1 1 3 2 4 4 2 2 2 -0 -1 -1 1 3 2 4 2 -1 -1 -0 4 -1
1 0 -3 -7 -1 -1 -2 -5 -3 -2 -3 -2 -2 -2 -5 -3 -5 -5 -6 -5 -5 0 1 3 3 2 2 2 3 2 3 1 3 4 3 2 2 3 3 3 0 -2 -0 0 5 3 0
1 -1 -7 -4 -1 -1 -3 -4 -3 -2 -3 -3 -2 -2 -2 -3 -3 -6 -7 -6 -6 -5 -0 0 2 3 3 2 2 2 1 1 1 0 2 2 2 3 3 4 3 -0 2 4 2 2 2
1 -2 -6 -3 -3 -3 -3 -4 -4 -2 -3 -2 -2 -2 -1 -2 -3 -4 -5 -5 -5 -7 -5 -5 0 1 3 4 2 1 1 -1 0 2 -2 1 -0 1 1 2 -2 1 2 2 2 2 2

GFSGBSN_850_dewp_060.txt.gz
Dewpoint
-10 -8 -1 1 2 3 2 1 3 2 2 3 3 3 2 2 1 1 -0 -2 -1 0 0 -2 -2 -2 -1 1 1 2 1 3 4 3 7 6 5 7 7 6 7 5 5 5 6 6 7
-11 -10 -6 0 1 2 2 1 2 2 2 2 2 3 -1 1 -1 -1 -5 -5 -2 -2 -2 -3 -2 -2 -0 2 -3 -3 0 1 5 1 7 6 5 7 6 6 7 6 4 4 5 5 7
-10 -11 -10 -5 -1 -0 2 1 2 1 2 2 2 2 -1 -1 -1 -3 -8 -4 -3 -3 -4 -4 -3 -1 -1 -3 -1 -1 -1 2 4 4 6 6 5 5 5 5 4 4 6 4 4 2 2
-10 -11 -12 -6 -7 -9 -1 -1 -2 2 3 1 3 2 -4 -2 -3 -7 -5 -5 -4 -3 -4 -2 -2 -1 0 -2 -3 -2 1 1 4 4 5 6 4 4 5 4 4 3 5 7 3 3 2
-11 -12 -12 -9 -8 -7 -1 -2 -5 -1 2 2 2 2 -4 -5 -5 -4 -4 -1 -3 -5 -5 -2 -1 0 -0 0 -0 -1 1 1 4 4 5 7 5 4 5 5 5 5 7 7 5 2 2
-11 -12 -12 -9 -8 -7 -4 1 -3 -4 -3 0 2 1 -4 -4 -6 -6 -2 -1 -1 -1 -0 0 1 1 0 -0 0 1 -1 0 3 4 5 7 5 6 5 6 7 7 6 5 4 3 3
-11 -12 -13 -9 -8 -7 -7 -0 -1 -1 -9 -6 0 0 -4 -3 -3 -3 -3 -1 -2 -1 -0 -1 -1 -0 -1 0 1 2 1 -0 4 6 7 5 6 7 6 4 3 4 4 5 3 1 2
-9 -12 -12 -9 -8 -8 -8 -5 -4 -2 -3 -12 -6 -1 -1 -4 -3 -3 -4 -3 1 -1 1 0 0 0 1 2 2 2 0 2 5 7 5 7 6 4 4 4 3 4 4 4 2 1 1
-7 -12 -12 -9 -8 -8 -9 -7 -6 -5 -10 -23 -17 -2 0 -2 -3 -3 -4 -3 -1 -0 1 2 1 1 1 2 3 3 1 3 5 6 5 6 5 4 5 5 6 3 4 2 2 1 0
-6 -11 -13 -9 -9 -9 -9 -8 -6 -6 -14 -22 -20 -2 0 0 1 -1 0 -3 -1 1 -1 3 2 3 2 1 4 2 2 5 4 6 4 5 4 5 5 5 4 5 0 0 1 3 5
-7 -11 -12 -8 -9 -9 -10 -9 -7 -6 -15 -22 -14 -3 0 1 0 -2 -2 -3 -1 1 4 3 3 0 2 2 3 4 4 5 5 6 4 7 5 5 5 4 2 2 0 2 2 3 2
-6 -10 -11 -7 -10 -10 -11 -9 -7 -6 -14 -22 -9 -3 -0 1 2 1 1 1 0 -1 5 4 2 3 3 3 3 3 5 5 4 4 4 5 4 5 6 5 4 2 3 3 3 4 6
-5 -9 -6 -9 -10 -10 -12 -9 -6 -6 -13 -20 -8 -2 0 1 2 2 2 1 -1 3 2 5 6 4 4 5 4 3 5 5 6 6 6 5 5 4 5 5 4 3 3 6 7 7 5
-4 -7 -5 -9 -10 -10 -12 -8 -6 -6 -12 -18 -5 -1 0 1 2 2 2 -1 1 2 3 3 5 5 6 5 4 5 4 6 4 3 5 6 7 6 4 5 6 5 3 3 5 6 4
-2 -5 -6 -7 -9 -10 -12 -8 -6 -7 -10 -16 -3 0 2 1 3 3 2 0 0 0 0 4 3 5 6 5 4 5 4 5 4 3 4 5 5 4 4 5 5 5 7 1 2 1 2
-4 -3 -6 -6 -9 -10 -12 -6 -6 -7 -9 -13 -0 2 3 1 3 4 0 3 2 2 2 3 3 1 3 6 6 6 6 4 5 4 2 3 6 4 5 5 5 5 3 5 2 3 3
-5 -3 -5 -6 -7 -8 -12 -5 -6 -7 -8 -10 2 3 2 1 4 2 1 1 3 2 2 1 2 1 1 3 4 5 4 3 2 3 2 3 2 5 5 6 6 6 7 5 3 2 4
-4 -3 -4 -5 -5 -7 -11 -5 -7 -7 -7 -8 1 1 3 3 4 1 0 2 1 1 0 1 -0 1 1 1 1 3 3 1 -0 -1 3 2 3 6 5 4 4 3 5 4 5 3 0
-3 -3 -4 -4 -2 -7 -9 -5 -7 -7 -8 -6 1 2 4 4 2 1 1 1 1 1 -1 -1 -0 -1 -1 0 2 2 2 0 -0 -0 2 1 2 3 6 3 3 6 4 3 2 2 1
-3 -3 -5 -2 -1 -8 -6 -6 -7 -7 -9 -3 -0 -1 -1 3 2 2 2 2 2 0 -0 -2 -1 -1 -1 -0 -1 2 2 0 -0 -2 -1 0 2 2 3 2 2 3 5 3 4 4 4
-4 -5 -5 -0 -1 -8 -5 -7 -7 -7 -9 -7 -3 -1 -1 -1 1 0 1 2 1 2 -0 -1 -1 -1 -0 1 1 2 2 1 0 -1 -0 -1 0 -1 1 3 2 2 3 3 4 4 5
-3 -5 -3 0 -3 -6 -5 -6 -7 -7 -10 -11 -3 -2 -2 -1 -0 0 1 3 3 3 0 1 0 0 -1 0 -1 1 1 1 1 -1 0 -0 1 -0 -0 1 1 2 1 3 2 2 1
-2 -2 0 -1 -5 -4 -5 -6 -6 -6 -7 -9 -8 -2 -1 -2 -3 1 1 1 2 2 1 0 1 2 1 1 -1 -2 -1 -1 -1 -0 1 1 1 -1 -1 1 -0 1 0 1 2 1 1
0 0 0 -1 -7 -3 -5 -5 -5 -5 -5 -6 -7 -5 -4 -4 -5 -5 -6 -4 0 -0 2 2 2 1 0 -0 -1 -2 -2 -2 -1 -1 -0 1 -0 -0 -0 -0 1 -2 -2 -1 -1 -1 0
1 0 0 -2 -6 -2 -3 -5 -4 -4 -4 -5 -7 -6 -4 -4 -4 -5 -5 -5 -3 -0 1 2 3 2 1 0 0 1 1 0 -0 -1 -0 -1 1 2 2 0 -1 -1 0 0 0 -0 -2
1 0 -0 -5 -3 -2 -2 -4 -3 -4 -4 -4 -5 -6 -5 -4 -4 -6 -5 -4 0 1 2 3 3 2 1 2 2 3 4 1 2 2 -1 -0 -0 0 3 2 3 -1 -0 -2 -1 3 -0
0 0 -2 -6 -2 -3 -4 -4 -3 -3 -3 -3 -3 -3 -4 -4 -5 -5 -6 -6 -6 -3 -1 2 1 2 2 2 3 2 3 0 3 3 3 2 2 2 3 3 1 -3 -3 0 4 1 0
1 -1 -5 -3 -3 -3 -3 -4 -4 -2 -4 -3 -2 -2 -2 -2 -3 -5 -5 -6 -6 -6 -2 -1 2 3 2 2 2 1 1 0 1 1 2 1 3 3 3 3 2 -3 2 3 1 2 1
1 -1 -5 -2 -3 -3 -3 -3 -4 -1 -3 -2 -2 -2 -2 -2 -3 -3 -5 -5 -5 -4 -5 -5 -0 -0 1 3 2 2 1 -1 0 2 -2 1 -1 1 0 0 -3 -1 0 1 2 2 2

GFSGBSN_850_dewp_063.txt.gz
Dewpoint
-7 -10 -11 -7 -2 -1 2 2 0 2 3 2 2 2 -0 2 1 -3 -7 -5 -3 -1 -1 -3 -3 -2 -1 1 -0 3 3 4 4 4 4 7 6 5 7 7 6 6 6 6 8 7 7
-5 -11 -11 -9 -7 -4 1 1 -1 2 2 2 3 2 0 2 -2 -7 -6 -3 -2 -2 -2 -3 -3 -3 -1 1 -5 -4 1 0 1 3 4 7 6 4 7 7 7 6 5 6 8 7 8
-4 -11 -12 -9 -8 -6 -1 1 -1 -0 2 2 2 3 1 -2 -4 -8 -5 -5 -5 -4 -4 -4 -3 -2 -1 -3 -2 0 -1 0 2 4 3 6 4 5 6 6 6 5 6 6 7 6 6
-3 -10 -12 -10 -8 -7 -4 3 3 2 1 3 2 2 1 -4 -6 -6 -6 -2 -2 -1 -3 -1 -1 -1 -2 -1 -1 -1 -1 1 3 5 3 6 6 4 5 5 5 5 6 8 5 4 4
-2 -10 -12 -10 -8 -8 -6 3 2 2 2 -0 2 2 2 -5 -6 -5 -4 -1 -4 -4 -3 -1 0 -1 -1 1 0 -0 -1 3 4 5 2 5 6 5 5 5 5 5 7 7 5 3 5
-0 -9 -12 -10 -8 -8 -7 1 1 3 3 -3 0 -0 2 -5 -4 -5 -5 -3 -2 -0 -0 0 2 -0 -0 0 1 0 1 2 4 5 6 7 4 5 5 5 7 6 6 6 5 4 3
1 -8 -11 -11 -8 -8 -9 -6 -2 1 2 -0 -4 -2 -0 -5 -3 -1 -2 -1 -2 -1 -1 -1 -1 0 1 1 1 0 0 -1 3 5 5 6 6 7 5 3 3 3 4 6 3 2 3
1 -7 -11 -11 -8 -8 -10 -8 -8 -2 0 -7 -20 -9 -0 -4 -6 -4 -6 -4 -2 -1 -0 1 1 1 1 2 2 2 -0 2 3 5 4 6 5 4 4 3 3 3 5 5 2 2 3
1 -6 -10 -11 -7 -9 -10 -9 -8 -6 -5 -15 -21 -10 -0 -1 -2 -4 -5 -4 -1 -0 1 2 2 1 2 2 3 2 2 2 4 5 5 5 4 4 5 5 4 3 4 3 4 1 0
2 -5 -9 -10 -7 -9 -11 -9 -8 -6 -6 -18 -20 -6 -0 1 -0 -1 -2 -5 -3 1 -2 4 2 3 2 1 3 1 3 3 4 5 5 5 4 5 5 6 4 5 1 1 2 3 5
2 -5 -8 -7 -7 -9 -11 -10 -7 -6 -7 -18 -18 -5 -0 1 0 -1 -1 -3 -2 1 1 3 2 1 1 3 3 3 3 5 5 6 5 6 5 5 6 5 2 3 -0 1 1 3 2
3 -4 -7 -4 -7 -8 -10 -11 -6 -6 -7 -17 -13 -3 -0 1 1 1 1 1 -1 -2 3 4 3 3 3 3 3 3 5 5 4 5 4 5 4 4 6 5 2 1 2 2 3 3 5
2 -3 -5 -4 -8 -8 -9 -11 -5 -6 -7 -15 -8 -1 0 1 2 2 2 1 -1 2 2 5 5 3 3 5 5 5 5 5 6 6 7 6 5 4 5 5 4 2 3 5 7 6 6
2 -1 -3 -4 -6 -8 -8 -9 -5 -6 -7 -13 -5 -0 1 2 2 2 3 -2 1 2 4 4 4 4 5 4 5 5 5 6 3 3 5 6 6 5 4 4 5 4 2 4 5 6 4
3 -1 -3 -4 -5 -5 -6 -9 -5 -7 -7 -10 -3 0 2 2 3 3 2 -1 -0 -1 -1 4 4 5 5 4 4 4 4 5 3 2 4 5 5 4 4 5 4 5 5 -0 1 -0 2
3 -3 -3 -4 -4 -2 -4 -8 -5 -7 -7 -9 -0 2 2 1 3 3 -1 1 2 1 2 3 3 1 5 4 5 4 5 3 4 3 1 2 6 4 5 4 4 5 3 5 1 2 3
3 -3 -3 -3 -2 -1 -5 -6 -5 -7 -7 -7 2 3 3 2 4 2 -1 -1 2 2 2 1 2 1 4 5 4 5 4 4 3 4 2 1 2 5 5 6 6 6 6 4 2 1 3
1 -2 -3 -2 -1 -1 -5 -5 -6 -8 -8 -7 0 1 3 4 3 0 -1 2 1 1 1 0 -0 1 1 1 3 3 3 2 1 3 3 2 2 5 6 3 4 5 5 4 3 3 0
-1 -3 -3 -2 -1 -1 -5 -6 -8 -8 -8 -6 1 2 3 3 1 0 1 1 1 1 -1 -1 -0 -1 -1 0 3 2 2 0 -0 0 2 2 2 5 6 4 3 6 5 3 2 1 0
-3 -3 -3 -2 -1 -2 -5 -6 -8 -8 -9 -1 -0 -1 -1 2 1 1 2 2 1 0 -0 -2 -1 -2 -1 -0 -0 2 2 0 -0 -1 -0 -0 2 1 2 1 3 6 5 4 3 4 4
-3 -3 -3 -1 -1 -6 -5 -7 -8 -7 -10 -3 -3 -1 -1 -1 1 0 1 2 2 2 -1 -1 -1 -1 -0 0 1 2 2 1 -0 -1 0 -0 2 -1 0 2 1 2 3 5 3 4 5
-3 -3 -2 -0 -1 -5 -6 -7 -8 -7 -9 -10 -7 -4 -3 -2 -1 -0 1 2 3 3 1 1 0 1 -0 -0 -1 1 1 1 1 -1 0 -1 -0 -1 -1 1 1 2 1 4 4 4 4
-2 -2 -0 -0 -2 -4 -6 -7 -7 -7 -7 -8 -7 -3 -1 -2 -4 -0 -1 -1 2 1 1 1 2 2 1 1 -0 -2 -1 -1 -1 -0 1 0 -0 -1 -1 0 -1 0 -0 0 2 2 3
-0 0 0 -1 -4 -4 -6 -7 -6 -6 -6 -6 -5 -5 -6 -5 -5 -4 -6 -6 -2 -2 1 1 2 1 1 0 -1 -2 -2 -1 -1 -1 -0 -0 -1 -1 -1 -1 1 -2 -4 -2 -0 -1 0
1 1 -0 -1 -6 -3 -6 -7 -6 -6 -5 -6 -7 -6 -5 -5 -4 -5 -6 -5 -2 -0 1 1 2 2 2 0 0 1 1 -0 -0 -1 0 -2 0 2 2 0 -1 -2 -0 0 0 -1 -2
1 1 -0 -3 -5 -4 -6 -6 -5 -5 -4 -5 -5 -5 -5 -5 -4 -5 -6 -4 -2 -1 1 2 3 2 2 1 1 3 3 1 2 1 -1 -0 -1 1 1 2 3 -3 -0 -2 -2 2 -1
1 -0 -1 -6 -4 -5 -5 -5 -5 -4 -4 -4 -4 -4 -4 -4 -5 -4 -6 -6 -6 -5 -4 -1 0 1 2 2 3 3 2 -0 2 3 3 2 2 2 2 2 0 -3 -4 -0 3 -0 1
-0 -0 -3 -4 -5 -4 -4 -5 -4 -3 -4 -3 -2 -3 -3 -3 -3 -3 -5 -3 -5 -5 -4 -3 -0 2 3 2 3 2 1 0 1 0 1 2 3 4 3 4 2 -3 1 2 0 2 1
-0 -1 -4 -4 -5 -4 -4 -4 -4 -3 -4 -3 -3 -3 -3 -3 -3 -3 -5 -6 -5 -4 -4 -5 -2 -1 -0 3 1 1 1 -1 -0 1 -2 1 -1 1 1 0 -4 -3 0 1 1 2 2

GFSGBSN_850_dewp_066.txt.gz
Dewpoint
1 -7 -10 -10 -5 1 2 3 1 -0 2 2 2 4 1 2 -0 -9 -5 -4 -3 -2 -1 -2 -2 -2 -1 -0 -4 2 2 3 4 5 5 6 7 6 6 6 7 7 7 7 7 7 8
2 -7 -10 -11 -7 -1 1 2 2 3 0 2 2 2 2 2 -2 -9 -6 -5 -6 -5 -4 -4 -3 -2 -2 -1 -3 -5 1 2 3 4 4 4 7 5 5 6 7 6 6 6 8 8 8
3 -5 -9 -11 -7 -2 1 1 2 2 3 1 3 2 2 0 -2 -7 -6 -4 -3 -1 -4 -3 -3 -2 -1 -4 -2 1 -4 -0 2 3 3 4 6 4 5 6 6 5 8 8 8 8 8
4 -2 -8 -11 -8 -6 1 0 2 2 2 2 0 2 2 2 1 -5 -5 -2 -1 -6 -6 -2 -1 -2 -4 -1 0 -3 -2 -1 2 1 4 4 6 5 5 5 5 6 7 9 7 8 8
4 -0 -6 -11 -9 -7 -0 -3 1 3 2 2 -1 2 2 2 -2 -4 -6 -3 -2 -2 -2 -0 0 0 -2 1 0 -0 -1 -1 2 2 5 5 6 5 5 5 6 7 7 6 8 7 8
5 1 -5 -10 -9 -7 -6 -8 -4 0 2 1 -0 -2 1 0 -3 -0 -4 -4 -1 -1 -1 -0 1 1 -0 0 1 1 -0 2 3 5 5 3 5 5 5 6 7 6 6 6 7 6 7
5 2 -4 -10 -9 -7 -8 -9 -8 -5 0 0 -4 -12 -2 -1 -4 -4 -4 -2 -2 -2 -1 0 0 1 1 2 1 1 2 1 3 4 4 3 6 6 5 4 2 4 4 5 3 4 6
5 2 -2 -9 -9 -7 -8 -10 -8 -6 -4 -5 -13 -15 -3 0 -4 -5 -6 -4 -2 -1 -0 1 1 1 1 2 2 2 1 3 4 4 3 4 6 3 3 2 3 4 4 5 3 3 4
5 2 -2 -7 -8 -7 -8 -10 -10 -6 -6 -7 -17 -13 -3 0 -2 -3 -5 -3 -2 -1 1 2 3 1 2 2 3 2 3 3 3 4 4 5 3 4 4 3 4 3 4 4 4 2 1
5 2 -1 -5 -6 -6 -8 -10 -11 -5 -6 -8 -17 -10 -2 1 -0 -1 -2 -4 -2 0 -0 3 2 2 2 2 3 2 3 3 3 5 5 5 4 5 5 5 3 5 2 2 3 4 6
5 3 -1 -5 -4 -6 -7 -9 -10 -5 -7 -9 -16 -6 -1 1 1 -1 -1 -3 -2 0 0 3 2 2 2 3 2 3 4 2 4 5 4 6 5 5 6 5 2 3 1 1 1 3 2
4 3 -0 -4 -4 -6 -7 -7 -9 -5 -7 -9 -14 -4 -0 1 2 2 1 1 0 -3 0 3 3 3 3 3 3 3 5 5 4 4 5 5 4 4 5 4 2 1 2 2 2 3 4
4 3 0 -4 -4 -5 -6 -6 -8 -5 -7 -9 -11 -1 1 1 2 2 2 1 -1 1 1 3 5 3 4 5 4 4 5 5 5 6 6 6 5 5 4 4 3 1 3 4 5 4 4
4 2 1 -3 -4 -5 -3 -5 -7 -6 -7 -9 -7 -0 1 2 2 2 2 -2 1 1 4 4 4 3 5 5 5 5 5 6 3 4 5 6 7 5 4 4 5 3 1 3 5 6 4
3 3 1 -3 -4 -4 -2 -6 -6 -6 -7 -9 -5 0 2 1 3 2 1 -2 -1 -2 -1 4 4 5 5 3 4 4 4 5 2 2 4 4 6 4 5 4 4 5 5 -1 1 -0 1
3 3 -0 -3 -3 -2 -2 -6 -5 -6 -8 -9 -1 2 2 2 3 2 -1 1 1 -1 1 3 3 2 5 3 4 4 4 3 4 2 1 2 5 4 5 3 4 4 2 5 1 2 3
4 3 -2 -3 -2 -1 -2 -5 -5 -7 -8 -9 2 3 3 3 3 2 -1 -1 2 2 2 1 2 2 4 4 4 4 3 4 3 3 1 1 2 5 4 5 5 6 5 4 2 1 2
4 3 -3 -2 -2 -1 -2 -5 -6 -8 -8 -9 1 1 3 4 2 0 -1 1 1 1 1 0 -0 0 2 4 4 3 4 2 2 2 2 1 2 5 5 3 3 4 5 3 4 3 0
4 3 -2 -2 -2 -1 -5 -5 -7 -8 -9 -8 1 1 3 3 -0 -1 0 1 1 0 -1 -1 -0 -1 -1 0 3 2 2 0 1 1 2 1 2 6 5 4 3 6 5 4 1 1 1
4 1 -3 -3 -1 -2 -5 -7 -8 -9 -9 -7 -2 -1 -1 1 0 1 1 2 1 0 -1 -2 -1 -2 -1 -0 0 2 2 0 -0 -0 1 -0 1 1 2 1 2 6 4 5 5 6 5
3 -1 -3 -3 -1 -3 -5 -7 -9 -9 -9 -9 -5 -2 -1 -2 -0 -0 1 1 2 2 -1 -1 -1 0 -0 0 1 2 2 1 -1 2 -0 0 1 -1 0 1 2 3 3 4 5 5 6
3 -3 -2 -2 -1 -3 -5 -8 -8 -8 -9 -9 -8 -5 -3 -2 -1 -0 -0 2 3 2 1 1 0 1 0 -0 -1 1 1 1 1 -1 0 -2 -0 -2 -0 0 2 2 1 3 4 4 4
2 -3 -2 -0 -1 -4 -6 -8 -8 -8 -8 -7 -7 -4 -2 -4 -5 -1 -3 -4 1 -1 2 1 2 2 0 1 0 -1 -1 -1 -1 -0 0 -0 -0 -1 -1 -0 -1 1 0 0 2 3 4
0 -2 -1 -0 -2 -5 -7 -7 -8 -8 -9 -8 -7 -6 -8 -6 -5 -4 -5 -6 -4 -3 -0 -0 2 1 1 2 -1 -2 -2 -1 -1 -1 -1 -0 -1 -2 -2 -1 0 -3 -4 -3 -1 -1 1
-1 -1 0 -1 -3 -5 -7 -7 -7 -7 -8 -8 -7 -7 -5 -4 -4 -5 -6 -4 -2 -1 1 1 3 3 2 1 -0 0 -0 -1 -0 -1 -0 -2 -0 1 1 -0 -1 -2 -0 -0 -0 -0 -2
-1 0 1 -1 -5 -6 -7 -7 -7 -7 -7 -7 -6 -6 -6 -6 -4 -5 -5 -6 -5 -3 -3 1 2 2 2 1 1 3 2 1 1 1 -1 -1 -1 1 1 3 2 -4 -1 -2 -2 2 -2
0 1 -0 -3 -5 -6 -6 -6 -6 -6 -6 -5 -5 -5 -4 -5 -5 -4 -6 -6 -6 -6 -6 -3 -2 0 2 2 3 3 2 -0 2 2 2 3 2 3 3 4 0 -3 -3 -2 3 -1 1
2 1 -1 -4 -5 -5 -6 -6 -5 -5 -5 -4 -5 -5 -4 -4 -3 -3 -4 -3 -3 -5 -5 -5 -1 1 3 2 3 2 1 0 0 -0 1 2 3 3 3 4 2 -4 -0 2 -1 1 2
2 -1 -2 -4 -5 -5 -5 -5 -4 -5 -5 -5 -4 -4 -4 -3 -4 -4 -5 -6 -6 -4 -4 -4 -2 -1 -1 2 1 0 1 -1 -1 1 -2 1 -1 1 1 0 -4 -4 -2 -1 1 1 1

GFSGBSN_850_dewp_069.txt.gz
Dewpoint
4 1 -7 -9 -8 -3 -4 1 2 3 3 2 2 3 2 1 1 -8 -7 -5 -3 -4 -5 -4 -4 -1 0 -1 -5 1 2 3 1 5 5 6 7 5 3 6 8 8 7 6 7 7 6
5 3 -5 -8 -10 -3 -4 1 2 3 2 3 1 2 2 2 0 -4 -8 -6 -1 -0 -4 -4 -3 -1 -2 -2 -4 -5 0 2 2 5 5 6 6 4 4 6 7 7 6 7 7 8 7
6 4 -1 -7 -10 -7 -5 -0 1 3 3 3 3 -0 2 2 1 1 -7 -6 -0 -2 -2 -3 -3 -3 -2 -4 -5 -2 -3 1 1 3 4 5 6 4 4 6 6 6 7 8 8 8 8
8 6 2 -6 -10 -8 -6 -4 -4 2 3 3 3 1 1 2 2 1 -4 -5 -2 -3 -4 -2 -1 -2 -3 -2 0 -3 -3 -2 0 2 3 3 5 5 5 5 6 6 7 8 8 8 8
8 7 3 -4 -10 -9 -6 -7 -7 -2 3 2 3 1 -2 2 1 -1 -1 -6 -3 -1 -1 -1 0 -0 -2 0 0 -0 -1 -1 -0 1 2 3 4 5 5 6 6 7 8 8 9 7 8
8 7 3 -1 -9 -9 -6 -8 -10 -5 1 2 2 0 -5 1 -3 -4 -1 -3 -3 -2 -1 -1 0 -0 -0 0 1 2 -0 -0 1 2 5 5 4 6 5 6 6 7 7 7 7 8 7
9 8 4 1 -7 -9 -6 -8 -10 -8 -3 -2 -0 -6 -12 0 -3 -6 -6 -3 -3 -2 -1 0 1 0 1 2 1 1 0 2 2 4 5 3 3 5 6 3 2 4 5 6 6 6 7
9 8 5 2 -6 -7 -6 -8 -10 -8 -5 -6 -8 -12 -8 -1 -1 -6 -6 -4 -2 -2 -0 1 1 1 1 2 2 2 2 3 3 4 3 4 5 4 3 2 3 4 6 5 3 5 5
9 8 5 2 -4 -6 -5 -7 -9 -9 -5 -7 -9 -14 -6 -0 -0 -3 -5 -3 -3 -1 1 2 2 2 2 2 2 2 3 3 3 3 3 4 4 2 4 3 4 3 5 4 4 4 2
8 8 5 3 -3 -4 -5 -7 -7 -8 -6 -7 -9 -12 -3 -0 -0 -1 -2 -4 -4 0 -1 4 3 2 3 2 2 3 3 3 4 4 3 3 3 4 5 4 3 5 2 3 4 5 7
9 8 4 3 -2 -4 -5 -7 -6 -7 -6 -7 -8 -7 -1 1 1 -0 -1 -3 -3 -0 2 2 3 2 2 3 2 2 3 4 4 4 4 5 4 5 5 4 2 3 1 2 2 3 3
9 8 4 2 -1 -3 -4 -6 -4 -6 -6 -7 -8 -3 0 1 2 1 1 1 -0 -3 1 3 3 3 3 3 3 3 5 4 4 3 4 5 4 5 5 3 1 1 2 2 2 3 7
9 7 5 2 -1 -3 -4 -3 -5 -6 -6 -7 -7 -1 1 2 2 2 2 0 -2 1 -0 3 4 4 4 4 4 4 4 5 6 5 6 5 6 5 4 4 2 1 2 6 7 7 6
9 7 4 2 -1 -3 -3 -1 -5 -5 -6 -8 -6 1 2 2 2 2 2 -2 1 1 4 3 4 4 5 4 4 5 4 5 4 5 6 7 7 5 4 4 4 2 1 4 5 6 5
9 7 4 2 -2 -3 -2 -1 -4 -5 -7 -8 -3 1 3 2 3 2 1 -3 0 -1 -0 4 4 4 4 4 5 4 4 5 3 2 4 5 7 4 5 4 3 4 3 -1 1 -0 2
8 7 3 2 -2 -3 -1 -1 -3 -6 -8 -8 -0 2 3 2 3 2 -2 1 1 -2 1 3 3 2 4 3 5 3 3 3 4 2 0 2 6 4 5 4 4 3 1 4 2 3 4
8 6 3 2 -3 -2 -1 -2 -4 -7 -8 -9 1 3 3 3 3 2 -2 -1 1 1 2 2 2 2 3 3 3 4 3 3 3 2 -0 0 2 5 4 4 6 5 5 3 2 1 3
8 5 3 1 -2 -2 -2 -4 -6 -8 -9 -9 -0 1 3 3 2 -0 -1 0 1 1 2 1 -0 0 3 3 4 3 3 2 3 0 2 0 2 5 4 3 3 3 4 3 4 3 0
8 5 3 1 -2 -2 -2 -5 -8 -9 -9 -8 -1 1 2 3 -0 -2 0 1 1 0 -1 -1 -0 -1 -1 2 3 2 2 -0 2 1 2 1 2 5 5 3 3 5 5 3 1 2 1
7 5 3 -0 -2 -2 -4 -6 -8 -9 -9 -7 -3 -2 -1 1 0 1 1 2 1 0 -1 -2 -1 -2 -1 -0 0 2 2 0 -0 0 1 -0 1 1 3 1 3 5 5 4 4 6 3
6 5 3 -2 -2 -2 -4 -7 -9 -9 -9 -8 -6 -3 -2 -2 -1 -1 0 1 3 2 -0 -1 -1 1 -0 1 1 2 1 1 -1 1 -1 -0 1 -1 -0 0 2 3 4 4 6 4 5
6 4 2 -2 -1 -2 -5 -8 -9 -9 -9 -9 -9 -5 -4 -2 -2 -0 -1 1 2 1 1 1 0 1 0 -0 -1 1 1 1 1 -1 -0 -2 0 -2 0 0 2 2 2 3 3 3 3
6 3 -1 -2 -1 -3 -6 -8 -9 -9 -9 -8 -7 -6 -2 -4 -5 -1 -4 -5 -0 -2 1 1 2 1 0 1 1 -1 -1 -1 -1 -0 1 1 0 -1 0 -1 -1 0 -0 1 2 3 3
5 3 -2 -1 -2 -4 -7 -8 -8 -9 -9 -9 -8 -8 -7 -6 -5 -4 -6 -6 -4 -3 -1 -1 2 1 2 2 0 -2 -1 -1 -1 -1 -1 -1 -1 -0 1 -1 1 -2 -4 -2 -0 -0 2
4 2 -2 -0 -2 -5 -7 -8 -8 -8 -9 -8 -8 -8 -7 -4 -5 -6 -6 -4 -3 -3 -0 1 3 2 2 1 -0 -0 -0 -1 -0 -1 -1 -2 -1 1 1 0 -1 -2 -0 -1 -0 -1 -2
4 0 -1 0 -3 -6 -7 -8 -8 -8 -8 -7 -8 -7 -7 -5 -4 -5 -6 -7 -6 -5 -6 -2 1 2 2 1 2 3 2 0 1 1 -1 -1 -2 1 1 2 2 -3 -2 -2 -2 2 -2
3 -1 -0 -1 -4 -7 -7 -7 -8 -8 -7 -7 -8 -7 -6 -5 -4 -5 -6 -5 -5 -5 -6 -5 -6 -0 2 3 4 2 2 -1 1 2 2 2 2 3 2 3 1 -3 -4 -2 2 -1 -1
2 -1 0 -2 -6 -7 -7 -7 -8 -7 -7 -8 -8 -9 -7 -4 -3 -4 -5 -5 -5 -5 -5 -5 -2 -0 2 3 3 2 1 0 -0 -1 1 2 3 3 3 4 3 -3 0 1 -2 -0 1
0 -0 0 -3 -6 -7 -7 -7 -7 -7 -7 -8 -8 -9 -7 -6 -4 -5 -7 -6 -5 -5 -5 -4 -2 -1 -1 1 2 -0 1 -1 -1 1 -2 1 -1 1 1 1 -3 -4 -3 -2 -1 -1 -0

GFSGBSN_850_dewp_072.txt.gz
Dewpoint
7 6 4 -2 -6 -8 -5 -0 -2 2 3 3 3 2 2 2 2 1 -6 -7 -1 -1 -2 -5 -4 -2 -2 -0 -2 0 1 2 -0 4 5 6 6 5 3 3 5 6 4 5 5 6 5
8 7 6 2 -4 -8 -7 -3 -3 2 2 3 3 3 -1 2 2 -0 1 -8 0 0 -3 -5 -3 -3 -1 -5 -4 -4 -1 2 3 4 6 6 6 4 2 3 5 4 4 5 5 6 6
9 8 7 4 -1 -7 -8 -5 -6 1 2 3 3 3 0 -1 2 2 0 -7 -4 -3 -4 -5 -2 -3 -3 -3 -5 -2 -2 0 2 4 6 6 6 4 3 1 5 5 6 5 6 6 6
9 8 8 5 1 -5 -8 -6 -7 -2 1 3 3 3 1 -1 2 0 -1 -6 -6 -3 -2 -1 -1 -1 -2 -1 0 -3 -2 -1 1 1 4 4 6 5 3 4 4 5 5 8 6 6 7
8 8 8 6 2 -3 -7 -5 -7 -9 -2 3 3 2 -1 -5 1 -5 -1 -3 -6 -2 -1 -1 0 1 -1 0 1 -0 -2 0 2 1 3 4 5 5 5 4 5 5 5 6 7 6 7
10 8 8 7 3 -1 -6 -5 -7 -9 -6 1 3 1 -6 -4 0 -6 -4 -4 -4 -2 -1 -0 -1 -0 -0 1 1 2 0 -1 1 2 2 5 4 5 4 4 5 3 4 4 6 7 7
10 9 8 8 4 0 -5 -4 -7 -9 -8 -0 1 -4 -6 -2 1 -5 -6 -3 -2 -0 -1 1 1 1 -0 1 1 2 -0 1 1 2 5 4 5 6 3 1 -3 -1 2 5 4 7 7
9 9 9 8 5 1 -4 -4 -6 -7 -8 -3 -6 -9 -10 -1 1 -4 -6 -4 -3 -2 -0 1 2 2 2 2 2 2 1 1 2 3 3 4 6 5 0 1 1 2 3 4 5 6 6
9 9 9 9 5 2 -4 -3 -5 -6 -7 -6 -7 -10 -7 0 -0 -2 -5 -3 -4 -2 1 2 2 2 3 2 2 2 2 2 1 4 4 4 4 4 3 2 2 2 2 4 4 6 5
10 10 7 8 4 2 -3 -3 -5 -5 -6 -6 -7 -9 -2 -0 0 -1 -4 -4 -4 -1 4 3 3 2 3 3 3 3 3 2 3 4 3 4 3 4 3 2 1 4 1 3 5 6 4
10 10 8 8 5 2 -2 -3 -4 -3 -6 -6 -7 -7 -0 0 1 -0 -1 -3 -4 -1 5 1 3 2 3 3 2 3 3 2 4 3 2 4 5 4 4 2 1 3 2 2 3 2 3
10 10 9 9 5 1 -1 -3 -2 -4 -5 -6 -7 -3 0 1 1 1 1 1 -1 3 6 3 3 3 4 3 2 3 4 4 3 3 4 4 2 3 3 2 1 1 2 3 3 2 6
10 10 9 9 4 2 -1 -3 -2 -4 -5 -7 -7 -1 1 2 2 1 1 1 5 5 1 4 5 4 3 2 2 4 4 4 5 7 7 5 3 4 4 3 1 2 3 7 6 7 4
10 9 9 8 4 2 -1 -3 -1 -3 -6 -8 -5 1 1 2 2 1 1 1 6 2 5 2 4 4 5 3 3 4 4 6 4 4 6 7 8 5 4 2 3 3 1 4 4 4 2
10 10 9 8 4 2 -2 -2 -1 -3 -6 -8 -3 2 2 2 2 2 1 5 4 4 4 3 4 4 5 4 4 4 4 6 3 2 5 5 7 5 4 3 3 3 4 -2 2 0 3
10 10 9 8 3 1 -2 -2 -2 -5 -8 -8 -1 2 3 2 2 2 2 3 2 -1 1 2 3 2 2 3 5 4 6 3 3 1 0 3 7 4 4 3 3 3 -1 4 5 6 3
10 10 8 7 3 0 -2 -2 -3 -6 -8 -8 1 3 3 3 3 2 5 4 2 1 1 2 2 2 2 3 3 3 3 3 2 1 -0 0 3 6 4 5 5 4 3 3 1 2 2
10 10 8 6 3 -0 -2 -2 -5 -8 -9 -7 2 4 3 3 2 1 4 1 1 1 2 1 0 1 2 2 3 3 3 2 2 -0 1 -0 3 6 4 3 3 3 3 2 4 5 3
10 9 8 5 3 -1 -2 -4 -7 -9 -9 -6 0 2 3 2 5 4 1 1 1 1 -0 -1 0 -0 -1 3 3 2 2 0 3 1 1 0 3 5 5 3 3 5 4 3 2 3 6
10 9 7 5 2 -1 -2 -5 -8 -9 -9 -5 -1 3 0 2 1 1 2 2 2 0 -1 -2 -1 -1 -1 1 1 3 2 1 1 1 1 -0 2 3 3 2 2 5 4 4 5 7 3
10 9 7 5 2 -2 -3 -6 -9 -9 -9 -7 -5 -2 0 3 1 1 1 2 2 2 0 -1 -0 0 -0 1 1 2 1 0 1 1 -0 1 6 2 -0 1 3 3 3 4 6 4 5
9 9 6 4 0 -2 -4 -7 -9 -9 -9 -8 -5 -4 -4 -2 -1 0 -0 2 2 1 2 1 0 1 -0 0 -0 1 1 1 2 -0 0 -1 5 1 2 1 2 4 2 2 3 3 3
9 9 6 3 -1 -2 -5 -8 -9 -9 -9 -9 -8 -8 -3 -4 -3 0 -1 -1 -0 -1 1 0 2 1 1 2 2 -0 -1 -1 -1 0 2 3 2 3 4 -0 -0 1 -0 1 1 2 2
9 8 6 1 -2 -2 -6 -8 -9 -9 -10 -9 -9 -8 -4 -4 -3 -3 -5 -5 -3 -2 -0 -0 3 1 2 2 1 -1 -1 -1 -1 -1 -0 3 5 4 4 1 5 -1 -3 -3 -1 -1 -0
8 7 4 -1 -1 -4 -7 -8 -9 -9 -10 -10 -9 -8 -8 -5 -5 -6 -5 -5 -4 -3 0 1 3 2 2 1 0 0 0 0 0 -1 -1 -2 -0 2 4 2 -0 -1 -0 -1 -1 -0 -2
8 6 2 -1 -1 -5 -8 -8 -9 -10 -10 -9 -9 -9 -8 -6 -5 -6 -6 -6 -6 -6 -4 -2 0 2 2 2 2 3 2 0 1 1 -1 -1 -1 1 2 3 2 -3 -2 -2 -2 0 -1
8 5 -0 -1 -1 -6 -8 -8 -9 -10 -10 -10 -10 -9 -8 -5 -4 -6 -6 -5 -5 -6 -6 -4 -5 1 3 2 5 3 1 -1 1 1 3 2 2 3 2 2 -1 -3 -4 -2 0 -0 -1
7 3 -2 -1 -3 -7 -8 -8 -9 -10 -10 -10 -10 -9 -9 -3 -3 -5 -5 -5 -5 -5 -5 -5 -1 0 2 4 5 3 0 0 -0 -1 1 2 2 3 3 4 2 -3 -1 0 -3 -1 0
7 3 -1 -0 -5 -7 -8 -8 -9 -10 -10 -9 -12 -10 -9 -7 -4 -7 -6 -6 -6 -6 -4 -4 -1 -1 -1 1 2 1 1 -0 0 1 -1 2 -0 0 1 -0 -3 -3 -2 -1 -2 -1 -1

GFSGBSN_850_dewp_075.txt.gz
Dewpoint
9 8 8 7 4 -1 -6 -7 -5 -7 -5 1 3 3 3 0 3 3 1 -0 -5 1 -3 -5 -4 -3 1 -2 -2 -0 0 2 3 4 4 5 5 4 3 1 2 7 4 5 8 5 4
9 9 8 8 6 1 -4 -7 -5 -7 -7 -1 2 3 3 2 1 3 2 1 -6 0 -4 -5 -3 -4 0 -4 -3 -3 0 1 1 3 4 5 4 3 2 -1 0 1 2 5 6 6 4
10 9 9 8 7 3 -1 -6 -5 -6 -8 -4 3 3 3 2 1 2 2 1 -5 -4 -3 -3 -2 -0 0 -3 -2 -0 0 1 4 3 4 6 5 5 2 -0 -0 1 2 4 7 8 7
9 10 9 9 8 4 1 -4 -5 -6 -8 -7 2 2 2 2 1 2 2 1 -4 -4 -2 -2 -1 2 -2 -0 0 -0 -1 -0 3 4 5 5 6 6 4 0 2 3 3 7 4 5 6
10 10 9 8 8 6 1 -2 -4 -6 -7 -8 -0 1 1 0 -1 2 -3 1 -4 -4 -1 -1 1 2 -2 0 -0 1 1 -1 2 3 4 3 5 6 5 3 5 5 4 5 3 4 6
10 10 10 9 8 8 3 -1 -3 -5 -7 -8 -4 -4 -5 -4 -0 2 -5 -4 -4 -4 1 2 1 2 -0 0 1 2 1 1 1 3 4 4 5 5 5 5 5 3 2 2 2 4 5
10 10 9 9 9 8 3 1 -3 -4 -6 -7 -5 -7 -9 -9 1 0 -5 1 1 1 1 -0 0 0 1 2 2 2 1 0 1 1 3 4 5 6 3 2 -3 -4 -2 1 -0 2 6
9 10 9 9 9 9 4 1 -3 -4 -5 -6 -6 -7 -10 -6 1 -2 -6 -0 -1 0 0 1 2 2 2 2 1 2 1 -0 1 2 2 4 5 4 3 1 2 -1 -2 2 2 3 5
9 10 10 9 9 9 5 1 -3 -3 -4 -5 -6 -7 -9 -1 -0 -2 1 0 -4 -2 0 2 2 2 2 2 2 2 2 1 -0 3 2 5 4 3 5 5 5 -0 -2 3 4 4 4
8 10 10 9 8 8 5 1 -3 -4 -3 -6 -6 -7 -6 -0 1 2 0 -5 -6 -2 3 3 2 2 3 3 3 2 2 2 2 2 3 5 4 4 6 3 -1 3 -2 -0 1 5 5
8 10 10 10 9 8 5 1 -3 -3 -3 -5 -6 -7 -2 0 3 2 1 -3 -5 0 5 2 2 2 3 3 2 2 2 3 2 4 2 4 4 6 5 2 -1 -0 -0 1 3 4 -0
7 8 10 9 9 9 6 1 -3 -2 -3 -5 -7 -6 -0 1 2 1 0 0 -1 4 5 4 3 2 2 1 2 3 4 2 2 2 2 2 2 4 4 0 -0 1 1 2 1 1 5
7 8 10 9 10 9 5 1 -3 -2 -2 -5 -8 -3 1 2 3 1 1 2 4 7 2 4 5 3 1 1 1 3 5 5 5 5 7 4 4 4 4 3 2 1 2 6 5 6 5
8 8 10 10 10 9 5 1 -3 -1 -3 -6 -7 -0 1 2 2 1 1 1 7 3 5 2 3 3 3 2 3 3 4 6 3 3 4 7 8 5 2 1 2 2 0 3 3 3 1
8 8 10 10 10 9 5 0 -2 -2 -4 -7 -3 2 3 2 1 1 1 6 5 5 3 3 4 4 3 3 3 4 5 5 4 1 4 4 7 4 4 3 2 3 5 -1 2 0 1
9 8 9 10 10 8 5 -0 -2 -2 -6 -8 1 3 3 2 2 2 1 4 2 0 1 1 4 2 3 3 4 3 5 3 3 2 -0 2 7 5 4 3 2 2 0 2 4 5 1
9 9 9 10 9 8 3 -1 -2 -4 -7 -8 3 3 3 2 3 2 4 4 2 1 1 2 1 1 1 2 2 3 5 3 1 1 -0 1 2 6 4 4 3 3 3 2 1 2 3
9 8 9 10 9 7 2 -2 -2 -5 -8 -5 4 3 2 2 3 2 4 1 1 1 1 1 0 1 1 1 1 2 4 2 1 -0 1 -0 3 6 4 3 2 4 2 0 3 3 2
9 8 9 9 9 6 1 -2 -4 -7 -9 -1 1 2 2 3 3 4 1 1 1 0 0 -0 0 -0 0 1 2 1 2 1 2 0 0 -0 4 6 5 3 2 4 2 1 0 4 7
9 8 9 9 8 5 -0 -2 -5 -8 -9 -5 1 3 2 2 2 1 1 1 1 1 -1 -2 -1 -1 -0 1 0 2 2 1 2 1 0 -0 1 3 4 3 1 4 1 1 4 7 3
9 8 9 9 7 4 -1 -3 -6 -9 -9 -5 -2 -2 2 3 1 0 1 1 1 1 -0 -1 -0 -0 -1 1 1 2 1 1 2 1 0 1 6 4 -0 2 3 3 3 2 5 4 5
8 9 9 8 6 2 -2 -4 -8 -9 -9 -5 -4 -4 -3 -1 0 0 1 2 1 2 1 0 -1 0 -1 -0 0 1 1 1 1 1 1 0 5 2 3 1 2 3 2 1 2 3 3
8 9 9 8 6 1 -2 -5 -8 -9 -9 -6 -8 -7 -4 -2 -2 -1 -1 1 1 1 1 1 1 -1 0 2 2 -1 -1 -1 -1 1 1 3 3 4 5 0 0 2 -0 1 1 1 1
8 9 9 7 4 -1 -2 -6 -9 -10 -9 -9 -9 -6 -4 -4 -4 -2 -3 -1 -1 -0 1 1 2 0 2 2 1 0 -1 -1 -1 -1 0 3 5 5 5 2 5 -1 -4 -3 -2 -2 -2
7 9 9 7 4 -2 -3 -7 -9 -10 -9 -9 -9 -8 -7 -5 -4 -4 -4 -3 -3 -2 0 2 2 0 2 1 -0 1 1 1 0 -1 -1 -0 3 4 5 3 -0 -2 -3 -2 -1 -2 -3
7 9 8 6 0 -2 -5 -8 -10 -10 -10 -9 -9 -9 -5 -6 -6 -5 -5 -5 -4 -2 -1 -1 -1 1 3 2 1 2 2 -1 1 1 -1 -1 -1 2 2 3 2 -1 -2 -3 -3 -0 -1
8 7 7 5 -1 -2 -6 -9 -10 -10 -10 -9 -10 -9 -5 -5 -5 -6 -6 -6 -6 -6 -4 -3 -2 2 2 2 4 3 1 -2 0 1 2 2 2 3 2 3 -0 -4 -3 -2 0 0 -1
7 8 7 5 -1 -3 -7 -9 -10 -10 -10 -10 -10 -9 -5 -4 -4 -4 -4 -5 -5 -5 -5 -4 0 1 2 3 2 3 -0 -1 -1 -2 -0 1 2 2 2 5 3 -3 -3 -2 -1 -1 -1
7 8 7 2 -1 -5 -8 -9 -9 -10 -11 -11 -11 -10 -7 -4 -3 -6 -7 -7 -5 -4 -4 -3 -0 -0 0 2 2 1 -0 -1 -2 -0 -1 0 -1 0 -1 -0 -3 -3 -2 -2 -3 -2 -2

GFSGBSN_850_dewp_078.txt.gz
Dewpoint
9 9 9 9 9 8 4 -0 -2 -4 -6 -7 -4 3 3 2 3 1 3 2 2 -4 0 -4 -6 -4 -1 -0 -3 -1 2 2 3 3 4 5 5 5 5 3 5 8 7 7 7 8 8
10 10 9 10 9 8 7 1 -2 -4 -5 -7 -6 2 3 2 2 1 2 2 1 -5 -1 -4 -3 -3 1 -2 -3 -1 -0 2 3 3 3 5 4 4 2 1 3 5 4 6 6 6 6
9 9 10 10 10 9 8 4 -1 -3 -4 -6 -7 -3 2 3 2 2 2 2 1 -5 -4 -3 -2 0 1 -2 -2 -1 -0 0 3 3 3 4 5 5 3 3 -1 0 6 8 7 7 6
8 8 10 10 10 9 8 7 1 -3 -4 -6 -7 -5 1 2 0 -1 2 -1 -0 -5 -3 -2 -2 1 0 -3 -1 -0 -0 -0 2 3 3 5 5 5 6 4 1 3 4 8 7 6 6
7 7 9 10 10 9 9 8 3 -3 -3 -5 -6 -6 -3 -4 -6 -1 1 -5 -4 -7 -3 -1 2 1 2 -0 -0 0 0 1 2 3 4 5 5 5 4 6 4 6 7 5 6 6 6
5 6 7 9 10 9 9 8 4 -2 -3 -5 -6 -6 -6 -8 -8 -0 -4 -6 -5 -5 1 2 2 2 1 -0 1 2 1 0 1 3 3 3 5 5 5 7 7 6 4 4 3 6 5
3 5 7 8 10 9 9 9 5 -0 -3 -4 -5 -6 -6 -9 -5 1 -5 1 3 2 1 -0 -0 -1 1 0 1 1 1 -0 2 1 2 3 5 6 5 4 2 1 1 1 1 3 6
7 3 6 7 10 9 9 8 6 0 -3 -4 -4 -6 -7 -8 -1 -1 -6 2 0 0 1 1 2 2 1 1 0 1 -0 -0 -0 3 2 3 6 4 4 4 4 5 1 1 1 6 7
10 6 5 7 9 10 9 8 6 0 -3 -4 -4 -6 -7 -4 -1 -2 1 0 -3 -3 1 2 2 1 2 1 2 1 1 -0 -1 3 2 5 4 2 4 4 6 6 3 2 6 5 6
9 8 5 7 8 9 10 8 6 1 -3 -3 -5 -6 -7 -1 3 3 1 -0 -6 -1 4 3 2 2 3 2 1 1 3 1 1 2 1 3 4 4 4 5 5 5 1 1 4 6 7
8 9 8 6 8 9 9 9 6 1 -3 -2 -5 -6 -6 0 3 2 2 -2 -5 1 6 1 2 1 3 2 1 2 2 2 1 2 3 4 4 5 5 4 3 4 0 3 5 6 3
7 8 9 7 8 9 9 9 7 0 -3 -2 -4 -7 -1 1 2 2 -0 -1 -0 4 4 4 3 2 2 3 3 3 3 1 3 2 3 3 3 4 5 3 2 1 4 4 4 4 5
5 7 9 8 7 9 9 9 7 -0 -3 -2 -5 -6 1 3 3 1 0 2 5 6 2 3 3 2 -0 1 1 4 3 4 5 5 6 4 5 5 5 4 3 3 6 7 6 5 5
4 6 8 9 8 8 9 9 5 -1 -2 -3 -7 -2 1 3 2 1 2 2 5 2 5 1 3 2 2 2 2 4 5 4 4 4 5 5 6 6 4 4 3 3 2 5 4 5 4
4 5 7 9 8 8 9 9 4 -1 -2 -4 -5 1 3 2 1 1 2 4 6 5 3 2 2 3 3 2 2 4 4 3 3 0 4 5 6 4 4 3 3 3 5 -0 4 -0 3
4 6 7 9 9 9 9 8 2 -2 -2 -6 -1 3 3 3 1 1 2 4 2 1 1 1 6 3 4 3 4 4 4 3 4 2 0 2 6 4 4 4 3 4 1 3 4 3 1
3 5 6 8 9 9 9 7 1 -2 -3 -6 3 3 3 2 1 3 3 4 2 0 1 2 3 1 1 2 3 3 5 3 1 2 -0 1 3 5 4 5 4 4 6 3 2 3 5
4 4 5 8 9 9 9 6 -0 -2 -5 -5 3 4 2 2 3 2 3 2 1 1 1 1 1 2 1 1 2 2 4 2 1 -1 2 1 5 6 6 4 3 4 3 2 5 4 3
2 5 5 7 9 9 8 4 -1 -3 -7 -2 3 3 2 2 4 3 2 1 1 1 1 0 1 -0 1 1 3 2 2 2 1 0 1 0 4 6 5 3 3 4 4 3 2 4 5
3 5 5 7 8 9 8 4 -1 -3 -8 -4 2 3 2 3 2 3 2 2 2 1 -1 -1 -1 -1 -0 1 0 3 3 2 2 1 0 1 2 4 5 3 3 4 3 2 4 5 4
3 4 6 7 9 8 8 4 -2 -4 -8 -2 1 2 1 2 2 2 0 0 1 1 -0 -1 -0 -0 -0 1 1 2 2 2 2 1 0 2 5 1 0 2 3 3 3 2 3 3 4
3 5 5 7 8 8 7 2 -2 -6 -8 -5 -2 -2 1 0 -0 1 1 2 1 2 0 -0 0 -0 -1 2 1 3 1 1 2 2 1 1 4 2 3 1 2 3 3 2 2 2 3
3 5 6 7 8 8 6 -1 -3 -7 -8 -7 -4 -4 -4 -1 -1 1 1 1 1 1 1 1 0 -0 1 3 2 -0 -1 -1 -1 1 2 3 3 3 4 0 1 3 1 2 2 1 2
4 4 6 7 8 8 4 -2 -4 -8 -9 -7 -8 -7 -3 -3 -2 -1 -1 0 1 1 1 2 2 1 2 1 1 1 -1 -1 -1 -1 0 3 4 4 4 2 4 0 -3 -3 -0 0 0
4 4 6 8 7 8 1 -2 -5 -8 -9 -8 -9 -7 -5 -3 -3 -3 -2 -0 -2 -0 1 1 1 0 2 1 1 1 1 1 0 -1 -0 2 4 5 6 5 2 -2 -3 -2 -1 -1 -3
3 5 6 8 8 5 -0 -2 -6 -9 -9 -8 -9 -8 -5 -4 -4 -4 -3 -2 -1 -0 0 -0 0 1 3 3 2 2 3 0 2 2 -1 -1 -0 4 4 4 3 1 -2 -3 -3 0 -1
3 4 5 7 8 2 -1 -4 -8 -9 -9 -8 -8 -7 -5 -5 -5 -5 -5 -4 -6 -5 -1 -1 -0 2 2 2 3 4 2 -1 2 1 3 2 1 3 3 3 2 -2 -3 -3 0 2 -1
3 4 5 6 7 1 -2 -4 -8 -9 -9 -8 -8 -7 -6 -4 -4 -4 -4 -5 -5 -5 -3 -3 1 2 2 2 3 3 1 -0 -2 -2 0 1 3 2 2 4 4 -3 -3 -1 -0 -2 -2
5 5 5 6 4 -0 -2 -7 -8 -9 -9 -8 -8 -7 -8 -5 -3 -6 -6 -5 -5 -4 -4 -1 -0 0 1 3 2 2 1 -1 -1 0 -1 1 -0 2 -0 1 -3 -3 -2 -3 -2 -1 -0

GFSGBSN_850_dewp_081.txt.gz
Dewpoint
9 9 10 10 10 10 9 8 7 1 -1 -3 -5 -6 1 2 2 3 1 2 2 2 -5 0 -4 -4 -2 1 -1 -2 0 1 1 2 2 4 5 6 6 4 6 7 7 8 7 7 8
7 8 9 9 10 10 10 9 8 4 0 -3 -5 -6 -1 1 3 1 2 1 2 2 -4 -2 -3 -2 1 2 -3 -2 -2 1 2 3 2 3 5 5 4 3 5 6 6 7 7 8 8
6 6 8 8 9 9 10 9 9 7 4 -1 -4 -6 -3 1 2 -1 -1 2 2 0 -4 -2 -3 -1 2 1 -4 -1 -1 1 4 2 2 4 4 5 5 3 2 5 6 6 7 7 8
8 8 5 7 7 9 10 9 9 8 3 -1 -4 -5 -5 -2 -4 -9 -2 2 -4 -2 -5 -2 -1 1 3 -1 -0 -0 -0 2 1 3 4 4 4 4 5 4 4 6 6 8 6 8 8
9 9 9 4 6 8 9 10 9 8 3 -0 -3 -5 -5 -4 -7 -9 -1 -5 -5 -6 -2 -1 1 2 1 -1 -0 -2 -0 2 2 2 4 4 5 4 4 6 5 6 8 8 8 7 8
8 9 9 8 5 7 8 10 9 8 4 1 -3 -5 -5 -5 -8 -5 -2 -6 -5 -5 1 2 2 2 1 0 -1 1 -2 0 2 2 1 3 4 4 5 6 7 7 6 6 7 7 7
7 9 9 9 7 5 8 9 9 8 6 1 -3 -4 -5 -6 -8 -0 -4 -0 2 2 1 1 1 -1 1 -0 0 1 -1 -0 1 2 4 3 4 4 4 5 5 4 4 4 4 6 6
2 5 8 9 9 7 7 9 9 8 6 1 -3 -3 -5 -6 -4 -1 -5 1 0 1 1 1 1 1 0 -0 0 0 -0 0 0 3 3 3 5 4 3 4 5 5 3 3 3 6 5
-14 -7 3 8 9 9 7 8 9 8 7 0 -3 -3 -5 -7 -1 -1 -1 1 -0 -3 1 2 1 1 1 1 1 1 1 -1 1 2 2 3 4 3 4 5 6 6 4 3 4 6 7
-1 -14 -7 2 8 9 8 8 9 9 7 1 -3 -3 -5 -4 2 2 1 0 -4 -1 1 3 2 1 2 2 1 1 1 1 1 2 2 3 2 4 5 5 4 7 3 3 5 7 8
-0 -3 -9 -2 5 9 9 7 9 9 7 0 -3 -3 -6 -2 2 2 2 1 -5 1 4 2 2 1 3 2 0 1 1 0 1 2 1 1 5 5 5 4 3 6 4 3 4 6 5
-1 -0 -8 -2 3 7 8 8 8 9 7 -1 -3 -3 -6 0 2 2 1 -2 0 2 -0 4 2 4 2 2 3 2 3 2 1 2 3 4 3 4 5 3 4 4 4 6 6 6 7
-2 -7 -5 -6 0 6 7 8 8 9 6 -1 -2 -5 -3 2 2 2 0 2 3 2 2 3 3 2 3 3 4 3 3 3 4 4 5 6 5 5 5 5 4 5 5 8 8 7 6
-1 -1 -2 -4 -4 4 6 8 7 9 5 -2 -2 -6 0 3 3 1 1 3 3 1 2 1 3 3 2 2 4 4 4 3 3 4 5 5 6 5 4 5 5 6 5 4 6 6 3
-1 -0 -1 -0 -2 4 6 8 8 8 3 -2 -5 -1 2 2 1 1 2 1 2 2 2 3 3 4 3 3 3 5 5 3 4 4 4 5 6 5 5 3 3 5 6 -0 3 0 3
0 -0 0 1 -1 4 6 8 8 8 1 -3 -3 2 2 2 1 0 2 2 2 2 2 2 5 4 4 4 4 5 6 3 4 2 1 2 5 4 4 3 2 3 1 2 2 3 3
-0 -1 1 1 3 5 6 8 8 7 -1 -4 -0 3 3 2 1 1 2 1 2 0 1 2 4 4 1 3 3 4 4 3 2 2 -0 1 2 5 4 4 4 4 5 3 2 3 5
-1 -1 0 3 4 5 6 8 8 6 -2 -0 1 3 3 2 3 2 1 3 1 1 1 1 1 2 1 0 3 3 4 2 1 -0 2 4 3 6 5 4 3 4 4 3 3 4 2
-1 -0 2 3 4 4 6 8 7 4 -4 1 2 2 3 2 3 2 1 2 1 2 1 2 1 -0 1 2 3 3 3 2 0 0 1 1 3 5 5 3 2 5 4 4 3 2 2
-1 -1 1 3 4 5 6 8 7 3 -4 -2 2 2 2 2 2 3 3 2 3 1 -0 -1 -1 -1 -0 3 1 3 3 2 2 2 0 0 2 2 2 2 3 4 3 3 3 2 3
-1 -1 1 3 4 6 6 8 7 -0 -5 1 2 1 1 2 1 1 2 1 2 2 -0 -1 -1 -0 0 1 2 3 2 3 2 1 0 2 3 -1 1 2 3 3 3 3 3 3 4
-1 -2 1 3 4 5 6 7 4 -3 -5 1 1 1 1 0 0 1 2 2 2 1 0 -0 0 -0 -0 3 2 3 2 2 3 1 1 1 3 1 2 1 2 3 2 2 3 2 3
-1 -2 1 3 4 5 6 7 1 -4 -5 -1 -3 -2 -1 -0 0 1 1 1 1 1 1 2 1 0 3 2 2 0 -1 -1 -0 2 2 2 1 1 2 0 0 1 1 2 2 1 2
-1 -1 2 4 4 5 6 6 -1 -4 -5 -8 -6 -4 -3 -2 -1 0 -0 0 2 1 2 3 1 2 2 1 0 -0 -1 -1 -1 -1 1 3 4 3 3 1 3 -1 -4 -2 1 1 0
-2 0 3 4 4 6 6 6 -1 -2 -6 -9 -8 -6 -4 -3 -3 -2 -0 -0 0 1 2 2 1 1 2 1 1 1 1 1 0 -1 -0 3 3 5 4 2 1 -1 -3 -2 -3 -2 -3
-3 1 2 5 5 6 6 4 -1 -4 -7 -8 -8 -6 -4 -3 -4 -4 -2 -1 -0 -0 0 0 1 2 3 2 2 2 3 1 3 2 -1 0 2 3 4 3 4 -1 -2 -3 -4 2 -1
-1 1 2 5 6 5 6 1 -2 -6 -7 -8 -8 -6 -5 -5 -4 -4 -4 -3 -3 -2 -0 -1 1 1 1 1 2 2 1 -0 3 3 2 2 2 3 2 4 2 -2 -3 -3 -1 -1 -1
1 2 2 4 5 5 2 -2 -4 -6 -8 -8 -8 -5 -7 -4 -4 -4 -5 -5 -5 -3 -1 -1 0 1 1 1 2 2 2 0 -2 -0 1 1 1 2 2 3 3 -3 -3 -1 -1 -0 -0
2 3 3 4 4 4 1 -3 -6 -6 -7 -7 -8 -5 -7 -6 -4 -4 -4 -4 -4 -4 -2 -1 -1 0 1 -0 -0 1 1 -1 -1 -0 -2 1 -1 1 0 1 -3 -3 -2 -1 -1 -0 -0

GFSGBSN_850_dewp_084.txt.gz
Dewpoint
8 8 8 7 8 9 9 9 9 9 7 5 -0 -3 -5 -5 1 3 3 2 1 3 2 -3 -0 -3 -2 1 -1 -3 -1 1 1 1 3 4 4 4 5 5 5 7 7 7 8 8 8
9 8 8 7 7 7 8 9 9 9 9 6 1 -3 -4 -5 -2 2 2 1 0 2 1 -4 -1 -2 1 2 -3 -3 -0 0 1 3 2 3 3 3 5 4 4 5 8 7 8 9 8
8 8 8 8 8 7 6 7 9 9 9 7 1 -2 -4 -5 -5 -4 -3 1 2 -3 -1 -3 -1 -0 2 -1 -1 -1 0 2 4 2 2 2 3 5 5 4 3 5 7 8 7 7 8
5 6 8 8 9 8 7 7 8 9 9 7 2 -2 -4 -4 -5 -6 -6 0 -5 -4 -6 -3 -1 2 1 -1 -1 -1 -1 2 3 2 1 2 4 5 5 4 4 5 7 9 8 8 9
-0 3 5 7 8 9 9 8 6 8 9 8 2 -2 -4 -4 -6 -8 -3 -4 -6 -6 -0 -1 1 1 1 -1 -0 -2 -0 1 2 3 4 4 4 4 5 5 6 6 8 7 8 6 8
1 1 -1 2 4 7 9 9 7 7 9 8 4 -1 -4 -4 -6 -7 -2 -6 -5 -5 1 2 2 2 0 0 -1 -0 -1 1 2 2 2 3 4 5 5 6 6 7 7 6 7 8 7
1 1 -8 -18 -10 -2 5 9 9 6 9 8 5 -2 -3 -5 -7 -4 -3 -1 2 2 1 1 1 0 0 -1 -0 -1 -1 -0 1 2 3 2 5 6 5 5 5 5 6 6 6 6 6
0 0 1 -3 -20 -24 -6 7 8 8 8 8 6 -3 -3 -5 -7 -2 -4 1 0 -0 1 1 1 1 1 0 1 -0 0 0 1 3 2 3 5 4 4 5 5 5 4 6 5 6 6
-11 -1 0 0 0 -20 -16 -2 7 8 8 8 7 -3 -3 -5 -3 -1 -2 -0 -0 -3 1 2 1 1 0 1 1 -1 1 0 1 1 2 4 4 3 4 5 6 6 6 5 7 7 6
-8 -12 -19 -14 -1 -4 -17 -3 3 7 8 8 7 -1 -3 -6 -2 1 1 -0 -2 -4 -1 2 2 1 1 1 0 0 1 1 0 2 2 4 3 4 4 5 5 6 4 4 6 7 9
-6 -8 -8 -15 -18 -0 -12 -10 -2 6 8 8 7 -1 -2 -6 1 1 1 1 -5 0 -0 1 2 1 2 3 -0 0 1 1 1 2 2 2 5 5 4 4 3 6 4 4 6 7 6
-1 -1 -1 -3 -12 -8 -3 -11 -6 5 7 8 7 -2 -2 -5 1 1 2 -1 -1 2 -0 3 2 3 2 3 3 2 2 1 1 2 3 5 3 4 4 3 3 5 5 5 6 7 8
0 -1 -1 -2 -4 -11 -2 -7 -5 5 6 8 5 -1 -2 -1 1 1 -0 -0 2 2 1 2 4 3 2 3 4 3 3 2 3 1 4 5 5 4 5 5 5 6 5 7 8 8 6
-0 -1 -1 -0 -0 -1 -1 -1 -1 3 6 7 4 -2 -3 1 2 1 0 1 3 0 2 1 2 2 3 3 3 3 3 4 3 4 6 4 5 6 5 6 6 6 4 5 7 7 4
-0 -0 -0 -1 -1 -0 -0 1 -2 2 5 6 1 -1 -1 2 2 1 2 1 0 1 1 3 3 4 3 2 3 4 4 3 4 4 6 6 7 4 5 4 3 5 5 0 2 1 3
-0 -1 -1 -0 -0 -1 -1 -1 -3 3 4 5 -1 2 2 2 1 1 1 1 1 1 2 2 3 3 4 4 4 4 5 3 3 3 2 3 7 5 4 3 2 3 2 2 2 3 3
0 -1 -1 0 -0 -0 1 1 -1 4 4 2 -1 1 2 1 0 1 2 0 1 0 1 2 4 5 2 4 4 4 4 2 2 2 -0 1 3 4 3 4 4 3 4 3 1 3 3
-1 -1 -1 -1 -1 -0 2 1 4 4 5 1 1 3 3 1 2 2 2 0 2 1 1 1 1 1 -0 1 3 4 4 2 1 -0 2 3 3 4 5 3 3 3 4 2 2 2 1
-1 -1 -1 -1 -0 1 3 3 4 4 4 -0 3 2 3 2 2 2 -0 2 2 2 1 2 2 0 1 1 3 3 3 2 0 1 1 2 2 5 5 2 1 4 3 3 2 1 1
-1 -1 -1 -1 1 1 3 3 4 5 3 -0 1 2 2 2 2 1 2 3 3 1 1 -0 -1 -1 1 3 1 3 3 2 1 1 0 1 2 1 2 1 2 4 3 4 2 2 3
-1 -1 -1 -0 -0 1 4 3 4 6 1 -0 1 1 2 2 2 2 2 2 3 2 -0 -1 -1 -0 0 3 2 3 3 3 2 1 0 1 2 -2 1 3 3 3 3 3 3 3 3
-1 -1 -1 -1 -0 2 4 3 4 5 1 -1 1 1 1 0 0 0 2 2 2 1 0 0 0 -0 0 2 2 3 3 3 2 1 1 1 2 1 2 1 2 2 2 2 2 2 3
-2 -1 -1 -1 1 2 4 4 4 3 1 -0 -1 1 -1 0 0 1 2 1 1 1 2 0 -1 2 2 2 1 0 -1 -1 1 2 2 2 1 1 2 0 0 2 0 1 2 2 2
-2 -1 -1 -0 1 3 4 4 4 2 2 -1 -3 -0 -2 1 1 1 1 1 1 1 2 2 1 2 2 0 0 -1 -1 -1 -0 -0 1 2 3 2 2 0 3 -1 -4 -2 1 0 0
-2 -1 -2 -0 2 4 3 4 4 1 1 -4 -4 -5 -5 -1 -2 -0 1 1 1 2 2 1 1 1 1 0 0 1 1 1 0 -0 0 2 3 4 3 2 0 0 -3 -3 -2 0 -0
-1 -2 -4 1 3 4 3 4 3 0 -1 -5 -5 -5 -5 -3 -4 -3 -1 0 0 1 -0 -0 2 2 2 1 1 2 3 2 3 2 -1 1 1 2 5 3 4 -2 -2 -3 -5 1 0
-1 -7 0 1 4 5 5 4 3 0 -1 -4 -5 -5 -5 -4 -4 -3 -2 -2 -0 -0 -1 -0 1 1 1 1 2 1 1 -0 3 2 2 2 2 4 3 4 1 -2 -3 -3 -1 -2 -1
-7 -3 2 1 4 3 4 3 2 -0 -3 -4 -6 -5 -7 -4 -3 -4 -4 -4 -3 -1 -1 -1 -0 0 0 0 1 1 1 0 -0 -0 1 2 1 2 2 4 2 -3 -3 -2 -3 -0 -0
-7 2 3 3 4 4 3 3 1 -2 -4 -5 -6 -5 -7 -5 -3 -4 -4 -4 -3 -3 -0 -0 -1 -0 -0 -1 -1 0 1 -1 -2 2 -2 0 -1 0 0 1 -3 -2 -2 -2 -2 -1 -0

GFSGBSN_850_dewp_087.txt.gz
Dewpoint
8 8 8 9 8 8 8 8 7 8 8 9 8 6 -1 -3 -4 -1 -3 -6 -4 0 3 2 -2 1 -2 1 -1 -4 -2 1 1 1 3 3 3 2 4 4 4 6 3 7 8 8 8
5 5 5 5 8 8 8 8 8 8 8 9 8 6 -0 -3 -4 -3 -5 -10 -3 1 3 1 -2 0 -1 2 -2 -2 -1 1 2 2 2 3 3 3 4 4 4 5 5 6 7 8 8
-1 -0 -1 -2 2 6 8 8 9 8 7 8 9 7 2 -2 -4 -5 -6 -8 -1 3 -1 1 -1 0 3 0 -1 -1 -0 0 3 3 1 2 3 3 5 4 4 3 6 6 8 7 8
-0 -1 2 2 2 2 5 8 8 9 9 7 8 7 4 -2 -4 -3 -7 -4 -4 -5 -3 -4 -2 1 1 -0 -1 -1 -3 1 3 2 1 1 2 3 5 4 4 5 6 6 8 8 7
1 1 1 1 2 1 -0 1 4 8 9 9 8 7 6 -2 -4 -4 -7 -2 -7 -5 -3 -1 0 1 1 -0 -0 -2 -0 0 3 3 2 3 3 4 5 5 5 5 7 7 8 6 7
1 1 1 1 -0 0 0 -1 -11 -2 8 8 7 7 6 -1 -4 -5 -2 -5 -6 -5 -0 1 1 2 0 -0 -1 -1 -1 0 2 2 1 3 5 3 5 5 5 6 7 7 7 8 7
1 1 1 1 0 0 -4 -3 -2 -16 6 7 8 7 7 0 -4 -6 -0 -2 1 2 1 0 0 1 0 -2 -1 -2 -1 -0 2 2 3 2 5 5 5 5 4 3 6 7 7 7 7
-0 -5 -5 -1 1 -0 0 -1 -13 -17 -17 6 7 8 7 0 -4 -2 -1 -2 -1 -0 -2 1 1 1 1 -0 -0 -3 0 0 1 3 2 1 5 4 4 5 5 4 5 6 6 6 6
-3 -3 -6 -8 -5 -0 1 -1 -3 -16 -19 1 6 7 6 0 -3 -1 -2 -1 -1 -4 -0 1 2 1 0 0 0 -2 0 0 1 2 2 4 4 3 5 5 5 5 6 6 7 7 6
-4 -5 -5 -7 -9 -10 -8 1 -0 -10 -11 -12 5 6 6 -1 -1 1 -1 -1 -2 -5 -2 0 2 1 1 1 -0 -1 1 1 -0 2 2 4 3 5 5 6 5 6 4 5 7 7 9
1 0 -2 -7 -8 -11 -11 -8 -0 -3 -8 -11 3 5 5 -0 2 1 0 -1 -6 -0 -1 -1 2 1 2 1 -1 -2 1 1 1 2 2 4 4 5 4 5 5 7 5 5 6 7 8
0 0 -0 1 0 -2 -11 -11 -3 -2 -8 -7 1 4 3 0 1 1 2 -3 -1 1 0 2 2 2 3 3 3 2 2 1 1 2 3 4 3 4 4 4 4 5 6 6 7 8 8
-0 -0 0 1 1 -1 -1 -6 -3 -1 -7 -2 3 4 2 -0 1 1 0 -1 1 3 -0 1 3 3 2 5 3 2 2 2 2 3 6 5 5 4 5 5 5 6 5 7 8 8 7
-0 -1 0 -0 0 -1 -1 -1 -0 0 -2 0 2 4 2 1 2 1 -1 -1 2 -1 2 -0 2 2 3 4 3 3 2 3 3 4 5 5 4 6 5 5 6 6 3 5 8 8 4
0 1 1 -1 -0 0 -1 -2 1 0 -3 -0 2 3 1 3 2 -0 0 0 -1 -1 -0 3 2 3 4 3 3 3 3 3 3 4 4 5 6 4 6 4 5 5 3 1 2 1 3
0 1 -1 0 -1 -1 -1 1 -1 0 -4 1 3 2 3 2 3 1 -0 1 -0 0 1 1 2 2 3 4 4 3 4 2 3 3 2 4 6 4 5 3 3 4 2 3 3 3 2
1 0 -1 -3 -2 -2 -1 -0 -0 -0 -0 1 2 2 2 3 2 2 0 -1 -0 1 1 2 3 4 2 4 4 3 3 2 2 3 1 2 2 5 2 4 4 3 3 2 1 2 2
2 0 -0 -2 -1 -1 -1 -0 -0 0 1 1 2 2 3 2 2 1 1 -1 1 1 1 1 2 3 1 2 3 5 3 3 1 0 3 2 2 5 4 3 3 3 3 1 2 2 1
2 0 -1 -2 -2 -2 -1 0 0 3 1 2 2 2 2 2 2 2 -1 1 1 2 1 2 1 1 1 1 4 3 3 2 1 1 2 1 2 1 1 1 1 4 3 2 1 1 1
1 0 -1 -1 -2 -1 -0 0 2 3 3 2 2 2 2 2 2 -0 1 2 2 1 1 1 0 -1 2 2 2 3 4 3 1 1 1 0 1 1 1 0 2 4 4 3 1 1 2
-1 -1 -1 -1 -1 -1 0 1 3 2 2 2 1 2 1 2 2 1 1 2 1 2 -0 -1 -0 -0 2 3 3 3 3 3 2 1 1 -0 1 -2 1 3 2 3 2 3 2 2 2
-1 -1 -2 -1 -1 0 1 3 3 4 2 2 1 1 1 0 1 1 2 2 2 1 -0 0 0 -0 -0 2 2 3 3 2 2 1 1 0 2 0 2 1 1 2 1 2 3 3 3
-1 -2 -1 -1 -1 0 2 3 3 3 2 2 1 1 -1 0 0 0 2 2 2 1 2 -0 -0 1 1 1 -0 -0 -0 1 1 1 1 1 1 0 2 0 -0 1 0 1 1 1 2
-3 -1 -2 -0 0 1 2 2 4 2 3 2 1 -1 -0 1 0 0 1 1 1 1 2 1 1 1 1 0 -0 -1 -1 -0 -0 0 0 1 2 1 1 -0 2 -1 -3 -2 0 -0 0
-2 -1 -1 0 1 2 4 2 3 3 3 2 1 -3 -2 -0 -1 -0 1 1 1 1 1 0 1 1 0 -1 0 1 1 0 0 -0 1 1 2 3 3 1 -0 -0 -3 -3 -1 1 0
-4 -1 -1 -3 1 3 3 3 3 3 2 -0 -3 -4 -3 -2 -3 -2 0 1 0 0 -0 1 2 2 1 0 0 2 3 1 3 2 -0 1 0 2 4 3 3 -2 -2 -3 -5 -0 0
-7 -9 -6 1 2 4 3 3 3 3 2 -3 -4 -5 -5 -4 -3 -3 -1 -0 0 -1 -0 0 2 2 0 0 1 1 1 -0 3 2 2 4 4 4 4 4 1 -2 -3 -4 -1 -2 -1
-11 -7 2 2 3 3 4 4 3 2 -1 -3 -4 -5 -6 -3 -3 -3 -4 -3 -1 -0 0 0 0 0 -1 0 0 1 0 0 0 -0 1 2 2 2 3 5 2 -3 -3 -2 -4 -1 -0
-14 -0 2 2 3 3 4 3 3 2 -3 -3 -5 -6 -5 -4 -3 -3 -3 -2 -2 -1 -0 0 -1 -0 -1 -1 -1 -0 1 -1 -1 1 -2 1 -1 0 0 0 -3 -2 -2 -2 -1 -0 -0

GFSGBSN_850_dewp_090.txt.gz
Dewpoint
3 3 3 2 3 4 4 7 8 8 9 8 8 8 8 7 2 -2 -3 2 3 3 1 3 1 -0 1 -2 -3 -4 -3 -2 0 1 1 1 4 3 2 3 3 4 3 4 4 4 7
2 3 2 2 2 2 3 3 6 8 8 8 8 8 8 7 3 -0 -3 -2 0 3 3 2 1 1 1 1 -3 -2 -1 -0 -0 2 3 2 3 2 2 2 4 3 3 3 5 4 5
2 1 2 1 1 2 2 3 3 6 7 8 8 9 7 7 5 -0 -2 -2 -5 3 3 -2 1 1 1 -0 -1 -1 -0 -0 2 4 3 2 2 3 1 3 2 2 5 4 4 5 8
2 2 2 2 2 1 1 1 1 -4 2 5 7 8 8 7 6 0 -3 -5 -3 2 1 -2 1 1 0 -1 -1 -1 0 1 3 1 1 1 2 3 3 4 5 4 5 7 5 3 5
2 2 2 2 2 2 1 1 0 -7 -16 -7 5 7 8 7 6 1 -2 -3 -1 1 -0 1 1 2 1 -1 -1 -2 0 0 2 2 1 2 3 2 2 5 5 5 6 6 6 4 7
2 2 2 2 2 2 2 1 1 0 -15 -23 -13 6 7 7 6 2 -3 -0 -3 -3 -1 1 2 2 -1 -1 -1 -1 -1 0 2 2 1 2 3 3 4 4 5 6 6 6 7 7 6
2 2 2 2 2 1 1 1 1 -0 -9 -19 -19 4 6 6 5 0 -3 -1 1 2 1 1 -0 1 0 -0 -2 -2 -0 -1 1 3 3 3 3 5 4 4 3 5 5 6 6 6 6
2 2 2 2 2 2 1 1 1 1 -1 -14 -16 -3 5 5 5 1 -1 -0 0 0 -1 0 1 1 1 -0 1 -2 -1 -1 0 2 2 2 5 4 5 5 4 5 6 7 7 6 6
2 1 1 1 1 1 2 1 1 1 0 -8 -16 -10 5 5 4 -0 -0 -1 -0 -2 -2 1 1 1 -0 -0 0 -0 0 -0 0 1 2 2 3 3 5 5 5 5 5 6 6 6 6
-1 -1 -2 -3 -2 -0 1 1 1 0 1 -4 -12 -11 5 4 3 0 -0 -0 -0 -3 -2 0 2 1 1 1 -1 -0 1 1 -1 2 2 3 3 4 5 5 5 6 5 5 7 6 8
1 0 0 0 0 -1 -2 -2 1 0 -0 -2 -9 -10 3 4 2 2 1 -0 -2 0 -3 -1 2 1 2 1 -2 -2 1 1 1 1 2 4 4 4 5 5 5 6 5 6 6 7 7
0 1 1 1 1 1 0 -0 -0 -2 0 -2 -2 -8 2 3 2 2 2 -0 -1 -2 -3 3 2 2 3 2 3 1 1 1 1 2 3 4 3 4 5 5 5 5 6 6 7 7 7
0 0 0 0 1 0 1 -2 -0 -0 -3 -2 -1 -2 1 3 2 1 2 -2 -0 -1 -2 2 2 2 2 3 2 2 2 1 1 4 6 4 4 4 5 5 4 5 7 8 8 8 7
0 0 -0 0 1 2 -1 -2 -2 -0 -2 -1 -3 -2 -1 3 2 2 2 -0 -1 -2 1 -1 2 3 3 2 2 3 2 2 2 3 3 2 1 4 4 5 5 6 4 7 7 7 6
1 0 -0 2 1 -1 -3 -3 -3 -2 -0 -1 -1 -1 3 3 2 3 1 2 -1 -0 -0 3 1 3 3 3 3 3 3 2 2 3 4 4 5 4 4 5 6 5 4 1 2 1 4
1 0 0 1 0 -0 -4 -4 -2 -1 -0 -0 0 1 3 2 2 2 2 1 -1 -2 1 0 1 2 3 3 3 3 3 1 3 3 2 3 6 5 4 4 3 4 1 3 3 5 3
-0 0 -0 1 -0 -2 -2 -2 -1 -0 1 1 0 1 2 1 2 2 3 -0 -1 -1 1 1 1 3 2 3 3 2 2 2 2 3 2 2 2 5 2 4 4 3 3 2 2 2 3
0 0 -0 1 -1 -2 -2 -2 -2 -1 -0 -0 0 2 2 2 2 2 2 -1 -1 1 1 1 1 2 2 2 4 4 3 2 1 1 3 1 2 4 5 3 3 3 3 1 2 2 0
0 0 0 0 -1 -2 -2 -1 -1 -1 -0 -0 1 2 3 2 2 2 -0 -0 0 2 2 2 2 1 -1 1 4 3 3 2 1 1 3 1 1 4 3 1 1 4 3 1 0 0 1
1 1 0 -1 -2 -2 -1 -1 -0 0 1 1 1 2 2 2 2 1 1 1 3 1 1 1 0 -0 2 2 2 3 4 2 1 1 1 -0 0 -0 1 1 2 4 4 2 1 1 2
-1 -1 -2 -1 -2 -1 -2 -0 0 2 3 0 2 2 2 2 2 0 -0 1 2 2 0 -1 -0 -0 2 3 3 4 3 2 1 1 1 -1 1 -2 1 3 2 2 3 3 1 1 1
-2 -3 -3 -1 -1 -2 -0 1 3 3 1 1 2 2 2 1 0 1 0 2 1 1 1 0 0 -0 -0 2 2 3 3 2 2 0 1 -0 1 -0 1 0 0 2 2 2 3 3 2
-2 -3 -1 -1 -1 -0 0 2 3 1 2 3 1 2 1 2 1 1 1 1 0 1 1 -1 -1 1 1 1 -0 0 0 1 0 1 1 1 0 -0 1 -0 -0 0 -0 1 1 1 2
-2 -2 -1 -5 -1 0 1 3 3 3 2 2 1 0 -1 1 -0 -1 1 1 1 0 2 1 0 0 1 -1 -1 -1 -0 -1 0 1 -0 1 1 1 1 -1 1 -2 -3 -2 0 -0 -0
-2 -2 -5 -2 1 2 3 2 3 3 2 2 1 -1 -1 0 -1 -1 0 1 1 1 0 0 1 1 0 -1 -0 1 0 0 0 0 1 0 1 2 2 1 -1 -1 -2 -3 -1 -1 -0
-1 -1 -6 1 2 3 3 3 3 3 2 2 -0 -2 -2 -2 -2 -2 0 1 0 -0 0 2 2 1 0 -1 -0 2 2 1 2 1 0 0 -0 1 1 3 2 -3 -2 -3 -5 -1 0
-6 -13 -3 2 2 3 3 3 3 3 2 2 -3 -5 -4 -3 -3 -2 -1 0 -0 -1 -0 1 2 1 -0 -0 1 1 1 -0 2 2 2 4 4 2 2 2 1 -3 -3 -4 -1 -2 -0
-13 -2 2 2 3 3 3 3 3 3 2 0 -4 -6 -4 -3 -3 -3 -3 -1 -1 -0 0 0 0 0 -1 0 0 0 -0 -0 0 -0 1 2 2 2 3 2 2 -3 -3 -3 -4 -1 -0
-9 3 3 2 2 3 3 3 3 2 2 -3 -5 -4 -2 -2 -3 -2 -2 -2 -1 -1 0 0 -1 -1 -1 -1 -2 -1 1 -2 -2 1 -2 1 -0 1 0 0 -3 -2 -2 -2 -1 -1 -0

GFSGBSN_850_dewp_093.txt.gz
Dewpoint
2 2 1 1 1 1 2 2 2 2 2 5 7 7 8 9 7 7 4 -0 -1 -2 1 1 4 2 1 -0 -4 -4 -2 -1 -1 -0 0 1 2 3 3 1 0 1 -0 1 2 3 4
2 3 2 2 2 2 2 1 1 1 2 3 6 7 7 8 8 7 4 -1 -1 -2 2 3 2 3 3 1 -3 -2 -1 -2 -1 1 2 2 2 3 2 1 1 2 1 2 3 2 4
2 2 3 2 2 2 2 2 1 1 0 -8 -6 3 6 7 8 7 5 0 -2 -4 2 3 -0 3 3 -1 -1 -1 -1 -1 0 3 3 3 2 3 2 1 2 0 3 4 3 3 4
2 2 2 2 2 1 1 2 2 1 0 -4 -18 -15 3 7 8 7 5 -0 -2 -2 1 1 0 3 2 -2 -1 -1 -3 0 1 1 1 2 2 3 2 2 3 4 4 5 4 4 4
2 2 1 1 1 1 1 1 2 2 1 -1 -12 -19 -4 7 7 6 5 1 -3 -1 -0 -0 3 2 1 -1 -2 -3 -2 -0 1 2 2 2 2 2 2 2 3 5 5 5 6 4 5
1 1 1 1 1 1 1 1 2 2 1 1 -9 -18 -10 6 6 6 4 -2 0 -1 -2 1 3 2 -0 -1 -2 -3 -1 0 1 2 2 3 2 3 2 3 6 5 4 4 5 6 4
1 1 1 2 2 1 1 1 1 1 1 1 -6 -16 -13 5 6 5 2 0 0 1 -1 1 1 2 0 0 -2 -3 -0 1 1 3 3 2 3 3 4 3 4 4 5 5 6 6 5
1 2 2 2 1 2 0 0 -0 1 1 0 -4 -10 -15 4 5 5 3 1 2 1 0 -1 1 1 1 -0 -2 -3 -0 -0 -0 2 2 3 5 4 2 3 5 5 5 6 6 5 4
2 2 2 1 1 1 1 0 2 2 2 0 -3 -8 -13 4 5 4 2 1 1 0 -1 -0 1 1 0 -0 -1 -2 0 0 0 1 2 2 3 3 4 5 5 5 5 6 6 6 4
1 1 1 1 1 1 -1 1 1 1 1 1 -1 -7 -3 4 4 3 1 2 2 -0 0 0 3 1 1 1 -2 -1 1 1 -2 1 2 2 3 4 4 5 5 6 5 4 6 6 7
1 0 0 0 1 1 2 2 1 0 1 1 -1 -4 -1 1 3 2 2 1 2 1 3 -0 1 1 1 -1 -3 -3 1 1 1 1 1 5 4 5 4 6 5 6 5 5 6 7 7
-0 0 0 1 1 1 1 1 -0 2 -1 1 -1 -2 -2 1 3 3 2 2 -1 2 3 3 2 2 3 2 3 0 1 1 1 2 3 4 2 4 5 4 5 5 5 6 6 6 7
-0 0 0 1 1 0 1 0 -0 -0 -2 -1 -1 -2 -2 0 2 2 2 0 2 3 -1 3 2 2 2 2 3 2 2 0 1 3 5 3 4 3 5 5 5 5 7 8 7 6 7
-1 -0 -1 -0 0 1 2 0 -1 -2 -3 -2 -1 -1 -3 -3 1 2 2 2 3 0 1 -0 2 2 3 1 2 2 1 1 1 3 3 1 1 4 4 5 6 6 5 6 7 7 8
-1 -0 -0 1 1 1 -0 0 -3 -4 -3 -0 -1 -0 1 -1 2 2 1 3 3 1 0 2 1 2 2 4 3 3 2 2 1 3 3 4 6 4 4 5 5 6 4 1 2 2 6
-2 -2 -1 0 1 1 -2 -2 -3 -2 -0 1 -0 -1 0 3 2 2 2 3 2 -2 0 -0 1 1 3 3 2 3 2 1 3 2 2 3 5 5 5 4 3 3 1 3 3 4 4
-1 -1 -1 0 1 1 -1 -2 -3 -2 -1 0 -0 0 1 2 2 1 2 2 0 -2 1 -0 2 2 2 3 2 2 2 1 2 3 2 2 3 6 3 5 5 3 3 2 2 2 3
-1 -0 -1 0 1 0 -1 -2 -3 -1 -1 -0 -0 1 1 1 2 1 2 1 -1 1 1 1 1 1 2 2 3 3 3 2 1 1 2 1 2 6 5 2 2 3 3 -0 3 3 0
-0 -1 -1 -1 -0 -1 -3 -2 -2 -1 -0 -0 0 0 1 1 2 3 2 1 0 1 1 1 2 1 -0 2 4 3 2 2 1 1 2 0 1 4 2 1 1 3 3 0 -0 0 2
-1 -1 -4 -3 -2 -3 -2 -2 -1 -1 -0 -0 1 1 2 2 2 1 3 2 0 1 1 1 1 0 1 2 2 3 3 2 1 2 1 -1 -0 -0 1 0 2 4 4 1 0 1 2
-1 -3 -4 -2 -0 -2 -2 -0 0 0 1 0 0 1 2 2 2 2 1 0 1 3 1 -1 -0 1 1 3 3 4 3 2 1 1 0 -1 1 -2 1 1 2 2 3 3 1 0 1
-2 -1 -2 -2 -2 -2 -1 1 2 3 1 1 2 2 2 1 2 2 2 1 2 1 1 0 1 0 0 2 1 3 3 2 2 -0 1 -1 1 -0 1 -0 -0 1 2 2 3 2 2
-1 -1 -2 -2 -1 1 1 2 2 1 0 1 2 1 -0 2 2 2 0 1 1 0 1 -1 -1 0 1 0 0 1 1 0 0 0 1 0 0 -0 1 -0 -1 0 -0 1 2 1 1
-4 -4 -1 -0 1 2 2 3 2 1 1 0 1 -0 -0 2 2 1 -0 1 -1 0 1 0 -0 0 0 0 -0 -0 -0 -0 0 0 -0 0 0 0 1 -1 0 -2 -3 -2 -0 -0 -0
-14 -14 -9 1 2 2 3 2 2 1 2 1 1 -1 -1 0 -0 -1 0 1 1 0 0 0 1 1 -1 -1 0 1 1 1 0 0 0 -1 0 2 2 1 -2 -2 -2 -2 -1 -1 0
-16 -9 2 2 3 3 3 2 2 2 2 1 1 -1 -1 -1 -1 -2 0 1 0 -0 0 2 2 1 -0 -1 -0 2 3 1 2 2 -0 -0 -1 0 1 2 1 -3 -3 -3 -5 -2 -0
-14 1 3 3 3 2 3 2 3 2 2 0 -5 -4 -3 -2 -2 -1 -0 0 -0 -1 -0 1 1 1 -1 -1 1 1 1 -1 2 2 4 3 3 1 1 1 -0 -3 -3 -4 -2 -3 -0
-11 3 3 3 3 3 3 3 3 2 2 2 -4 -6 -3 -2 -2 -2 -2 -1 -0 -0 0 1 0 0 -1 1 -0 -0 -1 -0 -0 -1 0 1 2 2 2 1 1 -3 -3 -3 -4 -2 -0
-5 3 3 4 4 3 3 3 3 2 1 -0 -5 -3 -2 -2 -2 -2 -2 -1 -1 -1 1 0 -1 -1 -1 -1 -2 -1 0 -2 -2 1 -2 1 -1 1 -0 -1 -4 -3 -3 -3 -2 -1 -1

GFSGBSN_850_dewp_096.txt.gz
Dewpoint
2 3 2 2 2 3 3 3 2 1 2 2 3 4 6 7 7 8 8 7 2 -1 1 -1 1 4 2 1 0 -4 -3 -2 -2 -1 1 2 2 2 2 0 -1 -2 -3 -5 -4 -4 -2
2 2 2 1 1 1 2 2 2 2 2 1 2 0 -1 5 7 7 8 7 3 -0 -2 0 2 3 2 2 -2 -3 -2 -2 -2 1 2 2 2 1 1 2 1 -4 -4 -4 -4 -4 -1
2 2 2 2 2 1 1 1 1 1 2 2 1 -1 -15 -7 4 7 7 6 4 -1 -2 1 3 1 3 2 -2 -1 -1 -2 0 2 3 3 3 2 3 1 1 -1 -1 -1 -1 -2 1
2 2 2 2 1 1 0 1 1 0 1 2 1 -4 -15 -12 5 7 7 5 2 -0 0 2 0 1 3 -1 -2 -1 -1 -2 0 2 1 2 3 3 3 1 -1 1 3 4 -0 -1 0
2 2 1 1 1 0 1 0 1 1 -0 0 -1 -6 -14 -15 4 6 6 5 1 -0 3 1 0 3 2 -0 -1 -3 -4 1 2 2 2 2 2 3 2 1 0 0 6 6 4 1 3
0 1 1 1 -0 -0 -0 1 -0 0 0 0 -2 -4 -10 -15 2 5 5 3 1 2 1 0 3 2 0 -0 -2 -3 -2 0 2 3 2 3 3 3 2 2 2 5 4 2 3 4 3
1 1 1 1 1 1 0 0 0 0 -0 1 -1 -3 -8 -15 1 5 5 2 1 2 -1 -0 1 2 1 0 -1 -3 -0 1 2 3 4 2 4 4 2 1 -1 3 4 4 6 4 4
1 -0 2 1 1 0 1 0 0 1 0 0 1 0 -7 -10 1 4 5 2 2 2 1 -0 1 2 0 1 -0 -2 0 1 0 2 2 3 4 2 3 3 3 4 3 5 6 5 4
-0 0 1 1 0 -0 -0 0 2 2 1 0 1 1 -6 1 4 3 3 2 2 1 -0 -1 -1 1 2 0 -0 -2 1 1 -1 2 2 3 1 2 4 4 5 4 1 5 6 5 4
-1 0 1 0 0 0 1 -0 -0 0 0 1 1 1 -7 0 3 3 2 2 2 -0 2 1 2 2 1 1 -1 -1 1 1 -1 2 1 2 1 4 4 3 4 3 1 3 5 5 6
-0 -1 1 0 0 0 -0 1 1 1 0 -0 1 1 -5 0 1 2 2 2 2 -0 6 1 2 2 2 0 -3 -2 0 2 -1 1 2 3 4 6 4 5 5 4 3 4 4 5 4
-1 -0 0 0 1 0 1 0 1 0 0 1 0 -0 -4 -1 1 2 2 2 -0 4 5 4 2 2 2 1 2 -0 1 1 1 2 4 4 2 4 4 4 5 5 4 4 5 5 6
-1 -1 -0 0 0 -0 0 1 0 -1 -1 0 -0 -2 -3 -4 1 2 2 1 4 5 -1 4 2 2 2 2 1 1 1 0 2 6 6 3 5 3 4 6 6 5 5 7 6 8 7
-5 -1 -0 -1 -0 -0 1 0 0 -2 -3 -1 -2 -2 -1 -1 -1 2 1 2 5 1 1 1 1 2 3 -0 1 1 0 -1 1 3 3 4 5 5 3 6 6 5 5 6 5 6 7
-2 -1 -0 -1 0 0 1 -0 -3 -4 -3 -2 -1 -1 -1 -2 -4 1 2 4 4 3 1 2 2 3 3 1 1 1 1 1 1 3 4 4 6 4 4 5 5 5 4 0 4 3 5
-1 -0 0 -1 -1 1 -1 -1 -3 -1 -1 -0 -1 -2 -2 -1 -3 2 2 2 3 -1 -0 0 1 1 2 0 1 1 1 1 3 1 2 3 7 5 5 3 3 4 1 4 4 5 6
-1 0 1 -4 -1 -0 -1 -2 -2 -2 -0 -1 -1 1 -1 2 1 1 3 3 2 0 -0 -0 1 2 1 2 1 2 2 2 3 3 2 2 3 6 4 5 5 3 2 1 1 2 2
1 -1 -2 -4 -2 -1 -2 -2 -2 -2 -1 -1 0 1 0 1 1 1 3 2 1 0 -0 1 0 1 0 2 1 2 2 3 2 1 3 1 3 6 5 2 2 3 2 -0 3 2 1
-0 -0 -3 -2 -2 -2 -2 -1 -2 -1 -1 -1 0 1 1 1 3 3 2 2 1 1 1 2 2 1 0 2 3 3 3 2 1 1 2 0 3 6 4 2 1 3 2 1 -0 2 4
-1 -1 -0 -1 -2 -2 -2 -2 -2 0 -0 -1 0 0 1 1 2 1 3 3 2 0 1 1 1 -0 1 3 2 4 3 2 1 2 1 -1 1 2 3 3 3 5 3 2 2 5 0
-0 -1 -0 -1 0 1 0 0 0 0 0 -0 0 0 1 3 2 2 2 3 0 2 1 -0 0 1 1 3 3 4 3 2 1 1 0 -0 5 2 1 1 2 2 3 2 4 1 2
-1 -1 -2 -1 1 1 2 3 2 2 1 0 0 2 2 2 2 2 2 3 0 1 2 1 1 1 0 1 1 3 2 2 2 0 1 -0 4 1 2 -0 0 2 2 3 2 1 1
-1 -7 -7 -0 1 2 2 2 1 0 1 1 1 1 1 2 2 2 1 -0 -0 1 0 -0 -0 0 1 1 0 1 1 0 0 0 1 1 2 3 4 0 -0 1 0 1 2 2 1
-15 -15 1 2 2 2 1 2 1 1 1 -1 -0 -0 1 3 2 0 -1 -1 0 0 1 0 0 0 0 0 -0 -0 0 0 0 1 -1 1 2 2 4 0 3 -1 -3 -2 -0 -0 0
-18 -2 2 3 2 2 1 1 1 1 1 -1 -0 -0 -0 1 1 0 -0 -1 0 0 1 1 2 1 -1 -1 1 2 2 1 1 1 0 -1 0 3 3 2 -1 -1 -1 -1 -1 -0 0
-14 2 3 2 2 2 1 1 0 1 1 1 -0 -1 -2 -1 -1 -2 -0 1 1 1 2 2 1 -0 -1 -1 -0 3 2 2 3 3 0 -1 -1 0 2 3 1 -2 -3 -3 -4 -2 -0
-8 3 4 2 2 2 2 2 1 1 1 -1 -2 -2 -3 -2 -2 -1 0 0 -0 0 2 2 1 1 -1 -0 1 1 1 -1 3 3 3 1 1 2 1 2 -1 -3 -3 -4 -1 -2 0
-4 3 4 4 2 2 2 2 1 1 1 -0 -6 -5 -2 -2 -2 -1 -1 -0 -0 0 1 1 1 0 0 2 1 0 -0 0 0 -0 1 0 1 2 1 2 1 -3 -3 -3 -4 -0 0
-1 3 3 2 3 1 3 2 1 1 1 0 -3 -2 -1 -1 -2 -2 -1 -1 -1 -1 0 0 -0 0 0 1 -1 -0 -0 -1 -0 -0 -1 1 -1 -0 0 -2 -4 -3 -3 -4 -2 -0 -0

GFSGBSN_850_dewp_102.txt.gz
Dewpoint
3 3 3 3 3 3 3 2 2 2 1 1 1 2 2 2 2 -5 3 6 6 7 7 5 -0 -3 3 3 1 -3 -3 2 1 1 1 1 1 0 0 -1 -2 -1 -2 -4 -5 -5 -5
3 3 3 2 2 3 3 2 2 1 -0 1 1 1 2 -2 1 -11 -15 5 6 7 7 5 -2 3 3 2 -0 -1 -0 0 -1 -0 0 1 1 1 1 1 1 -1 -1 -1 -1 -1 -4
3 3 3 2 2 2 3 2 1 1 -1 -0 1 -0 1 -2 -4 -11 -15 -0 6 6 6 2 1 3 4 2 -1 -2 -0 -1 0 1 1 1 2 2 2 1 0 1 1 0 0 -2 -2
2 3 3 3 2 2 1 1 1 1 1 1 1 1 -1 1 -4 -13 -3 2 6 6 5 2 3 3 3 2 1 -0 -0 0 0 2 3 2 3 2 2 2 1 1 2 4 -1 -2 -2
2 3 3 1 2 1 -3 -0 1 0 1 1 2 2 -0 -1 -2 -11 3 5 5 6 4 2 2 3 1 2 -0 1 0 -1 -0 3 3 2 3 3 2 3 3 2 3 3 2 -1 -0
4 4 3 3 2 1 -2 2 2 2 2 2 1 2 0 -1 -2 -6 1 4 4 3 2 3 3 3 1 1 0 -1 -2 -2 1 3 3 3 3 3 4 4 4 4 4 2 2 2 4
3 3 3 3 2 1 -1 1 0 0 2 1 0 1 -0 -1 -2 -6 -2 3 2 2 3 3 2 1 0 0 -0 -1 -2 0 1 1 2 3 4 3 1 1 2 2 3 3 0 1 5
3 4 4 1 -1 0 1 1 1 1 -0 0 1 -0 -0 -0 -2 0 -2 3 3 3 3 2 2 2 2 1 -0 -1 -0 0 0 2 1 4 3 1 1 1 3 5 4 3 1 4 4
5 2 2 -2 0 1 1 1 1 1 0 -0 0 1 0 0 -2 2 1 3 3 2 3 2 1 2 1 1 -1 -1 0 -1 -1 1 -0 4 2 -1 3 4 5 3 3 2 5 5 4
3 1 -2 1 1 0 1 -0 -0 1 0 -1 -1 1 1 0 -2 2 2 2 3 2 4 2 1 1 1 1 -0 -2 -1 -0 -2 -1 -1 1 1 2 3 5 4 4 2 3 6 6 8
2 -4 1 0 -2 -1 1 1 0 1 1 0 -0 1 1 0 2 2 2 3 2 2 6 3 2 2 1 0 -2 -2 0 0 -1 -2 -0 1 3 5 4 4 4 4 3 5 5 6 6
-0 -0 -1 -1 -1 -2 1 -1 -1 -1 -0 0 1 1 1 -2 -4 1 2 2 1 4 6 4 2 2 1 0 -4 -1 0 0 1 1 -0 1 0 3 4 4 3 3 5 4 4 6 9
-10 -0 -2 -4 -2 -2 -1 -1 -3 -2 -0 -0 0 1 -1 2 1 0 0 1 4 5 3 3 2 1 2 0 0 -3 -2 1 3 4 4 2 3 2 4 5 4 5 6 7 8 9 9
-8 -1 -2 -3 -3 -3 -2 -3 -3 -4 -2 -2 -3 -2 -2 2 0 1 0 2 5 4 5 0 0 0 4 -0 0 -1 -1 0 -0 0 5 5 6 4 4 5 6 6 7 8 9 9 10
-3 -2 -1 -2 -3 -3 -3 -3 -2 -2 -2 -2 -2 -1 1 -0 -1 -0 1 4 4 4 2 0 0 0 0 -1 -1 -2 -1 1 1 1 6 6 7 4 4 4 5 6 7 2 7 6 8
-3 -2 -0 -2 -3 -3 -3 -3 -3 -2 -2 -2 -1 -0 -0 1 0 1 2 4 4 1 1 0 3 -1 -1 -1 -1 -1 -1 1 3 2 2 6 7 4 4 4 5 6 4 5 7 9 10
-1 -2 -1 -2 -2 -2 -3 -3 -3 -3 -3 -1 -0 0 0 1 0 -0 3 4 3 0 -0 2 3 -1 -4 -2 1 5 2 3 2 3 3 4 5 6 5 6 5 5 3 2 1 3 5
-1 -1 -1 -1 1 1 -0 -2 -3 -4 -3 -2 -0 0 1 -1 1 1 3 3 2 1 -0 0 1 -1 -2 -2 1 2 4 4 3 4 5 4 6 7 4 2 1 3 2 0 5 4 4
-1 -2 -3 -1 1 2 2 0 -2 -2 -2 0 1 0 1 1 2 2 2 1 2 1 1 1 1 -1 -1 1 3 2 2 2 1 2 2 1 3 6 4 3 2 3 -0 0 3 5 3
-1 -7 -3 1 1 1 2 2 2 -2 -2 0 2 2 0 1 2 -0 2 2 1 1 1 1 0 -2 0 1 0 2 2 2 2 1 1 1 2 4 5 5 3 4 1 0 3 4 3
-14 -8 1 1 2 2 2 2 2 0 -2 1 2 1 1 3 2 1 1 1 -1 2 1 1 -0 -0 0 1 1 3 1 1 1 -0 0 1 4 1 0 1 2 2 2 1 1 1 3
-17 1 3 3 2 2 2 2 2 1 -2 1 1 0 1 0 1 1 1 1 -0 1 2 1 1 -0 1 2 2 2 1 1 1 -1 -0 0 3 2 1 -0 1 2 1 2 2 -0 0
-9 2 3 3 2 1 -0 1 2 1 -3 1 1 0 -0 1 0 0 -1 -0 0 1 1 0 1 1 2 2 0 -0 -1 -1 -0 1 0 1 3 3 3 1 1 2 1 1 1 1 -0
-4 2 3 1 0 1 -3 -2 -1 -1 2 2 2 1 0 1 0 -1 -1 -1 0 1 2 1 1 1 1 -0 -0 -1 -1 -1 -0 -0 -1 1 1 3 4 2 3 1 -3 -2 0 0 0
-3 2 3 1 -4 -1 -4 -4 -3 -2 1 2 1 1 0 1 -1 -1 -2 0 -0 0 1 2 2 1 0 0 1 1 2 1 1 1 0 -0 1 3 4 2 -1 -1 -2 -1 0 0 -2
-6 2 2 1 -0 -1 -2 0 -2 0 0 -1 -1 -1 -0 -0 -0 -1 -2 -1 -1 0 1 2 1 -0 -1 1 0 2 3 1 1 2 -0 -0 -1 1 2 3 2 -0 -3 -4 -4 -0 -1
-12 2 2 1 1 0 -2 1 1 -0 -1 -1 -1 -1 -1 -2 -1 -1 -1 -0 -0 0 2 1 1 1 0 2 2 2 1 -1 1 1 1 1 1 2 2 2 1 -3 -3 -4 -0 1 -1
-21 1 2 1 2 1 -1 0 0 -1 1 0 -2 -4 -1 -1 -2 -1 -1 0 0 1 1 2 1 1 2 2 2 0 -1 -0 -0 -1 -0 -0 0 2 1 2 2 -3 -4 -3 -1 -1 -1
-24 1 2 2 1 2 1 1 1 1 1 1 -0 -2 -2 -0 -1 -2 -1 -1 -0 -0 1 1 1 1 2 3 1 -1 -0 -2 -2 -1 -1 0 -1 0 -1 1 -3 -3 -3 -4 -1 -0 -0

GFSGBSN_850_dewp_105.txt.gz
Dewpoint
2 2 3 3 3 2 3 2 2 3 2 2 1 1 2 0 2 2 -0 -10 2 6 7 7 6 1 2 3 1 -3 -7 3 1 0 2 1 0 0 0 -1 -0 0 -1 -2 -2 -2 -2
3 4 4 3 3 3 2 2 2 2 2 1 2 1 0 0 1 1 -7 -14 -7 5 6 6 3 -1 2 3 -0 -0 -2 -2 -1 -1 1 0 -0 0 0 1 1 0 0 0 -1 -1 -1
4 4 4 4 4 3 3 1 2 2 2 1 1 3 1 1 1 -1 -6 -15 -14 2 6 5 3 1 2 2 -1 -1 -1 -2 -1 0 0 -0 1 0 0 2 1 1 2 2 0 -0 1
4 4 4 4 3 4 3 2 0 -3 3 2 1 2 2 2 1 -2 -9 -6 -7 5 6 4 4 3 3 2 -1 -1 1 -1 -0 1 2 2 1 1 1 2 1 1 1 3 -0 -0 0
3 3 4 5 5 3 2 -0 -0 1 1 0 0 3 2 2 1 -1 -9 5 4 5 5 3 3 3 2 2 1 -0 -2 -0 0 1 2 2 3 2 2 1 1 1 2 2 2 -0 0
3 5 4 3 2 0 -0 2 2 1 -0 -1 -1 1 1 1 1 -1 -5 -2 4 4 4 3 2 2 2 2 1 0 -0 -0 0 2 3 2 2 1 3 2 1 3 3 2 3 1 1
5 3 2 -3 -1 2 2 2 1 1 2 -1 1 1 1 0 -0 -2 0 3 3 3 4 3 3 2 2 0 -1 -1 -2 -1 1 1 2 3 3 3 1 2 1 2 3 3 2 1 3
3 0 -0 1 1 2 2 1 1 0 1 0 -1 0 0 0 -0 -2 0 2 2 2 2 3 3 2 1 0 0 -1 -1 1 1 -0 1 3 4 1 1 1 2 2 4 4 2 2 5
3 -5 1 1 2 2 1 -0 1 1 1 1 -1 -0 -0 0 -1 2 0 2 2 3 3 3 2 3 2 -0 -1 -1 -1 -0 0 1 0 2 1 1 2 3 5 5 4 3 4 2 4
1 -0 1 1 -0 -1 -0 -2 -2 -0 1 1 -1 1 1 -1 -1 1 -0 2 2 2 4 3 3 3 2 1 1 -1 -3 0 -1 -1 -0 0 -1 2 2 3 4 5 2 3 5 6 7
-10 0 -2 -0 -3 -3 -1 -4 -2 -0 0 0 -0 1 0 -0 1 2 1 2 2 2 4 3 2 2 1 1 -2 -1 -1 0 1 -0 -0 0 3 4 4 3 4 4 4 5 5 7 6
-11 -1 -1 -3 -4 -2 -3 -3 -4 -0 1 1 0 0 -1 -3 -2 1 2 2 1 3 4 4 2 3 2 1 -2 -0 0 -0 -0 1 0 1 0 2 3 4 4 4 5 5 5 6 8
-9 -1 -0 -3 -4 -1 -4 -2 -4 -1 0 0 -1 1 1 1 1 1 1 1 2 4 4 3 3 2 1 1 -1 -0 0 2 2 2 3 2 3 2 3 4 4 5 6 6 8 8 9
-8 -1 -1 -3 -4 -1 -4 -3 -3 -3 -3 -2 -3 -2 -3 -0 1 -1 -0 2 4 4 3 1 1 3 4 2 1 -1 -1 -0 0 2 4 3 4 4 4 5 6 5 7 7 7 9 9
-7 1 -1 -1 -3 -3 -3 -4 -3 -2 -2 -3 -1 -1 -1 -1 -2 -1 -0 3 4 4 3 1 1 1 1 -0 -1 -0 -1 1 2 -0 5 5 6 4 4 4 4 6 8 6 7 8 8
-8 0 -1 1 -0 -0 -2 -3 -2 -2 -2 -1 -2 -1 1 -1 -2 -1 -0 4 4 1 1 2 3 -2 0 -1 -1 1 1 2 3 3 3 5 5 4 4 4 4 5 5 7 7 8 9
-11 -1 -3 -2 -0 1 1 -3 -2 -2 -1 -1 -0 -1 0 -2 -3 -0 2 3 3 1 1 3 3 -1 -3 -1 2 4 4 3 3 5 3 4 5 6 5 6 5 5 5 4 2 4 7
-18 -15 -3 -2 -0 0 2 1 -3 -2 -0 -1 -1 -1 -1 -1 -1 1 2 2 1 2 -0 1 1 -0 -3 -1 2 4 5 4 4 3 6 4 5 6 4 2 1 2 4 1 4 4 4
-19 -6 1 1 1 1 0 1 2 -2 0 -0 -1 0 -1 0 0 0 0 1 1 1 1 2 1 -1 -1 2 3 3 3 2 3 3 2 2 3 4 3 1 1 4 1 1 3 3 4
-19 1 1 1 1 1 1 1 1 -3 -0 1 -0 -2 -2 1 1 0 1 1 1 1 1 1 1 -2 -0 1 1 2 3 2 1 1 1 1 2 3 3 3 3 3 2 1 2 3 4
-20 2 2 2 3 2 1 1 2 -3 -0 1 1 -1 -0 0 1 0 1 1 2 2 1 0 -0 1 1 3 2 2 1 1 1 0 -0 1 2 -0 0 1 1 1 2 2 2 2 3
-18 1 2 2 0 1 0 -0 1 -1 -2 1 1 0 1 0 0 0 0 0 2 2 1 1 2 2 2 3 2 3 1 1 1 -0 -0 0 1 2 1 -0 -0 1 1 2 1 1 1
-19 1 2 2 -0 -2 -4 -3 -0 0 -2 1 1 0 -1 0 -0 0 -1 -0 1 1 1 1 1 1 2 2 0 0 -1 -0 -0 0 1 1 1 2 2 0 1 2 0 1 1 1 1
-20 1 2 1 -1 -3 -7 -5 -2 -1 2 2 2 2 -0 0 -0 -0 -1 -0 1 1 2 2 1 1 0 -0 -0 -0 -1 -0 -0 -0 -1 1 1 2 2 0 2 -0 -3 -2 0 0 0
-20 1 1 0 0 -3 -6 -3 -4 1 2 1 0 -0 1 -1 -0 -1 -1 0 -0 1 1 1 1 0 -1 0 1 1 1 1 1 0 -0 -1 1 2 2 1 -1 -1 -2 -1 -0 -0 -1
-20 -1 1 0 1 -1 -3 -7 -5 -2 -2 -1 -1 -1 -1 -1 -1 -1 -1 -1 -1 0 1 1 0 -0 -1 1 0 1 2 1 1 -0 -0 -0 -1 1 1 2 2 -2 -3 -4 -4 -1 -2
-18 -7 1 0 1 -1 -0 -3 -1 -0 -1 -1 -2 -3 -2 -0 -2 -1 -1 -1 -0 0 1 1 0 1 1 1 1 1 0 -1 1 1 1 1 0 1 2 1 0 -3 -3 -4 -2 -4 -1
-17 -18 1 1 1 -1 1 -0 -1 -1 -1 0 -0 -2 -2 -1 -1 -1 -1 -0 -0 1 1 1 0 0 1 1 1 0 -1 -1 -1 -2 -1 0 0 1 1 1 1 -3 -4 -3 -4 -1 -1
-18 -23 -0 1 1 -0 0 1 1 -2 -2 0 -1 -1 -2 -1 -1 -2 -2 -1 -0 -0 1 1 1 1 2 0 -0 -1 -1 -2 -2 -1 -2 -1 -2 -1 -1 -0 -3 -4 -4 -4 -1 -1 -0

GFSGBSN_850_dewp_108.txt.gz
Dewpoint
5 5 5 4 4 5 4 4 3 2 2 1 1 2 2 2 2 1 1 -3 -9 -3 6 6 6 6 2 2 0 1 4 5 -1 -2 -1 -1 -0 0 0 -0 -0 0 -0 -1 -1 -1 -1
4 4 4 5 4 4 4 3 3 3 1 0 1 2 2 2 2 2 -1 -2 -9 -8 6 5 6 5 3 3 0 -1 -2 2 -4 -1 1 1 0 -0 0 0 0 -0 0 0 0 -0 -1
4 4 5 4 3 3 2 4 3 1 1 2 -0 1 1 2 2 2 -1 -4 -8 -12 4 6 5 4 4 3 0 -0 -1 -3 -2 -0 1 0 -0 -0 -0 1 1 0 2 1 1 1 1
4 4 3 1 2 2 1 0 0 0 -0 2 2 -1 -1 3 2 2 -2 -4 0 -16 0 5 4 3 3 1 1 -0 -1 -1 -0 0 1 1 1 1 0 1 0 2 1 3 -1 0 -0
3 3 3 1 2 3 2 2 2 2 2 1 0 -1 -0 -1 2 1 -2 1 1 -1 4 5 4 2 3 1 1 0 1 -1 -1 1 1 0 1 0 1 1 1 0 0 2 2 0 1
2 2 0 2 2 2 2 1 1 1 1 -0 0 1 1 1 2 -0 -1 -0 5 5 5 4 2 3 3 2 0 -0 -1 0 0 2 3 1 1 1 1 1 -1 1 1 2 2 0 0
2 -3 1 1 2 2 2 2 1 2 0 0 0 1 1 1 -1 -1 1 0 3 3 3 3 2 3 3 2 1 0 -1 -0 1 2 1 3 2 2 1 1 0 1 3 3 2 0 2
-4 1 0 0 1 1 2 1 2 2 1 1 -1 0 1 1 -0 -1 1 1 -0 2 2 3 3 1 1 -1 -0 -1 -1 0 1 1 1 2 3 1 0 0 2 3 4 2 2 1 3
-8 -0 -1 1 0 1 1 0 1 0 1 0 0 -2 -0 -0 1 1 2 2 2 1 2 3 3 2 1 0 0 -1 -2 0 1 0 -0 1 -0 -0 1 2 4 4 3 3 3 2 4
-5 -1 -0 0 0 -0 0 -1 1 0 -0 -0 0 -1 -1 -1 0 0 1 -0 1 2 3 4 3 3 2 1 0 -2 -1 0 -1 1 0 1 -1 0 1 2 2 5 1 3 4 6 6
-1 -2 -1 -1 0 -1 -1 -1 1 1 -1 1 -0 -1 -0 1 1 2 2 0 0 1 3 3 3 2 2 1 -0 -0 -2 0 0 -1 1 0 2 4 4 3 3 4 3 4 5 5 6
-0 -2 -1 -1 -2 -1 -1 -2 -3 -1 -0 0 0 -0 -2 -1 1 2 2 2 1 0 1 3 2 3 2 1 -1 0 0 0 0 1 1 1 -0 2 2 3 3 3 5 5 5 6 7
-0 -2 -0 -1 -3 -5 -2 -3 -3 -1 -3 -2 -3 -2 -1 -1 1 1 1 0 1 2 3 4 3 1 1 1 0 -0 1 2 1 2 2 2 2 2 3 4 3 4 6 5 5 7 7
-1 -2 -2 -0 -1 -5 -4 -3 -2 -1 -2 -3 -2 -4 -2 0 -0 0 1 -1 2 3 3 1 2 2 2 2 1 -0 -1 -0 -0 2 3 5 2 3 4 4 5 5 6 6 7 8 7
-4 -1 -6 -1 -1 -1 -5 -4 -3 -2 -1 -2 -1 -6 -5 -3 -1 -0 -0 2 4 3 3 2 3 1 2 1 -0 -1 -0 -0 1 1 4 5 3 4 3 3 4 6 7 6 7 7 8
-17 -10 -4 -1 -1 -0 -1 -5 -4 -3 -1 -2 -4 -5 -5 -3 -2 -1 0 3 4 2 2 2 2 -2 0 -1 -1 1 1 2 4 4 3 5 5 4 4 4 4 5 5 8 7 8 8
-20 -0 1 -1 -1 -1 0 -0 -4 -3 -3 -3 -3 -5 -4 -3 -1 -1 3 3 3 1 1 4 2 -2 -2 1 2 3 5 4 4 4 4 4 5 4 5 5 5 6 7 6 4 5 7
-15 1 1 0 -0 -1 -2 0 -3 -3 -3 -3 -4 -3 -2 -2 -1 1 2 1 1 1 1 1 1 -2 -3 0 4 6 6 4 3 3 5 4 4 5 4 1 2 2 4 3 4 5 4
-16 1 2 2 -0 -1 -2 -1 -1 -4 -2 -3 -3 -3 -1 -1 -1 1 -0 0 1 1 1 2 1 -1 -1 2 3 4 3 2 3 4 3 4 3 4 2 -0 1 3 2 1 2 2 4
-18 1 2 1 3 -1 -3 -4 -5 -3 -1 -0 -1 -3 -2 0 1 -0 0 0 1 1 1 1 1 -1 -0 1 1 2 3 2 1 1 1 1 1 2 3 3 2 3 2 1 1 3 5
-19 1 1 1 2 1 -5 -4 -6 -5 -2 -1 -0 -1 0 -0 -0 -0 -0 0 2 2 1 0 1 2 1 3 2 2 1 0 0 -0 0 -1 2 -1 0 0 1 1 2 2 2 2 2
-19 -1 1 1 -1 -1 -4 -5 -6 -6 -2 1 1 -0 1 -0 -0 -1 -1 -0 2 1 1 1 2 2 1 3 2 3 1 1 1 -0 -0 0 1 2 -0 -0 -0 0 0 1 2 2 3
-19 -5 1 -0 -2 -5 -4 -5 -5 -7 -2 0 1 1 -1 -1 -1 -0 -1 -0 1 1 1 1 1 1 1 1 0 0 0 -0 -1 0 1 0 1 1 -1 -1 0 -1 0 1 1 1 1
-18 -11 0 -0 -3 -8 -7 -4 -5 -5 -1 -0 -0 2 1 -1 -1 -0 -1 0 0 1 1 1 1 0 0 -0 -0 -0 -0 -0 -0 -0 -1 1 1 1 1 -1 -0 -3 -2 -2 0 0 -0
-15 -15 0 -0 -3 -8 -6 -2 -6 -4 -1 0 -0 -1 -0 -1 -1 -1 -1 -0 -0 0 1 1 0 0 -1 0 0 -0 -0 -0 -0 0 -0 -1 1 1 2 1 -2 -2 -2 -1 -1 1 -0
-10 -20 0 0 -2 -6 -5 -5 -4 -4 -2 -2 -1 -1 -1 -0 -2 -1 -1 -1 -1 -1 -0 1 0 0 0 0 -0 1 1 0 0 -1 -2 -1 -1 0 0 2 1 -4 -3 -3 -6 -0 -2
-6 -19 -3 1 -1 -3 -5 -2 -2 -2 -2 -1 -3 -4 -2 -1 -2 -2 -1 -1 -0 -0 0 1 0 1 1 1 1 1 0 -1 -0 1 0 0 0 1 1 1 -0 -3 -4 -4 -2 -4 -1
-1 -18 -13 0 0 -1 -0 -0 -0 -1 -1 -1 -3 -4 -4 -1 -1 -2 -1 -1 -1 0 1 0 0 -0 0 1 1 0 -1 -2 -1 -2 -1 -1 0 1 1 1 0 -3 -4 -3 -5 -1 -2
-0 -16 -21 -1 1 -0 0 -0 -1 -1 -2 -0 -1 -2 -2 -2 -1 -2 -1 -1 -2 -0 -0 1 0 1 1 -1 -0 -1 -1 -2 -2 -2 -4 -0 -2 -1 -0 -0 -4 -4 -4 -5 -2 -2 -1

GFSGBSN_850_dewp_111.txt.gz
Dewpoint
4 3 2 3 3 2 1 1 0 3 3 2 2 -1 0 0 1 2 2 2 2 -0 -5 5 7 5 5 2 -0 3 4 6 1 -2 -1 -1 -2 -1 -0 -1 -1 0 -1 -1 -1 -1 -1
3 2 2 2 1 2 2 1 1 1 2 2 2 2 0 -1 1 2 2 2 1 -3 -2 4 6 5 5 3 0 6 5 3 -1 -1 -1 -1 -1 -1 -0 0 -1 -0 0 0 -0 -0 0
4 3 1 2 2 0 0 1 1 1 1 0 1 1 1 -2 1 2 2 3 1 -4 -6 3 4 5 4 4 2 4 2 1 -3 -1 1 0 -0 -1 -1 -0 1 0 1 1 0 0 1
3 -3 2 1 -0 2 1 1 2 1 1 1 0 0 -0 -1 -2 2 2 1 -3 -6 -8 1 5 5 3 2 3 2 4 -1 -0 0 0 1 0 0 0 0 -1 1 0 2 -2 1 -0
-3 2 1 0 1 2 1 2 1 1 1 1 0 1 1 1 -2 0 2 -3 1 -9 -9 5 2 3 3 3 4 3 -1 -0 0 1 1 -0 0 -0 -0 1 -1 -0 -0 1 1 -0 -0
0 2 1 1 1 2 1 2 1 1 0 -0 -0 1 1 2 2 1 -0 2 4 2 4 3 3 2 3 3 3 1 -1 -2 1 2 1 0 1 1 -1 1 -1 0 1 1 2 -1 -0
1 2 1 1 2 2 1 2 1 1 1 -0 -2 1 1 1 1 1 -1 -0 3 2 2 2 3 3 3 2 2 2 -0 0 1 2 2 2 1 -0 -0 -0 -0 1 3 2 1 0 1
1 1 1 0 1 1 -1 2 2 1 -0 -1 -2 -1 -0 1 0 0 -1 1 2 2 2 3 3 3 2 2 2 0 -0 0 2 2 2 2 1 -0 -1 -0 1 2 3 2 1 1 2
0 0 1 0 1 -1 -1 1 -0 0 1 -1 -1 -1 -1 1 1 2 2 1 2 2 2 3 3 3 2 0 -0 -0 -1 0 1 1 -0 0 -2 -1 1 2 3 2 3 2 2 2 2
-2 1 0 -0 -1 -3 -3 -0 0 -0 -1 -1 -0 -1 -1 -1 -1 -0 -1 2 3 2 3 2 3 2 1 0 0 -2 -1 0 0 0 -0 -0 -2 -0 0 2 1 4 0 2 2 5 5
-2 1 1 -3 -6 -5 -4 -4 -1 -0 -0 -1 -4 -3 -1 -0 1 2 -0 -0 1 2 1 3 3 2 1 1 -0 -1 -2 -0 1 -1 -0 -0 0 3 4 3 2 3 3 4 5 6 5
-4 0 1 -3 -7 -6 -4 -5 -5 -1 -0 -2 -1 -1 -2 0 1 2 1 0 1 -2 3 3 2 2 2 1 -0 1 0 -0 0 1 1 1 -1 1 1 2 3 3 4 5 5 6 6
-13 -7 1 -1 -8 -6 -6 -4 -6 -5 -2 -0 -1 -0 -2 -1 1 1 1 0 -1 1 2 4 3 2 1 1 0 0 1 1 1 -0 1 1 2 0 2 4 2 4 6 4 4 5 6
-15 -5 -0 1 -4 -9 -8 -6 -5 -5 -3 -2 -5 -4 -3 -2 -1 -0 0 -2 0 2 2 1 2 1 2 1 0 -0 -1 -0 -0 1 3 4 1 3 3 3 4 5 5 6 7 5 6
-6 0 -1 -1 -3 -5 -7 -8 -6 -5 -5 -5 -5 -5 -3 -2 -2 -1 -1 3 4 2 2 3 3 1 2 1 0 -1 -1 -0 1 1 3 4 3 3 3 3 4 5 7 6 7 6 7
-2 -1 0 -0 -1 -5 -6 -7 -7 -7 -7 -7 -9 -6 -2 -2 -1 -1 1 3 2 2 2 1 1 -2 0 -1 -1 -0 1 2 4 3 3 5 5 2 3 3 4 5 5 7 7 8 8
-7 -1 0 0 -0 -2 -6 -7 -8 -8 -10 -9 -10 -6 -2 -2 -2 -1 2 3 3 1 1 3 2 -2 -2 2 2 4 5 4 4 4 4 4 4 3 5 5 5 6 7 7 6 5 7
-18 0 -0 1 1 -0 -3 -7 -8 -8 -10 -9 -4 -3 -2 -3 -1 -1 1 1 1 1 1 0 1 -3 -3 2 5 5 6 4 3 3 4 4 4 5 3 1 2 4 5 4 6 6 3
-19 0 0 0 2 1 -1 -7 -8 -11 -8 -6 -5 -3 -2 -3 -1 -1 -1 -0 0 1 1 2 1 -0 -1 1 3 4 4 2 2 4 3 3 2 4 1 -0 0 3 2 1 3 3 5
-17 -8 1 0 -2 2 -1 -4 -8 -7 -8 -6 -4 -2 -2 -1 0 -1 -0 0 1 0 1 0 1 -0 0 2 1 2 2 1 2 3 3 0 1 2 3 3 2 2 1 1 2 3 4
-9 -17 0 0 -1 -4 -3 -3 -7 -7 -7 -6 -1 -0 0 -1 -1 -1 -1 -0 2 2 0 1 1 2 2 2 2 2 1 0 -0 -1 1 -1 1 -1 -0 -0 -0 1 1 2 2 2 2
-2 -19 -1 0 -1 -5 -5 -4 -7 -5 -5 -6 -1 -1 -0 -1 -1 -1 -2 -0 1 1 1 1 2 1 1 2 2 2 1 1 1 -1 -0 -0 1 2 -1 -1 -0 -0 0 1 2 3 3
0 -16 -3 -0 -2 -4 -7 -3 -7 -5 -2 -2 -1 -0 -1 -1 -1 -1 -1 -0 1 1 0 1 1 1 1 1 0 0 0 0 -0 0 0 0 0 0 -1 -1 -1 -2 -0 0 1 1 2
1 -12 -8 -1 -3 -5 -7 -4 -5 -3 -2 -2 -1 0 -1 -1 -1 -1 -1 -1 0 0 2 1 1 0 -0 -0 0 -0 -0 -1 -0 -1 -1 0 0 0 0 -1 -4 -5 -2 -2 0 0 -0
1 -10 -13 -1 -3 -9 -6 -5 -2 -0 -0 -2 -3 -2 -1 -1 -2 -2 -1 -1 -1 -1 -0 1 0 0 0 0 -0 -1 -1 -1 -1 -1 -0 -1 -0 1 1 0 -3 -4 -2 -1 0 1 -1
2 -5 -16 -0 -3 -6 -5 -5 -2 -1 -0 -1 -2 -2 -2 -1 -2 -2 -1 -1 -1 -1 -1 -0 -0 -0 0 -1 -1 1 0 0 -1 -2 -2 -1 -1 -0 0 1 -2 -7 -3 -3 -5 0 -2
3 -1 -18 -1 -1 -5 -6 -4 -2 -2 -2 -1 -2 -4 -2 -2 -2 -1 -1 -1 -1 -0 -0 0 1 0 0 0 1 1 0 -2 -1 -0 -1 -0 -0 1 1 1 -1 -4 -4 -5 -1 -4 -3
3 1 -15 -8 0 -2 -4 -3 -3 -1 -0 -1 -2 -4 -4 -2 -2 -2 -2 -1 -0 0 1 0 -1 -1 -0 0 1 0 -1 -2 -1 -2 -1 -2 -0 0 0 1 -1 -4 -4 -3 -5 -2 -3
3 2 -7 -19 -1 0 -1 -1 -1 -1 -0 -0 -1 -1 -3 -3 -2 -2 -2 -2 -1 -1 0 1 -0 0 1 -1 -1 -1 -1 -2 -3 -1 -5 -1 -2 -2 -1 -1 -4 -4 -4 -5 -4 -2 -2

GFSGBSN_850_dewp_114.txt.gz
Dewpoint
3 -2 2 2 2 2 2 1 2 1 0 0 1 1 1 1 0 -1 1 2 3 2 -1 -1 4 7 7 4 3 4 2 6 3 -1 -2 -2 -3 -2 -1 -1 -1 -0 -1 -1 -1 -1 -1
-0 1 2 2 2 2 2 2 2 3 1 1 1 1 1 -0 -1 -2 0 1 3 2 -2 -0 5 6 5 4 5 6 6 4 -2 -2 -1 -2 -2 -2 0 -0 -1 -0 0 0 -1 -1 -0
-1 2 3 2 3 2 2 2 1 3 2 0 1 -1 -1 -0 -2 -2 1 2 3 2 -4 -3 4 4 5 4 5 6 4 1 0 -2 -1 -1 -1 -1 -1 -1 0 0 1 0 -1 -0 0
2 3 3 2 2 2 2 2 1 2 1 0 -0 1 1 1 -0 -2 2 2 2 -1 -5 -5 1 4 4 3 5 4 4 -1 0 0 -1 0 -0 -0 0 -0 -1 0 -1 -0 -3 1 -0
2 2 2 2 1 2 2 2 2 2 0 -2 -0 1 1 1 -1 -1 1 1 -1 -2 2 -3 4 3 4 4 3 3 1 0 0 0 -0 0 0 -1 -1 -1 -3 -1 0 1 1 -1 -0
2 2 2 2 2 2 2 2 1 1 -0 -0 1 0 1 1 1 0 0 3 1 0 2 0 3 2 3 4 3 1 -0 -0 1 0 0 -0 -0 -1 -0 -1 -2 1 1 1 2 -0 -0
1 2 2 1 -3 1 2 3 2 1 -1 -2 -1 -0 1 1 1 -0 2 3 3 1 2 2 2 3 3 3 1 0 -0 1 2 2 2 1 -1 -2 -1 -1 -1 0 0 1 -0 -1 1
1 2 2 -0 -6 -3 -2 2 0 -1 -1 -1 -1 0 1 -0 1 1 1 2 2 2 2 3 3 3 3 3 2 0 0 1 2 1 2 1 -0 -1 -1 -1 0 1 2 1 0 -0 1
-0 1 1 -1 -6 -6 -4 -2 -1 -3 -2 -1 -1 -0 -0 1 2 1 2 2 2 2 2 2 2 2 2 2 2 1 0 1 0 0 1 -1 -2 -1 0 1 2 2 2 2 2 0 1
-9 1 2 -3 -6 -7 -7 -7 -4 -3 -2 -3 -3 0 -1 -1 -0 1 1 2 2 2 3 2 3 2 2 -1 1 -1 -0 -0 0 -1 -1 -1 -2 -1 0 1 1 3 1 1 1 3 6
-4 -2 1 -1 -5 -7 -8 -7 -8 -7 -3 -3 -2 -1 -0 -1 -1 1 0 2 1 1 1 3 3 2 1 -0 -1 -1 -1 -1 0 -1 -1 -2 -0 2 3 2 1 3 2 4 4 5 5
-4 -4 1 1 -5 -7 -8 -8 -7 -5 -7 -5 -3 -2 -1 1 -0 1 -1 1 1 -3 2 2 2 2 1 -0 1 0 -1 -1 -0 0 -0 -1 -1 1 0 0 1 1 4 4 4 6 6
-1 -1 -3 1 -0 -3 -8 -8 -8 -6 -9 -7 -4 -3 -2 -1 -0 1 1 0 -2 1 2 2 2 1 -0 0 -0 -0 0 0 -1 -1 -0 1 1 -0 1 3 1 4 6 3 2 6 5
-0 -1 -2 -1 1 1 -1 -7 -9 -9 -9 -8 -5 -2 -2 -1 -2 -2 -1 -2 1 2 2 1 2 1 1 0 -1 -1 -1 -0 -1 1 2 2 0 2 3 3 3 5 6 6 5 5 6
-4 -1 -2 -2 -0 0 -2 -5 -8 -11 -11 -11 -8 -3 -2 -1 -1 -2 -1 2 2 2 1 2 2 1 1 1 -0 -1 -1 -1 -1 0 1 2 1 2 3 2 3 5 7 5 7 5 7
-18 -0 -0 -2 -2 -1 -2 -5 -9 -11 -13 -12 -8 -4 -3 -2 -2 -2 -0 3 2 2 2 1 1 -2 0 -1 -1 -0 0 1 3 1 2 3 5 1 3 3 4 5 5 7 7 7 8
-18 -1 -0 -2 -2 -1 -2 -5 -8 -12 -9 -9 -6 -4 -4 -3 -2 -1 2 2 2 1 1 3 1 -2 -2 3 2 3 4 3 3 4 4 4 4 3 4 5 5 6 7 7 7 6 7
-12 -10 -0 -0 -3 -4 -4 -7 -8 -8 -7 -5 -5 -2 -3 -3 -1 -1 0 1 1 1 1 0 1 -2 -2 4 5 5 5 4 3 3 4 3 4 5 3 1 2 4 5 5 5 6 4
-0 -18 -0 -0 -2 -6 -8 -7 -7 -6 -6 -7 -6 -4 -3 -3 -0 -2 -1 -1 0 1 1 1 2 1 -1 1 3 4 3 1 2 3 3 3 2 3 -1 -0 -0 2 2 2 3 3 5
1 -15 -5 0 -1 -4 -7 -8 -7 -6 -5 -5 -5 -3 -3 -1 -0 -1 -0 0 1 1 1 1 1 0 0 1 1 2 2 0 2 3 3 2 1 1 3 3 2 3 1 1 3 3 4
2 -4 -14 -0 -1 -3 -7 -7 -6 -4 -4 -3 -2 -0 -1 -2 -1 -2 -1 -0 1 2 1 1 1 1 2 2 1 2 1 0 0 -0 1 -1 1 -1 -0 -0 -0 1 1 2 1 2 2
2 1 -17 -3 -1 -4 -8 -6 -6 -4 -3 -2 -2 -1 -1 -1 -1 -2 -2 -0 1 1 1 2 2 1 1 2 2 2 1 1 1 -1 -1 -1 1 1 -0 -2 -1 0 -0 1 2 3 3
1 2 -13 -7 -1 -3 -8 -7 -6 -4 -3 -2 -2 -1 -3 -1 -2 -2 -1 -0 1 1 0 1 1 1 1 1 0 0 0 0 -0 0 0 -0 0 0 -1 -1 -2 -2 -1 1 1 1 2
0 2 -6 -11 -2 -4 -7 -8 -4 -3 -2 -1 -1 -1 -2 -2 -2 -1 -1 -1 0 -0 1 1 1 0 -1 0 -0 0 0 0 -0 -0 -1 0 0 -0 1 -2 -2 -6 -2 -2 0 0 0
2 1 -2 -15 -2 -5 -8 -7 -3 -2 -1 -2 -1 -2 -2 -2 -2 -1 -1 -1 -1 -1 -0 1 0 0 0 -0 -1 -1 -2 -3 -1 -2 -2 -1 -0 1 1 0 -5 -4 -3 -1 0 -0 -1
3 2 0 -16 -1 -5 -6 -6 -2 -1 -1 -1 -2 -1 -2 -2 -3 -2 -1 -1 -2 -2 -1 -1 -0 0 0 -1 -1 0 -1 -0 -1 -2 -2 -2 -2 -0 -0 -0 -6 -10 -4 -3 -4 1 -4
3 2 2 -14 -3 -3 -4 -5 -4 -2 -1 -1 -1 -3 -3 -2 -3 -2 -2 -1 -1 -1 -1 -0 0 0 -0 -0 1 1 0 -2 -0 -1 -2 -1 -1 1 0 0 -1 -5 -4 -5 -1 -6 -6
4 2 3 -5 -12 -1 -4 -3 -3 -3 -2 -1 -1 -2 -3 -3 -4 -3 -2 -1 -1 -0 -0 -1 -1 -1 -0 -0 1 -0 -1 -1 -1 -3 -2 -1 -2 -0 -0 1 -1 -4 -3 -3 -5 -5 -2
5 3 3 2 -17 -3 -1 -3 -3 -2 -1 -1 -1 -1 -1 -2 -3 -3 -3 -3 -2 -1 -0 1 -1 -0 0 -1 -1 -1 0 -2 -3 -1 -5 -2 -2 -3 -1 -2 -6 -4 -4 -4 -4 -4 -4

GFSGBSN_850_dewp_117.txt.gz
Dewpoint
3 3 3 3 2 2 2 2 2 3 2 0 1 1 -0 1 2 0 -0 2 3 4 1 0 -3 6 4 4 5 3 6 6 3 -2 -3 -4 -5 -4 -2 -1 -2 -1 -1 -1 -1 -1 -2
4 3 2 2 2 2 2 3 2 2 0 1 -1 -1 -1 -0 0 -2 -4 -1 2 3 2 -1 0 6 6 4 3 4 6 4 -1 -2 -2 -3 -4 -4 -1 -0 -2 -0 0 -0 -1 -1 -1
3 2 2 3 2 2 3 2 2 2 0 -1 -1 0 1 1 -0 -2 -2 0 1 2 2 -3 3 5 5 4 4 4 5 -2 -2 -4 -4 -3 -3 -3 -1 -0 -0 -0 -0 -1 -1 -0 -0
2 2 2 3 3 3 3 3 2 2 1 1 1 1 -0 0 0 -0 2 1 1 1 -0 -5 4 3 3 4 5 4 -0 -0 -1 -1 -2 -1 -1 -2 -1 -1 -2 -0 -2 -2 -4 -1 -1
2 0 2 2 2 3 3 2 1 -3 -3 -2 0 2 1 -1 -2 -2 -0 2 0 -2 1 -1 2 2 4 4 3 1 -2 0 -0 -1 -0 0 -2 -1 -1 -1 -2 -1 -0 1 0 -2 -0
2 0 2 2 3 3 3 2 3 0 -2 -2 -1 1 1 1 -0 1 2 1 3 2 2 3 3 2 3 4 3 0 1 -1 -0 -0 -0 -1 -1 -0 -1 -1 -4 1 1 0 1 -1 -1
2 -1 1 2 3 2 1 -3 -4 -2 -2 -2 -0 -0 -0 1 0 2 -0 0 -0 1 -0 0 2 3 3 3 2 1 0 -0 0 0 2 1 -0 -1 -1 -1 -3 0 0 1 -0 -1 0
0 -0 2 2 2 -1 -5 -3 -3 -4 -4 -2 -2 -0 1 0 1 2 1 1 1 1 1 2 3 2 3 2 2 0 0 1 1 2 1 -1 -0 -1 -2 -1 0 1 2 2 -0 -1 1
-3 -0 0 2 2 -3 -5 -6 -6 -3 -2 -3 -2 -1 -1 1 2 1 1 2 2 2 1 2 2 2 2 2 2 0 0 1 -0 0 0 -1 -0 -1 -0 1 2 2 2 1 1 0 0
-1 -3 -1 0 -4 -6 -6 -5 -5 -6 -3 -3 -3 -1 -1 -0 1 2 2 2 2 2 2 3 3 2 2 1 0 0 0 -0 -0 -1 -1 -1 -2 -1 0 1 1 3 0 1 2 4 5
-1 -2 -5 -1 -2 -5 -7 -6 -4 -7 -5 -3 -2 -2 -3 0 1 1 1 1 1 1 1 2 2 1 -1 -1 -1 -1 -1 -1 0 -1 -2 -3 -0 1 2 2 0 2 1 3 4 5 6
-1 -0 -3 -3 -0 1 -0 -6 -6 -5 -7 -4 -2 -3 -3 -5 -3 -2 -2 -0 -1 -2 2 3 1 1 -0 -0 1 -0 -2 -1 -0 -0 -1 -1 -2 0 -1 -0 1 0 3 3 4 4 7
-10 -3 -1 -3 -4 -2 0 -6 -6 -7 -7 -5 -2 -2 -2 -3 -2 -1 -1 -1 -2 2 1 0 1 1 -0 -0 -0 -0 -0 -1 -1 -1 -0 -0 1 -0 -0 2 1 3 5 3 3 6 5
-18 -0 -1 -2 -4 -4 -4 -8 -7 -7 -10 -9 -3 -2 -2 -1 -2 -2 -2 -2 1 1 1 1 1 1 1 -1 -3 -2 -1 -1 -2 -0 1 2 0 1 2 2 2 4 5 5 5 5 5
-11 -7 -1 -3 -4 -5 -4 -6 -8 -7 -11 -10 -4 -3 -2 -1 -2 -2 -2 2 3 1 1 1 1 -0 0 0 -1 -1 -1 -1 -1 -0 1 2 2 1 3 2 3 5 6 4 7 5 6
-1 -16 -1 -2 -4 -6 -6 -7 -7 -5 -7 -6 -5 -4 -3 -2 -2 -2 -0 3 2 2 1 1 -0 -2 -1 -1 -1 -0 0 -1 2 -0 1 3 4 0 3 3 3 5 4 7 6 7 6
1 -14 -5 -1 -3 -7 -8 -8 -6 -6 -6 -6 -5 -4 -3 -3 -3 -1 2 3 2 1 1 2 1 -2 -1 4 3 3 3 1 3 4 3 4 4 2 4 5 6 6 6 6 7 7 7
1 -6 -14 -1 -2 -6 -9 -8 -6 -7 -7 -6 -5 -2 -3 -3 -1 -2 -1 0 1 1 1 0 1 -1 1 3 4 5 5 3 3 3 4 3 4 5 4 1 3 4 6 5 6 7 5
1 -1 -16 -4 -2 -4 -7 -9 -7 -7 -6 -7 -5 -4 -3 -4 -0 -2 -2 -1 -0 1 1 1 1 0 -1 1 2 3 3 2 2 3 3 3 3 4 0 0 -0 2 3 3 2 3 5
1 1 -9 -13 -2 -4 -7 -7 -7 -6 -5 -6 -5 -3 -3 -2 -1 -1 -1 0 1 0 1 1 1 0 0 1 0 2 1 0 2 3 3 2 1 2 3 2 1 2 1 1 2 5 4
2 1 -1 -15 -3 -4 -8 -7 -6 -5 -5 -4 -3 -1 -2 -2 -1 -2 -1 -0 1 1 0 0 0 1 2 2 1 1 1 0 0 -1 2 -0 1 -1 0 -0 -0 0 1 2 2 2 2
2 1 1 -9 -6 -3 -6 -8 -6 -5 -4 -3 -2 -2 -1 -1 -1 -2 -2 0 1 1 1 1 1 1 0 1 1 2 1 1 1 -1 -1 -1 1 0 0 -1 -1 0 -0 1 2 2 2
3 2 1 -2 -11 -3 -4 -9 -6 -4 -3 -4 -2 -2 -3 -2 -2 -2 -2 -0 0 0 0 1 1 1 0 0 0 0 0 0 -0 1 -0 -0 0 1 0 -2 -2 -1 -2 1 1 1 1
4 2 1 1 -13 -3 -5 -8 -7 -3 -3 -2 -2 -1 -3 -3 -2 -2 -1 -1 -0 -0 1 0 1 0 -1 0 0 0 0 0 0 -1 -1 0 -0 0 1 -2 -4 -7 -2 -2 -0 -0 0
4 2 2 1 -10 -4 -7 -8 -6 -3 -2 -3 -2 -2 -2 -3 -2 -2 -1 -1 -1 -1 -1 0 -0 -0 0 -0 -1 -1 -3 -3 -1 -2 -1 -1 -0 1 1 -0 -5 -7 -5 -1 0 -1 -1
5 6 2 2 -6 -4 -6 -6 -4 -3 -2 -1 -2 -1 -2 -2 -4 -3 -2 -1 -2 -2 -2 -1 -0 -0 0 -2 -1 -1 -2 -1 -1 -2 -2 -2 -2 -0 -0 -0 -5 -13 -6 -3 -3 1 -4
5 6 3 2 0 -6 -4 -5 -3 -2 -2 -2 -2 -2 -4 -2 -4 -2 -2 -2 -2 -2 -2 -1 -0 0 -0 -1 1 1 -0 -2 -1 -1 -3 -1 -0 1 1 0 -1 -6 -4 -4 -1 -8 -6
6 6 6 3 3 -11 -2 -4 -4 -2 -2 -2 -2 -1 -3 -3 -4 -4 -3 -2 -1 -1 -1 -2 -1 -1 -1 -0 0 -0 -1 -2 -1 -3 -3 -2 -1 -0 -0 1 -1 -5 -4 -2 -4 -6 -3
6 6 6 3 3 -1 -8 -2 -3 -3 -2 -1 -1 -1 -1 -1 -1 -2 -2 -3 -3 -2 -1 -0 -1 -1 -1 -2 -1 -1 0 -2 -3 -1 -5 -2 -4 -4 -2 -2 -5 -4 -4 -5 -6 -5 -5

GFSGBSN_850_dewp_120.txt.gz
Dewpoint
3 2 2 2 3 3 2 3 1 -2 -0 -0 1 1 0 2 0 1 2 3 3 3 0 1 -0 3 5 5 5 2 5 7 5 -2 -3 -3 -4 -4 -4 -3 -3 -5 -3 -2 -2 -2 -2
2 3 2 2 2 2 2 3 2 1 1 1 2 2 0 -0 -1 -2 -3 1 3 4 -1 -1 0 4 4 4 5 6 6 5 -1 -3 -4 -4 -3 -4 -3 -2 -4 -2 -2 -2 -2 -2 -2
1 2 1 2 2 2 2 3 2 2 3 2 2 -1 -0 1 -1 -3 -1 1 1 3 -2 3 4 5 4 4 4 6 2 -0 -1 -3 -4 -6 -7 -3 -2 -1 -0 -1 -2 -3 -2 -1 -2
0 1 1 1 2 2 2 3 2 -1 0 2 1 0 0 1 -0 1 1 2 2 1 -4 4 4 4 4 4 4 4 -1 -2 -2 -4 -4 -3 -4 -2 -1 -1 -2 -2 -3 -3 -3 -2 -1
1 1 0 1 2 2 2 1 0 -0 -2 0 0 -0 -1 0 -2 2 1 1 -1 -2 -2 3 3 3 4 4 3 1 1 1 -1 -1 -1 -2 -3 -1 -1 -2 -3 -3 -2 0 -2 -2 -1
2 -0 0 1 2 2 2 2 1 -1 -1 -1 -1 1 -1 2 2 2 3 1 -0 2 3 2 1 2 3 3 2 -0 0 0 1 1 -0 -1 -0 -1 -2 -1 -2 -3 -1 -3 -2 -3 -2
0 2 -1 1 2 2 2 1 1 -2 -1 -1 -0 0 0 3 3 3 1 -0 -0 1 1 3 2 3 2 2 2 1 1 0 1 0 0 0 1 3 -1 -2 -1 -1 -1 -1 -3 -3 -1
-2 -1 -2 -2 0 2 2 0 -0 -2 -2 -1 -1 -1 1 1 1 1 -0 2 2 1 2 3 3 2 2 2 2 1 -0 0 0 1 -1 -0 1 -2 -2 -1 -0 0 -0 -2 -2 -2 -0
-2 -4 -8 -5 -1 0 -1 -3 -1 -4 -2 -1 -1 -0 2 1 0 -0 0 1 1 0 1 2 2 2 2 2 2 0 1 1 -1 -0 -2 -0 -0 -2 -1 -1 0 -0 -0 -0 1 0 -0
-3 -3 -9 -6 -3 1 1 -3 -6 -5 -3 -1 -3 -1 1 1 1 1 1 2 2 1 3 3 2 2 2 1 -0 -0 -0 -0 -1 -1 -2 -2 -2 -1 -0 1 0 1 -1 0 2 3 5
-2 -4 -4 -7 -6 -5 -3 -6 -7 -6 -3 -2 -3 -2 -0 1 1 1 -1 -1 -0 -1 3 3 2 1 0 -0 -1 -1 -1 -1 -1 -1 -2 -1 -0 1 2 1 0 0 -0 1 2 3 5
-12 -1 -3 -5 -6 -7 -7 -8 -9 -8 -5 -3 -2 -3 -2 -1 -2 -3 -1 -1 -2 5 3 3 0 -0 -1 -1 -1 -1 -1 -2 -0 -2 -1 -2 -2 -1 -2 -2 -0 -1 1 3 3 4 6
-12 -3 -2 -4 -6 -7 -8 -8 -10 -11 -8 -4 -2 -2 -2 -2 -2 -2 -2 -2 5 3 0 0 0 -1 -2 -2 -2 -2 -2 -4 0 3 3 0 0 -1 -1 1 1 2 4 6 6 6 6
-3 -12 -1 -3 -5 -7 -8 -8 -8 -11 -8 -4 -2 -2 -1 -2 -2 -2 -2 -0 1 -0 1 0 1 0 -1 -3 -4 -2 -1 0 -2 -0 2 4 3 1 1 2 2 2 4 6 6 6 6
1 -14 -3 -2 -3 -8 -9 -9 -6 -6 -6 -4 -4 -2 -2 -2 -3 -4 -0 3 2 0 0 0 0 -2 0 -0 -2 -1 -1 -0 -0 -1 3 2 4 0 2 1 2 6 6 4 6 5 6
1 -5 -11 -2 -3 -6 -10 -11 -7 -6 -6 -5 -5 -4 -2 -3 -3 -3 2 3 2 1 1 0 -1 -2 -1 -1 -1 -0 1 0 2 1 -0 2 5 0 2 3 3 5 4 8 7 7 7
1 0 -14 -4 -2 -5 -9 -11 -9 -7 -7 -6 -5 -3 -3 -3 -3 0 4 3 2 1 1 2 -1 -0 2 3 2 2 2 1 2 3 1 3 5 3 3 5 6 6 7 6 6 7 6
3 0 -4 -12 -2 -4 -8 -10 -11 -9 -8 -6 -5 3 -3 -4 2 1 3 1 1 1 1 1 1 -1 2 2 3 4 4 2 2 3 4 3 4 5 4 1 2 4 5 4 6 7 5
4 1 -0 -13 -4 -3 -7 -8 -8 -9 -6 -8 -5 -4 -4 -5 4 3 -0 0 0 1 1 1 1 0 -1 2 3 3 3 2 2 3 3 2 4 5 1 1 1 3 3 3 2 3 5
3 3 0 -5 -10 -3 -7 -8 -6 -7 -7 -6 -6 3 -4 -3 -1 -0 1 1 1 0 1 1 1 0 1 1 1 2 1 1 2 3 3 2 3 3 3 1 1 2 1 0 2 5 4
2 3 2 -0 -12 -4 -5 -9 -6 -6 -6 -6 -5 -0 -2 3 0 -1 -0 0 1 1 1 0 0 1 1 1 1 1 1 0 1 0 2 3 4 2 1 0 0 1 0 -0 3 3 4
4 3 3 1 -7 -8 -4 -8 -7 -6 -6 -5 -3 -1 -2 -1 -1 -1 -1 0 1 1 1 1 0 0 0 1 0 0 1 1 0 -0 -0 -0 4 1 1 -1 1 1 -1 -1 1 1 2
5 4 4 2 0 -9 -6 -5 -9 -5 -7 -4 -4 -4 -4 -1 -1 -1 -2 -0 0 1 0 1 0 1 0 -0 -0 -0 -0 -0 0 1 1 1 2 3 3 -2 -2 -1 -3 -2 1 1 1
6 6 5 3 1 -4 -8 -6 -9 -5 -7 -6 -4 -3 -3 -2 -2 -2 -2 -1 0 -0 0 0 1 0 -1 -0 -0 0 0 0 0 0 0 1 1 2 4 -0 -0 -6 -2 -2 -0 -1 -0
6 6 6 4 2 -2 -7 -8 -8 -3 -4 -5 -5 -4 -3 -3 -3 -2 -2 -1 -1 -1 -0 -0 -0 -0 -0 -0 -1 -2 -3 -2 -1 -0 0 -0 0 1 1 -0 -5 -7 -6 -1 0 -2 -2
6 6 5 6 3 -0 -7 -6 -8 -3 -2 -2 -2 -2 -4 -4 -4 -3 -2 -2 -2 -1 -2 -1 -1 0 0 -1 -1 -1 -5 -3 -2 -2 -2 -1 -1 1 1 1 -5 -12 -6 -3 -2 -1 -4
6 6 6 6 4 2 -7 -3 -5 -4 -2 -2 -2 -2 -4 -3 -4 -4 -2 -2 -1 -2 -2 -1 -0 0 0 -0 1 1 -1 -2 -2 -2 -1 1 1 2 1 1 -4 -7 -4 -3 -2 -8 -6
6 6 5 5 5 3 -3 -3 -3 -4 -3 -3 -3 -2 -2 -3 -4 -5 -4 -3 -2 -1 -2 -2 0 -0 -0 1 1 -0 -0 -2 -1 -3 -3 -2 -1 0 0 2 0 -5 -3 -2 -4 -6 -3
6 6 6 6 5 4 3 -7 -2 -3 -3 -3 -2 -1 -1 -2 -2 -2 -3 -3 -4 -3 -2 -1 -0 -1 -0 0 -0 -1 0 -1 -2 -3 -5 -2 -5 -6 -3 -4 -5 -6 -3 -4 -5 -4 -4